<?xml version='1.0' encoding='UTF-8'?><gpx version="1.1" creator="JPX - https://github.com/jenetics/jpx" xmlns="http://www.topografix.com/GPX/1/1"><trk><trkseg><trkpt lat="39.14921800143554" lon="16.071628623157572"><ele>160.0</ele><time>2026-04-26T11:21:06.999Z</time></trkpt><trkpt lat="39.14911737532567" lon="16.07162874261138"><ele>160.0</ele><time>2026-04-26T11:21:08.999Z</time></trkpt><trkpt lat="39.14900748667887" lon="16.071640407892936"><ele>160.0</ele><time>2026-04-26T11:21:10.999Z</time></trkpt><trkpt lat="39.1489378444376" lon="16.07164877025275"><ele>160.0</ele><time>2026-04-26T11:21:11.999Z</time></trkpt><trkpt lat="39.148864002178634" lon="16.07164859191275"><ele>160.0</ele><time>2026-04-26T11:21:12.999Z</time></trkpt><trkpt lat="39.148791351748194" lon="16.071648609526296"><ele>160.0</ele><time>2026-04-26T11:21:13.999Z</time></trkpt><trkpt lat="39.14871426837026" lon="16.071646836207083"><ele>160.16666666666669</ele><time>2026-04-26T11:21:14.999Z</time></trkpt><trkpt lat="39.1486381363878" lon="16.07165065972339"><ele>160.33333333333334</ele><time>2026-04-26T11:21:15.999Z</time></trkpt><trkpt lat="39.14855922355192" lon="16.07165145469624"><ele>160.5</ele><time>2026-04-26T11:21:16.999Z</time></trkpt><trkpt lat="39.148482270151135" lon="16.071654697610672"><ele>160.66666666666666</ele><time>2026-04-26T11:21:17.999Z</time></trkpt><trkpt lat="39.14841108628087" lon="16.071661358533365"><ele>160.83333333333331</ele><time>2026-04-26T11:21:18.999Z</time></trkpt><trkpt lat="39.148345700512415" lon="16.07166374564933"><ele>161.0</ele><time>2026-04-26T11:21:19.999Z</time></trkpt><trkpt lat="39.148230936112924" lon="16.071668834458016"><ele>161.16666666666666</ele><time>2026-04-26T11:21:21.999Z</time></trkpt><trkpt lat="39.14812681743385" lon="16.071692910892835"><ele>161.33333333333331</ele><time>2026-04-26T11:21:23.999Z</time></trkpt><trkpt lat="39.14804666773486" lon="16.071738631473448"><ele>161.5</ele><time>2026-04-26T11:21:25.999Z</time></trkpt><trkpt lat="39.147996662319166" lon="16.071800700224554"><ele>161.66666666666666</ele><time>2026-04-26T11:21:27.999Z</time></trkpt><trkpt lat="39.14795066901075" lon="16.071873146191162"><ele>161.83333333333334</ele><time>2026-04-26T11:21:29.999Z</time></trkpt><trkpt lat="39.14791211173018" lon="16.071945169237285"><ele>162.0</ele><time>2026-04-26T11:21:31.999Z</time></trkpt><trkpt lat="39.1478718397512" lon="16.072021964566733"><ele>162.0</ele><time>2026-04-26T11:21:33.999Z</time></trkpt><trkpt lat="39.147842431511386" lon="16.072098934638916"><ele>162.0</ele><time>2026-04-26T11:21:35.999Z</time></trkpt><trkpt lat="39.147808127380436" lon="16.072183311993616"><ele>162.0</ele><time>2026-04-26T11:21:37.999Z</time></trkpt><trkpt lat="39.14782848703151" lon="16.07228741949096"><ele>162.0</ele><time>2026-04-26T11:21:39.999Z</time></trkpt><trkpt lat="39.147924993744596" lon="16.07233396292307"><ele>162.0</ele><time>2026-04-26T11:21:41.999Z</time></trkpt><trkpt lat="39.14800506397192" lon="16.072355118652915"><ele>162.0</ele><time>2026-04-26T11:21:43.999Z</time></trkpt><trkpt lat="39.14808967728539" lon="16.072372631842338"><ele>162.0</ele><time>2026-04-26T11:21:45.999Z</time></trkpt><trkpt lat="39.148177274224565" lon="16.072386952962304"><ele>162.0</ele><time>2026-04-26T11:21:47.999Z</time></trkpt><trkpt lat="39.14826067247308" lon="16.072400587641017"><ele>162.0</ele><time>2026-04-26T11:21:49.999Z</time></trkpt><trkpt lat="39.148342915625754" lon="16.07241829327961"><ele>162.0</ele><time>2026-04-26T11:21:51.999Z</time></trkpt><trkpt lat="39.148418578030295" lon="16.072448015742197"><ele>162.0</ele><time>2026-04-26T11:21:53.999Z</time></trkpt><trkpt lat="39.14850300763506" lon="16.072486134872875"><ele>162.0</ele><time>2026-04-26T11:21:55.999Z</time></trkpt><trkpt lat="39.148597020328886" lon="16.072533259334072"><ele>166.0</ele><time>2026-04-26T11:21:57.999Z</time></trkpt><trkpt lat="39.14869156653449" lon="16.072585077234287"><ele>170.0</ele><time>2026-04-26T11:21:59.999Z</time></trkpt><trkpt lat="39.148788417706406" lon="16.072639181357"><ele>174.0</ele><time>2026-04-26T11:22:01.999Z</time></trkpt><trkpt lat="39.14889054041642" lon="16.07269667380994"><ele>178.0</ele><time>2026-04-26T11:22:03.999Z</time></trkpt><trkpt lat="39.14899485043016" lon="16.072750052449212"><ele>182.0</ele><time>2026-04-26T11:22:05.999Z</time></trkpt><trkpt lat="39.14909196585613" lon="16.072796706043498"><ele>182.0</ele><time>2026-04-26T11:22:07.999Z</time></trkpt><trkpt lat="39.14918654632047" lon="16.072839071031886"><ele>182.0</ele><time>2026-04-26T11:22:09.999Z</time></trkpt><trkpt lat="39.149283723838025" lon="16.072879343798526"><ele>182.0</ele><time>2026-04-26T11:22:11.999Z</time></trkpt><trkpt lat="39.14941253859232" lon="16.07291211138619"><ele>182.0</ele><time>2026-04-26T11:22:13.999Z</time></trkpt><trkpt lat="39.14947985485646" lon="16.07294094727739"><ele>182.0</ele><time>2026-04-26T11:22:14.999Z</time></trkpt><trkpt lat="39.14954687120002" lon="16.072989415255737"><ele>182.0</ele><time>2026-04-26T11:22:15.999Z</time></trkpt><trkpt lat="39.14961996941206" lon="16.073020103375587"><ele>182.0</ele><time>2026-04-26T11:22:16.999Z</time></trkpt><trkpt lat="39.14969902501364" lon="16.073053680748746"><ele>182.0</ele><time>2026-04-26T11:22:17.999Z</time></trkpt><trkpt lat="39.14977728390974" lon="16.073086919735886"><ele>182.0</ele><time>2026-04-26T11:22:18.999Z</time></trkpt><trkpt lat="39.14985967521397" lon="16.07312443572992"><ele>182.0</ele><time>2026-04-26T11:22:19.999Z</time></trkpt><trkpt lat="39.14994758040782" lon="16.07314420592954"><ele>182.0</ele><time>2026-04-26T11:22:20.999Z</time></trkpt><trkpt lat="39.1500268570351" lon="16.07320094070515"><ele>181.5</ele><time>2026-04-26T11:22:21.999Z</time></trkpt><trkpt lat="39.150102364709205" lon="16.073236546949985"><ele>181.0</ele><time>2026-04-26T11:22:22.999Z</time></trkpt><trkpt lat="39.15018177137145" lon="16.073275713741804"><ele>180.5</ele><time>2026-04-26T11:22:23.999Z</time></trkpt><trkpt lat="39.15025673421901" lon="16.07329317543636"><ele>180.0</ele><time>2026-04-26T11:22:24.999Z</time></trkpt><trkpt lat="39.15030986211293" lon="16.073348771348716"><ele>179.5</ele><time>2026-04-26T11:22:25.999Z</time></trkpt><trkpt lat="39.15035485707352" lon="16.073416378736912"><ele>179.0</ele><time>2026-04-26T11:22:27.999Z</time></trkpt><trkpt lat="39.150280147491536" lon="16.073470423463746"><ele>183.83333333333331</ele><time>2026-04-26T11:22:29.999Z</time></trkpt><trkpt lat="39.15016110460471" lon="16.073453801452555"><ele>188.66666666666666</ele><time>2026-04-26T11:22:31.999Z</time></trkpt><trkpt lat="39.15009303915631" lon="16.073469161702434"><ele>193.5</ele><time>2026-04-26T11:22:32.999Z</time></trkpt><trkpt lat="39.15001452911033" lon="16.073495012717814"><ele>198.33333333333331</ele><time>2026-04-26T11:22:33.999Z</time></trkpt><trkpt lat="39.149938322942106" lon="16.07352259121754"><ele>203.16666666666666</ele><time>2026-04-26T11:22:34.999Z</time></trkpt><trkpt lat="39.14985295149295" lon="16.07355275614946"><ele>208.0</ele><time>2026-04-26T11:22:35.999Z</time></trkpt><trkpt lat="39.14976320992794" lon="16.073588462762004"><ele>208.0</ele><time>2026-04-26T11:22:36.999Z</time></trkpt><trkpt lat="39.14966286528934" lon="16.073620156973266"><ele>208.0</ele><time>2026-04-26T11:22:37.999Z</time></trkpt><trkpt lat="39.14956037729934" lon="16.07364113965977"><ele>208.0</ele><time>2026-04-26T11:22:38.999Z</time></trkpt><trkpt lat="39.14945475014495" lon="16.073655488384237"><ele>208.0</ele><time>2026-04-26T11:22:39.999Z</time></trkpt><trkpt lat="39.14934929396135" lon="16.073661279372104"><ele>208.0</ele><time>2026-04-26T11:22:40.999Z</time></trkpt><trkpt lat="39.149249470366584" lon="16.073678355783926"><ele>208.0</ele><time>2026-04-26T11:22:41.999Z</time></trkpt><trkpt lat="39.149149439883125" lon="16.07368941596283"><ele>208.0</ele><time>2026-04-26T11:22:42.999Z</time></trkpt><trkpt lat="39.14905357331011" lon="16.07369834458306"><ele>208.0</ele><time>2026-04-26T11:22:43.999Z</time></trkpt><trkpt lat="39.14896043347949" lon="16.073708781930062"><ele>208.0</ele><time>2026-04-26T11:22:44.999Z</time></trkpt><trkpt lat="39.14887110927087" lon="16.073719573600616"><ele>208.0</ele><time>2026-04-26T11:22:45.999Z</time></trkpt><trkpt lat="39.148784368590796" lon="16.073730397127175"><ele>208.83333333333331</ele><time>2026-04-26T11:22:46.999Z</time></trkpt><trkpt lat="39.1487012327115" lon="16.073739215925"><ele>209.66666666666666</ele><time>2026-04-26T11:22:47.999Z</time></trkpt><trkpt lat="39.14862224684432" lon="16.07374937684922"><ele>210.5</ele><time>2026-04-26T11:22:48.999Z</time></trkpt><trkpt lat="39.14854819626267" lon="16.07375928561211"><ele>211.33333333333331</ele><time>2026-04-26T11:22:49.999Z</time></trkpt><trkpt lat="39.14847899798976" lon="16.073774538951287"><ele>212.16666666666666</ele><time>2026-04-26T11:22:50.999Z</time></trkpt><trkpt lat="39.14841043449231" lon="16.073802001308795"><ele>213.0</ele><time>2026-04-26T11:22:51.999Z</time></trkpt><trkpt lat="39.14834671724193" lon="16.07384645907775"><ele>212.99999999999997</ele><time>2026-04-26T11:22:52.999Z</time></trkpt><trkpt lat="39.14829075637088" lon="16.0739058656394"><ele>213.0</ele><time>2026-04-26T11:22:53.999Z</time></trkpt><trkpt lat="39.14823932485859" lon="16.073975694469134"><ele>213.0</ele><time>2026-04-26T11:22:54.999Z</time></trkpt><trkpt lat="39.14818792733788" lon="16.07403597951698"><ele>213.0</ele><time>2026-04-26T11:22:55.999Z</time></trkpt><trkpt lat="39.14812913685366" lon="16.074070283734354"><ele>213.0</ele><time>2026-04-26T11:22:56.999Z</time></trkpt><trkpt lat="39.14805921942664" lon="16.074060093591264"><ele>212.99999999999997</ele><time>2026-04-26T11:22:57.999Z</time></trkpt><trkpt lat="39.14801167814161" lon="16.07398327422385"><ele>213.0</ele><time>2026-04-26T11:22:58.999Z</time></trkpt><trkpt lat="39.14795063854111" lon="16.073944141452575"><ele>212.66666666666666</ele><time>2026-04-26T11:22:59.999Z</time></trkpt><trkpt lat="39.14789047717155" lon="16.073902315252255"><ele>212.33333333333331</ele><time>2026-04-26T11:23:00.999Z</time></trkpt><trkpt lat="39.147814937786514" lon="16.073901575446996"><ele>212.0</ele><time>2026-04-26T11:23:01.999Z</time></trkpt><trkpt lat="39.147728646208975" lon="16.073919843018782"><ele>211.66666666666666</ele><time>2026-04-26T11:23:02.999Z</time></trkpt><trkpt lat="39.14764667216184" lon="16.073955435627933"><ele>211.33333333333331</ele><time>2026-04-26T11:23:03.999Z</time></trkpt><trkpt lat="39.14757332441552" lon="16.07399961762847"><ele>211.0</ele><time>2026-04-26T11:23:04.999Z</time></trkpt><trkpt lat="39.147510890574736" lon="16.074061169073268"><ele>216.33333333333331</ele><time>2026-04-26T11:23:05.999Z</time></trkpt><trkpt lat="39.14745801524549" lon="16.074139666976464"><ele>221.66666666666666</ele><time>2026-04-26T11:23:06.999Z</time></trkpt><trkpt lat="39.147421039870814" lon="16.07422022868426"><ele>227.0</ele><time>2026-04-26T11:23:07.999Z</time></trkpt><trkpt lat="39.14738165769587" lon="16.074301559002627"><ele>232.33333333333331</ele><time>2026-04-26T11:23:08.999Z</time></trkpt><trkpt lat="39.14734491746861" lon="16.074385441451213"><ele>237.66666666666666</ele><time>2026-04-26T11:23:09.999Z</time></trkpt><trkpt lat="39.14730584880957" lon="16.07447302472168"><ele>243.0</ele><time>2026-04-26T11:23:10.999Z</time></trkpt><trkpt lat="39.147264219145974" lon="16.07455597633636"><ele>243.33333333333334</ele><time>2026-04-26T11:23:11.999Z</time></trkpt><trkpt lat="39.147217224034115" lon="16.07463962321846"><ele>243.66666666666669</ele><time>2026-04-26T11:23:12.999Z</time></trkpt><trkpt lat="39.14716315988883" lon="16.074721498952478"><ele>244.0</ele><time>2026-04-26T11:23:13.999Z</time></trkpt><trkpt lat="39.14709765676983" lon="16.07478593465072"><ele>244.33333333333334</ele><time>2026-04-26T11:23:14.999Z</time></trkpt><trkpt lat="39.147024217519665" lon="16.07482798682301"><ele>244.66666666666669</ele><time>2026-04-26T11:23:15.999Z</time></trkpt><trkpt lat="39.14694790066266" lon="16.074817921677177"><ele>245.0</ele><time>2026-04-26T11:23:16.999Z</time></trkpt><trkpt lat="39.14687853676559" lon="16.074775147188888"><ele>245.0</ele><time>2026-04-26T11:23:17.999Z</time></trkpt><trkpt lat="39.146830331353" lon="16.074697025460914"><ele>245.0</ele><time>2026-04-26T11:23:18.999Z</time></trkpt><trkpt lat="39.14679284421033" lon="16.07461100587867"><ele>245.0</ele><time>2026-04-26T11:23:19.999Z</time></trkpt><trkpt lat="39.146756706252226" lon="16.074533301597935"><ele>245.0</ele><time>2026-04-26T11:23:20.999Z</time></trkpt><trkpt lat="39.14671027645397" lon="16.07446376585633"><ele>245.0</ele><time>2026-04-26T11:23:21.999Z</time></trkpt><trkpt lat="39.146641091554145" lon="16.074427584633384"><ele>245.0</ele><time>2026-04-26T11:23:22.999Z</time></trkpt><trkpt lat="39.146563103574735" lon="16.074421723021032"><ele>245.0</ele><time>2026-04-26T11:23:23.999Z</time></trkpt><trkpt lat="39.14649260186921" lon="16.074435370746748"><ele>245.00000000000003</ele><time>2026-04-26T11:23:24.999Z</time></trkpt><trkpt lat="39.146429865114484" lon="16.074541139694116"><ele>245.0</ele><time>2026-04-26T11:23:26.999Z</time></trkpt><trkpt lat="39.146472116688045" lon="16.074663961379738"><ele>245.0</ele><time>2026-04-26T11:23:28.999Z</time></trkpt><trkpt lat="39.146487274845505" lon="16.074749048880395"><ele>245.0</ele><time>2026-04-26T11:23:29.999Z</time></trkpt><trkpt lat="39.14651965992648" lon="16.074842314013132"><ele>245.00000000000003</ele><time>2026-04-26T11:23:30.999Z</time></trkpt><trkpt lat="39.14654888851105" lon="16.07493755381076"><ele>245.0</ele><time>2026-04-26T11:23:31.999Z</time></trkpt><trkpt lat="39.14656960028268" lon="16.07503992616303"><ele>249.8</ele><time>2026-04-26T11:23:32.999Z</time></trkpt><trkpt lat="39.14659848435359" lon="16.075153327911305"><ele>254.6</ele><time>2026-04-26T11:23:33.999Z</time></trkpt><trkpt lat="39.146641952601094" lon="16.075262169810003"><ele>259.4</ele><time>2026-04-26T11:23:34.999Z</time></trkpt><trkpt lat="39.146686920091696" lon="16.07537602766406"><ele>264.2</ele><time>2026-04-26T11:23:35.999Z</time></trkpt><trkpt lat="39.1467206055006" lon="16.07548284902801"><ele>269.0</ele><time>2026-04-26T11:23:36.999Z</time></trkpt><trkpt lat="39.146772246950995" lon="16.075585152143184"><ele>269.0</ele><time>2026-04-26T11:23:37.999Z</time></trkpt><trkpt lat="39.1468224059373" lon="16.075667506319444"><ele>269.0</ele><time>2026-04-26T11:23:38.999Z</time></trkpt><trkpt lat="39.146889466748796" lon="16.075721287352245"><ele>269.0</ele><time>2026-04-26T11:23:39.999Z</time></trkpt><trkpt lat="39.146969154836285" lon="16.075742433003306"><ele>269.0</ele><time>2026-04-26T11:23:40.999Z</time></trkpt><trkpt lat="39.14704829715747" lon="16.075760868503323"><ele>269.0</ele><time>2026-04-26T11:23:41.999Z</time></trkpt><trkpt lat="39.147128811505944" lon="16.07577951569081"><ele>269.0</ele><time>2026-04-26T11:23:42.999Z</time></trkpt><trkpt lat="39.147211727439526" lon="16.07578490769347"><ele>269.0</ele><time>2026-04-26T11:23:43.999Z</time></trkpt><trkpt lat="39.147286662691755" lon="16.07574816179128"><ele>269.0</ele><time>2026-04-26T11:23:44.999Z</time></trkpt><trkpt lat="39.14735129146257" lon="16.075682439679763"><ele>269.0</ele><time>2026-04-26T11:23:45.999Z</time></trkpt><trkpt lat="39.147413567552846" lon="16.075610155759783"><ele>269.0</ele><time>2026-04-26T11:23:46.999Z</time></trkpt><trkpt lat="39.147482949473265" lon="16.075538699403964"><ele>269.0</ele><time>2026-04-26T11:23:47.999Z</time></trkpt><trkpt lat="39.147553318388645" lon="16.075468125467076"><ele>269.0</ele><time>2026-04-26T11:23:48.999Z</time></trkpt><trkpt lat="39.1476173239552" lon="16.07539532051547"><ele>269.1666666666667</ele><time>2026-04-26T11:23:49.999Z</time></trkpt><trkpt lat="39.1476941925907" lon="16.0753564137652"><ele>269.33333333333337</ele><time>2026-04-26T11:23:50.999Z</time></trkpt><trkpt lat="39.14776008773896" lon="16.07532518116903"><ele>269.5</ele><time>2026-04-26T11:23:51.999Z</time></trkpt><trkpt lat="39.14783001765752" lon="16.075304812128316"><ele>269.6666666666667</ele><time>2026-04-26T11:23:52.999Z</time></trkpt><trkpt lat="39.14790107208508" lon="16.075316452673853"><ele>269.8333333333333</ele><time>2026-04-26T11:23:53.999Z</time></trkpt><trkpt lat="39.14797645955142" lon="16.075333262184085"><ele>270.0</ele><time>2026-04-26T11:23:54.999Z</time></trkpt><trkpt lat="39.148054123059346" lon="16.07536124079436"><ele>270.0</ele><time>2026-04-26T11:23:55.999Z</time></trkpt><trkpt lat="39.14813820115965" lon="16.0753544532387"><ele>270.0</ele><time>2026-04-26T11:23:56.999Z</time></trkpt><trkpt lat="39.14822184794494" lon="16.07533712988442"><ele>270.0</ele><time>2026-04-26T11:23:57.999Z</time></trkpt><trkpt lat="39.14830095840762" lon="16.075295434415537"><ele>270.0</ele><time>2026-04-26T11:23:58.999Z</time></trkpt><trkpt lat="39.14837584750975" lon="16.075244320119175"><ele>270.0</ele><time>2026-04-26T11:23:59.999Z</time></trkpt><trkpt lat="39.148445648288394" lon="16.075187932029394"><ele>270.0</ele><time>2026-04-26T11:24:00.999Z</time></trkpt><trkpt lat="39.148527783933986" lon="16.075161560052152"><ele>271.2857142857143</ele><time>2026-04-26T11:24:01.999Z</time></trkpt><trkpt lat="39.14860258155085" lon="16.07512739565385"><ele>272.57142857142856</ele><time>2026-04-26T11:24:02.999Z</time></trkpt><trkpt lat="39.148670306373624" lon="16.075101711764436"><ele>273.85714285714283</ele><time>2026-04-26T11:24:03.999Z</time></trkpt><trkpt lat="39.14874119746649" lon="16.07508168227144"><ele>275.1428571428571</ele><time>2026-04-26T11:24:04.999Z</time></trkpt><trkpt lat="39.14881016445368" lon="16.07506916252267"><ele>276.42857142857144</ele><time>2026-04-26T11:24:05.999Z</time></trkpt><trkpt lat="39.14887373526996" lon="16.075042288748065"><ele>277.71428571428567</ele><time>2026-04-26T11:24:06.999Z</time></trkpt><trkpt lat="39.148939175375254" lon="16.07504814005242"><ele>279.0</ele><time>2026-04-26T11:24:07.999Z</time></trkpt><trkpt lat="39.14901220631626" lon="16.075103652882458"><ele>279.0</ele><time>2026-04-26T11:24:09.999Z</time></trkpt><trkpt lat="39.1490340383423" lon="16.075194845671863"><ele>279.0</ele><time>2026-04-26T11:24:12.999Z</time></trkpt><trkpt lat="39.14896047038196" lon="16.07531510825117"><ele>279.0</ele><time>2026-04-26T11:24:25.999Z</time></trkpt><trkpt lat="39.14888698080713" lon="16.07535100055709"><ele>279.0</ele><time>2026-04-26T11:24:26.999Z</time></trkpt><trkpt lat="39.148814652971595" lon="16.075366922614805"><ele>279.0</ele><time>2026-04-26T11:24:27.999Z</time></trkpt><trkpt lat="39.14873863490005" lon="16.075395206788208"><ele>279.0</ele><time>2026-04-26T11:24:28.999Z</time></trkpt><trkpt lat="39.14866172481407" lon="16.07543349842403"><ele>279.0</ele><time>2026-04-26T11:24:29.999Z</time></trkpt><trkpt lat="39.14858925360729" lon="16.07547957081131"><ele>279.0</ele><time>2026-04-26T11:24:30.999Z</time></trkpt><trkpt lat="39.14852107155585" lon="16.075536814061305"><ele>279.0</ele><time>2026-04-26T11:24:31.999Z</time></trkpt><trkpt lat="39.148458743827746" lon="16.075619865128612"><ele>279.0</ele><time>2026-04-26T11:24:32.999Z</time></trkpt><trkpt lat="39.14840166804087" lon="16.075716261360313"><ele>279.0</ele><time>2026-04-26T11:24:33.999Z</time></trkpt><trkpt lat="39.14834585316031" lon="16.075823144370744"><ele>279.0</ele><time>2026-04-26T11:24:34.999Z</time></trkpt><trkpt lat="39.14830565938988" lon="16.075944404656497"><ele>280.0</ele><time>2026-04-26T11:24:35.999Z</time></trkpt><trkpt lat="39.14826623284698" lon="16.07606969230366"><ele>281.0</ele><time>2026-04-26T11:24:36.999Z</time></trkpt><trkpt lat="39.1482241339594" lon="16.076197146883267"><ele>282.0</ele><time>2026-04-26T11:24:37.999Z</time></trkpt><trkpt lat="39.148182692570266" lon="16.076319763056546"><ele>283.0</ele><time>2026-04-26T11:24:38.999Z</time></trkpt><trkpt lat="39.1481343981244" lon="16.07643595449894"><ele>284.0</ele><time>2026-04-26T11:24:39.999Z</time></trkpt><trkpt lat="39.14808405224303" lon="16.076548683272332"><ele>286.4</ele><time>2026-04-26T11:24:40.999Z</time></trkpt><trkpt lat="39.14803249284979" lon="16.076663277201465"><ele>288.79999999999995</ele><time>2026-04-26T11:24:41.999Z</time></trkpt><trkpt lat="39.14798022603822" lon="16.07676959980845"><ele>291.20000000000005</ele><time>2026-04-26T11:24:42.999Z</time></trkpt><trkpt lat="39.14792128499073" lon="16.076867582103723"><ele>293.6</ele><time>2026-04-26T11:24:43.999Z</time></trkpt><trkpt lat="39.14786172376647" lon="16.076961078807344"><ele>296.0</ele><time>2026-04-26T11:24:44.999Z</time></trkpt><trkpt lat="39.147801766168634" lon="16.077056805304554"><ele>296.0</ele><time>2026-04-26T11:24:45.999Z</time></trkpt><trkpt lat="39.14774769910021" lon="16.077156622560974"><ele>296.0</ele><time>2026-04-26T11:24:46.999Z</time></trkpt><trkpt lat="39.147707091284076" lon="16.077243670584018"><ele>296.0</ele><time>2026-04-26T11:24:47.999Z</time></trkpt><trkpt lat="39.1476752169785" lon="16.07738931698932"><ele>296.0</ele><time>2026-04-26T11:24:49.999Z</time></trkpt><trkpt lat="39.147698486264176" lon="16.07747086056021"><ele>296.0</ele><time>2026-04-26T11:24:50.999Z</time></trkpt><trkpt lat="39.14773500344512" lon="16.07755052287584"><ele>296.0</ele><time>2026-04-26T11:24:51.999Z</time></trkpt><trkpt lat="39.147784376090755" lon="16.07763158202375"><ele>296.6666666666667</ele><time>2026-04-26T11:24:52.999Z</time></trkpt><trkpt lat="39.1478357242358" lon="16.07771709690573"><ele>297.33333333333337</ele><time>2026-04-26T11:24:53.999Z</time></trkpt><trkpt lat="39.14786846325627" lon="16.077813680118098"><ele>298.0</ele><time>2026-04-26T11:24:54.999Z</time></trkpt><trkpt lat="39.14793181389335" lon="16.077900732701803"><ele>298.6666666666667</ele><time>2026-04-26T11:24:55.999Z</time></trkpt><trkpt lat="39.14797631285584" lon="16.078001605457704"><ele>299.3333333333333</ele><time>2026-04-26T11:24:56.999Z</time></trkpt><trkpt lat="39.14801559072235" lon="16.078118437867204"><ele>300.0</ele><time>2026-04-26T11:24:57.999Z</time></trkpt><trkpt lat="39.14803577722645" lon="16.078249284692006"><ele>299.6</ele><time>2026-04-26T11:24:58.999Z</time></trkpt><trkpt lat="39.14806878687037" lon="16.078378841502943"><ele>299.2</ele><time>2026-04-26T11:24:59.999Z</time></trkpt><trkpt lat="39.148096733784925" lon="16.07851315953144"><ele>298.8</ele><time>2026-04-26T11:25:00.999Z</time></trkpt><trkpt lat="39.148131593846664" lon="16.078648347814926"><ele>298.4</ele><time>2026-04-26T11:25:01.999Z</time></trkpt><trkpt lat="39.14815572348396" lon="16.078777921245457"><ele>298.0</ele><time>2026-04-26T11:25:02.999Z</time></trkpt><trkpt lat="39.14819397992105" lon="16.078878354693142"><ele>300.16666666666663</ele><time>2026-04-26T11:25:03.999Z</time></trkpt><trkpt lat="39.14822958794102" lon="16.078961152664174"><ele>302.3333333333333</ele><time>2026-04-26T11:25:04.999Z</time></trkpt><trkpt lat="39.14830074339752" lon="16.078974561777496"><ele>304.5</ele><time>2026-04-26T11:25:05.999Z</time></trkpt><trkpt lat="39.14842433591644" lon="16.078981173881484"><ele>306.6666666666667</ele><time>2026-04-26T11:25:07.999Z</time></trkpt><trkpt lat="39.14849182116985" lon="16.07898353576792"><ele>308.83333333333337</ele><time>2026-04-26T11:25:08.999Z</time></trkpt><trkpt lat="39.14856370218669" lon="16.078984851050897"><ele>311.0</ele><time>2026-04-26T11:25:09.999Z</time></trkpt><trkpt lat="39.14863143628679" lon="16.078975049103878"><ele>311.0</ele><time>2026-04-26T11:25:10.999Z</time></trkpt><trkpt lat="39.148697134944264" lon="16.07895581964677"><ele>311.0</ele><time>2026-04-26T11:25:11.999Z</time></trkpt><trkpt lat="39.148757308147054" lon="16.078917700617517"><ele>311.0</ele><time>2026-04-26T11:25:12.999Z</time></trkpt><trkpt lat="39.14881103096795" lon="16.078866794802348"><ele>311.0</ele><time>2026-04-26T11:25:13.999Z</time></trkpt><trkpt lat="39.148859670984656" lon="16.078803087426046"><ele>311.0</ele><time>2026-04-26T11:25:14.999Z</time></trkpt><trkpt lat="39.14890722857234" lon="16.078735355165033"><ele>311.0</ele><time>2026-04-26T11:25:15.999Z</time></trkpt><trkpt lat="39.14895864658519" lon="16.078665209899903"><ele>311.0</ele><time>2026-04-26T11:25:16.999Z</time></trkpt><trkpt lat="39.14901149026402" lon="16.078588531353535"><ele>313.33333333333337</ele><time>2026-04-26T11:25:17.999Z</time></trkpt><trkpt lat="39.149061210355015" lon="16.078506070932573"><ele>315.6666666666667</ele><time>2026-04-26T11:25:18.999Z</time></trkpt><trkpt lat="39.14910992265104" lon="16.078423087369334"><ele>318.0</ele><time>2026-04-26T11:25:19.999Z</time></trkpt><trkpt lat="39.1491532599273" lon="16.078332569540667"><ele>320.3333333333333</ele><time>2026-04-26T11:25:20.999Z</time></trkpt><trkpt lat="39.1491810717334" lon="16.07823677501505"><ele>322.66666666666663</ele><time>2026-04-26T11:25:21.999Z</time></trkpt><trkpt lat="39.149195930440584" lon="16.078133681530325"><ele>325.0</ele><time>2026-04-26T11:25:22.999Z</time></trkpt><trkpt lat="39.14918310980127" lon="16.078032070407275"><ele>325.3333333333333</ele><time>2026-04-26T11:25:23.999Z</time></trkpt><trkpt lat="39.14915538612403" lon="16.077934298043935"><ele>325.66666666666663</ele><time>2026-04-26T11:25:24.999Z</time></trkpt><trkpt lat="39.149107236594105" lon="16.07784540965559"><ele>326.0</ele><time>2026-04-26T11:25:25.999Z</time></trkpt><trkpt lat="39.14907097785307" lon="16.077748159904022"><ele>326.3333333333333</ele><time>2026-04-26T11:25:26.999Z</time></trkpt><trkpt lat="39.14900592323914" lon="16.077696596958532"><ele>326.6666666666667</ele><time>2026-04-26T11:25:27.999Z</time></trkpt><trkpt lat="39.14899099109854" lon="16.077578664183214"><ele>327.0</ele><time>2026-04-26T11:25:29.999Z</time></trkpt><trkpt lat="39.149068151936106" lon="16.077542385504152"><ele>327.0</ele><time>2026-04-26T11:25:32.999Z</time></trkpt><trkpt lat="39.149150093972736" lon="16.077649338271424"><ele>327.0</ele><time>2026-04-26T11:25:34.999Z</time></trkpt><trkpt lat="39.149202926481735" lon="16.077713541714537"><ele>327.0</ele><time>2026-04-26T11:25:35.999Z</time></trkpt><trkpt lat="39.14924926032013" lon="16.07780230964546"><ele>327.0</ele><time>2026-04-26T11:25:36.999Z</time></trkpt><trkpt lat="39.14930590587448" lon="16.07788114404531"><ele>327.0</ele><time>2026-04-26T11:25:37.999Z</time></trkpt><trkpt lat="39.14937298790328" lon="16.077971714327944"><ele>327.0</ele><time>2026-04-26T11:25:38.999Z</time></trkpt><trkpt lat="39.14943926417392" lon="16.078070373829252"><ele>327.0</ele><time>2026-04-26T11:25:39.999Z</time></trkpt><trkpt lat="39.14950449746057" lon="16.078173452949397"><ele>327.0</ele><time>2026-04-26T11:25:40.999Z</time></trkpt><trkpt lat="39.14957447733948" lon="16.07827062533293"><ele>327.0</ele><time>2026-04-26T11:25:41.999Z</time></trkpt><trkpt lat="39.14964724575116" lon="16.07836319710951"><ele>327.0</ele><time>2026-04-26T11:25:42.999Z</time></trkpt><trkpt lat="39.14971699847813" lon="16.078454049618554"><ele>326.6</ele><time>2026-04-26T11:25:43.999Z</time></trkpt><trkpt lat="39.14979083929021" lon="16.07853447025637"><ele>326.20000000000005</ele><time>2026-04-26T11:25:44.999Z</time></trkpt><trkpt lat="39.14986092819284" lon="16.078614054559424"><ele>325.8</ele><time>2026-04-26T11:25:45.999Z</time></trkpt><trkpt lat="39.149927668415394" lon="16.078692122544176"><ele>325.4</ele><time>2026-04-26T11:25:46.999Z</time></trkpt><trkpt lat="39.14998174996606" lon="16.07877864373887"><ele>325.0</ele><time>2026-04-26T11:25:47.999Z</time></trkpt><trkpt lat="39.15003196884806" lon="16.078874225010644"><ele>326.2</ele><time>2026-04-26T11:25:48.999Z</time></trkpt><trkpt lat="39.15008157929793" lon="16.07897039060716"><ele>327.4</ele><time>2026-04-26T11:25:49.999Z</time></trkpt><trkpt lat="39.15013173657117" lon="16.079066458910912"><ele>328.6</ele><time>2026-04-26T11:25:50.999Z</time></trkpt><trkpt lat="39.15017872571077" lon="16.079166316493655"><ele>329.8</ele><time>2026-04-26T11:25:51.999Z</time></trkpt><trkpt lat="39.1502339522083" lon="16.07926188584415"><ele>331.0</ele><time>2026-04-26T11:25:52.999Z</time></trkpt><trkpt lat="39.15028973826174" lon="16.079356229560574"><ele>332.5</ele><time>2026-04-26T11:25:53.999Z</time></trkpt><trkpt lat="39.15034480092149" lon="16.079450466145282"><ele>334.0</ele><time>2026-04-26T11:25:54.999Z</time></trkpt><trkpt lat="39.15039319036941" lon="16.079539358107382"><ele>335.5</ele><time>2026-04-26T11:25:55.999Z</time></trkpt><trkpt lat="39.15043615491328" lon="16.079628303917183"><ele>337.0</ele><time>2026-04-26T11:25:56.999Z</time></trkpt><trkpt lat="39.15046874441641" lon="16.079697981588595"><ele>338.5</ele><time>2026-04-26T11:25:57.999Z</time></trkpt><trkpt lat="39.150484557640056" lon="16.079779024316725"><ele>340.0</ele><time>2026-04-26T11:25:58.999Z</time></trkpt><trkpt lat="39.15047379681183" lon="16.079862949394823"><ele>340.0</ele><time>2026-04-26T11:25:59.999Z</time></trkpt><trkpt lat="39.150429835263175" lon="16.079930383018937"><ele>340.0</ele><time>2026-04-26T11:26:00.999Z</time></trkpt><trkpt lat="39.15036616690069" lon="16.079965627302855"><ele>340.0</ele><time>2026-04-26T11:26:01.999Z</time></trkpt><trkpt lat="39.15029974077878" lon="16.0799508686163"><ele>340.0</ele><time>2026-04-26T11:26:02.999Z</time></trkpt><trkpt lat="39.15026402767945" lon="16.079854879047677"><ele>340.0</ele><time>2026-04-26T11:26:03.999Z</time></trkpt><trkpt lat="39.15021979808522" lon="16.07978552083389"><ele>340.0</ele><time>2026-04-26T11:26:04.999Z</time></trkpt><trkpt lat="39.15015959372533" lon="16.079730425881777"><ele>340.0</ele><time>2026-04-26T11:26:05.999Z</time></trkpt><trkpt lat="39.150115333357036" lon="16.079654073494556"><ele>340.0</ele><time>2026-04-26T11:26:06.999Z</time></trkpt><trkpt lat="39.15004469771361" lon="16.079577393011327"><ele>340.0</ele><time>2026-04-26T11:26:08.999Z</time></trkpt><trkpt lat="39.14995546534553" lon="16.079596364736084"><ele>340.0</ele><time>2026-04-26T11:26:10.999Z</time></trkpt><trkpt lat="39.14994216364342" lon="16.079716091258536"><ele>340.0</ele><time>2026-04-26T11:26:11.999Z</time></trkpt><trkpt lat="39.14997952603652" lon="16.0798670377767"><ele>340.0</ele><time>2026-04-26T11:26:13.999Z</time></trkpt><trkpt lat="39.150005149368496" lon="16.079946859145796"><ele>341.5</ele><time>2026-04-26T11:26:14.999Z</time></trkpt><trkpt lat="39.14999548476796" lon="16.080038668770978"><ele>343.0</ele><time>2026-04-26T11:26:16Z</time></trkpt><trkpt lat="39.149985929937756" lon="16.080135428125704"><ele>344.5</ele><time>2026-04-26T11:26:17Z</time></trkpt><trkpt lat="39.14998701450063" lon="16.080248313098895"><ele>346.0</ele><time>2026-04-26T11:26:18Z</time></trkpt><trkpt lat="39.14996673269212" lon="16.080364060647668"><ele>347.5</ele><time>2026-04-26T11:26:19Z</time></trkpt><trkpt lat="39.149947275728174" lon="16.080479008809778"><ele>349.0</ele><time>2026-04-26T11:26:20Z</time></trkpt><trkpt lat="39.14992638680682" lon="16.08058643337515"><ele>349.0</ele><time>2026-04-26T11:26:21Z</time></trkpt><trkpt lat="39.14990904298554" lon="16.080692536265463"><ele>349.0</ele><time>2026-04-26T11:26:22Z</time></trkpt><trkpt lat="39.14990019220819" lon="16.080797716455873"><ele>349.0</ele><time>2026-04-26T11:26:23Z</time></trkpt><trkpt lat="39.14989406675911" lon="16.08089871049266"><ele>349.0</ele><time>2026-04-26T11:26:24Z</time></trkpt><trkpt lat="39.14990133300333" lon="16.080993473758124"><ele>349.0</ele><time>2026-04-26T11:26:25Z</time></trkpt><trkpt lat="39.14991791779725" lon="16.081092856831585"><ele>349.0</ele><time>2026-04-26T11:26:26Z</time></trkpt><trkpt lat="39.14993737791655" lon="16.0811933496776"><ele>349.57142857142856</ele><time>2026-04-26T11:26:27Z</time></trkpt><trkpt lat="39.14995705860167" lon="16.081295505735515"><ele>350.1428571428571</ele><time>2026-04-26T11:26:28Z</time></trkpt><trkpt lat="39.149972087297755" lon="16.081394851898036"><ele>350.71428571428567</ele><time>2026-04-26T11:26:29Z</time></trkpt><trkpt lat="39.14998233474503" lon="16.081490563832308"><ele>351.2857142857143</ele><time>2026-04-26T11:26:30Z</time></trkpt><trkpt lat="39.14998383282151" lon="16.081584623799525"><ele>351.8571428571429</ele><time>2026-04-26T11:26:31Z</time></trkpt><trkpt lat="39.149987220543096" lon="16.081676234381288"><ele>352.4285714285714</ele><time>2026-04-26T11:26:32Z</time></trkpt><trkpt lat="39.14999016240208" lon="16.0817666936469"><ele>353.0</ele><time>2026-04-26T11:26:33Z</time></trkpt><trkpt lat="39.14999589684877" lon="16.081857715157806"><ele>352.7142857142857</ele><time>2026-04-26T11:26:34Z</time></trkpt><trkpt lat="39.14999489430573" lon="16.08194476837885"><ele>352.42857142857144</ele><time>2026-04-26T11:26:35Z</time></trkpt><trkpt lat="39.149974925975364" lon="16.08203139616638"><ele>352.14285714285717</ele><time>2026-04-26T11:26:36Z</time></trkpt><trkpt lat="39.149950842720855" lon="16.08211800374607"><ele>351.8571428571429</ele><time>2026-04-26T11:26:37Z</time></trkpt><trkpt lat="39.14992446730816" lon="16.08220000337228"><ele>351.57142857142856</ele><time>2026-04-26T11:26:38Z</time></trkpt><trkpt lat="39.14989757814533" lon="16.082288216915508"><ele>351.28571428571433</ele><time>2026-04-26T11:26:39Z</time></trkpt><trkpt lat="39.1498707583086" lon="16.082368004681534"><ele>351.0</ele><time>2026-04-26T11:26:40Z</time></trkpt><trkpt lat="39.14987011830055" lon="16.08254440784732"><ele>354.6666666666667</ele><time>2026-04-26T11:26:42Z</time></trkpt><trkpt lat="39.149907503431216" lon="16.082628749456525"><ele>358.3333333333333</ele><time>2026-04-26T11:26:43Z</time></trkpt><trkpt lat="39.14996872947559" lon="16.08270632184608"><ele>362.0</ele><time>2026-04-26T11:26:44Z</time></trkpt><trkpt lat="39.150022677979194" lon="16.08277937405514"><ele>365.66666666666663</ele><time>2026-04-26T11:26:45Z</time></trkpt><trkpt lat="39.15006161469354" lon="16.082865734536384"><ele>369.3333333333333</ele><time>2026-04-26T11:26:46Z</time></trkpt><trkpt lat="39.15007887370854" lon="16.08295752480555"><ele>373.0</ele><time>2026-04-26T11:26:47Z</time></trkpt><trkpt lat="39.1500505370849" lon="16.083044339153624"><ele>373.0</ele><time>2026-04-26T11:26:48Z</time></trkpt><trkpt lat="39.15005986007573" lon="16.08313429068061"><ele>373.0</ele><time>2026-04-26T11:26:49Z</time></trkpt><trkpt lat="39.15006109791012" lon="16.083234516825968"><ele>373.0</ele><time>2026-04-26T11:26:50Z</time></trkpt><trkpt lat="39.15008142403912" lon="16.083335449819675"><ele>373.0</ele><time>2026-04-26T11:26:51Z</time></trkpt><trkpt lat="39.15009046268354" lon="16.08343776474913"><ele>373.0</ele><time>2026-04-26T11:26:52Z</time></trkpt><trkpt lat="39.15006585286002" lon="16.08354160517794"><ele>373.0</ele><time>2026-04-26T11:26:53Z</time></trkpt><trkpt lat="39.150010780595444" lon="16.08362330634456"><ele>373.16666666666663</ele><time>2026-04-26T11:26:54Z</time></trkpt><trkpt lat="39.149928706777445" lon="16.08363741493691"><ele>373.3333333333333</ele><time>2026-04-26T11:26:55Z</time></trkpt><trkpt lat="39.14986208476309" lon="16.083636754922836"><ele>373.5</ele><time>2026-04-26T11:26:56Z</time></trkpt><trkpt lat="39.149745906000206" lon="16.08369152176838"><ele>373.6666666666667</ele><time>2026-04-26T11:26:58Z</time></trkpt><trkpt lat="39.14969070255067" lon="16.083755129027587"><ele>373.83333333333337</ele><time>2026-04-26T11:26:59Z</time></trkpt><trkpt lat="39.14963608736356" lon="16.08382139805861"><ele>374.0</ele><time>2026-04-26T11:27:00Z</time></trkpt><trkpt lat="39.14958754574776" lon="16.083874467181236"><ele>374.0</ele><time>2026-04-26T11:27:01Z</time></trkpt><trkpt lat="39.14956908689951" lon="16.083993051093422"><ele>374.0</ele><time>2026-04-26T11:27:03Z</time></trkpt><trkpt lat="39.149641894867294" lon="16.08412126193869"><ele>374.0</ele><time>2026-04-26T11:27:05Z</time></trkpt><trkpt lat="39.1496832598996" lon="16.084188231581194"><ele>374.0</ele><time>2026-04-26T11:27:06Z</time></trkpt><trkpt lat="39.14972537635872" lon="16.084261753109867"><ele>374.0</ele><time>2026-04-26T11:27:07Z</time></trkpt><trkpt lat="39.149777625362105" lon="16.084329580518638"><ele>374.0</ele><time>2026-04-26T11:27:08Z</time></trkpt><trkpt lat="39.149809514299655" lon="16.08441488507158"><ele>375.83333333333337</ele><time>2026-04-26T11:27:09Z</time></trkpt><trkpt lat="39.14984133888885" lon="16.084496948789674"><ele>377.6666666666667</ele><time>2026-04-26T11:27:10Z</time></trkpt><trkpt lat="39.1498626964193" lon="16.084575782377375"><ele>379.5</ele><time>2026-04-26T11:27:11Z</time></trkpt><trkpt lat="39.14981572503704" lon="16.0847145509369"><ele>381.33333333333337</ele><time>2026-04-26T11:27:13Z</time></trkpt><trkpt lat="39.14974102820627" lon="16.08472786908332"><ele>383.1666666666667</ele><time>2026-04-26T11:27:14Z</time></trkpt><trkpt lat="39.149675331880836" lon="16.084747376294615"><ele>385.0</ele><time>2026-04-26T11:27:14.999Z</time></trkpt><trkpt lat="39.14960084695112" lon="16.084771671230197"><ele>385.00000000000006</ele><time>2026-04-26T11:27:15.999Z</time></trkpt><trkpt lat="39.1495228950405" lon="16.08481712507458"><ele>385.0</ele><time>2026-04-26T11:27:16.999Z</time></trkpt><trkpt lat="39.14943924158716" lon="16.084831076319215"><ele>385.0</ele><time>2026-04-26T11:27:17.999Z</time></trkpt><trkpt lat="39.149357461275365" lon="16.084848845301767"><ele>385.0</ele><time>2026-04-26T11:27:18.999Z</time></trkpt><trkpt lat="39.149279486189066" lon="16.084859778387397"><ele>385.00000000000006</ele><time>2026-04-26T11:27:19.999Z</time></trkpt><trkpt lat="39.149205580635694" lon="16.0848751781871"><ele>385.0</ele><time>2026-04-26T11:27:20.999Z</time></trkpt><trkpt lat="39.14913496225807" lon="16.08488357926324"><ele>385.00000000000006</ele><time>2026-04-26T11:27:21.999Z</time></trkpt><trkpt lat="39.14906685751588" lon="16.08489864751684"><ele>385.0</ele><time>2026-04-26T11:27:22.999Z</time></trkpt><trkpt lat="39.14900031311511" lon="16.084935904732664"><ele>385.0</ele><time>2026-04-26T11:27:23.999Z</time></trkpt><trkpt lat="39.1489358057756" lon="16.084962770894567"><ele>385.0</ele><time>2026-04-26T11:27:24.999Z</time></trkpt><trkpt lat="39.14884659423548" lon="16.085020879089473"><ele>385.00000000000006</ele><time>2026-04-26T11:27:26.999Z</time></trkpt><trkpt lat="39.148865838339695" lon="16.085122526780253"><ele>385.0</ele><time>2026-04-26T11:27:29.999Z</time></trkpt><trkpt lat="39.148945283367865" lon="16.08513959008068"><ele>387.1666666666667</ele><time>2026-04-26T11:27:31.999Z</time></trkpt><trkpt lat="39.1490365481167" lon="16.08518453562245"><ele>389.33333333333337</ele><time>2026-04-26T11:27:33.999Z</time></trkpt><trkpt lat="39.149126597463294" lon="16.085303543280403"><ele>391.5</ele><time>2026-04-26T11:27:35.999Z</time></trkpt><trkpt lat="39.14918174234938" lon="16.08536920061727"><ele>393.66666666666663</ele><time>2026-04-26T11:27:36.999Z</time></trkpt><trkpt lat="39.149236880788" lon="16.08543380603572"><ele>395.8333333333333</ele><time>2026-04-26T11:27:37.999Z</time></trkpt><trkpt lat="39.14928471987787" lon="16.085493187822774"><ele>398.0</ele><time>2026-04-26T11:27:38.999Z</time></trkpt><trkpt lat="39.14933272731882" lon="16.085575154269588"><ele>397.99999999999994</ele><time>2026-04-26T11:27:40.999Z</time></trkpt><trkpt lat="39.14927749386502" lon="16.08563401312504"><ele>398.0</ele><time>2026-04-26T11:27:44.999Z</time></trkpt><trkpt lat="39.14919863489149" lon="16.08554708735871"><ele>398.0</ele><time>2026-04-26T11:27:48.999Z</time></trkpt><trkpt lat="39.14913387322366" lon="16.08554016177787"><ele>398.0</ele><time>2026-04-26T11:27:50.999Z</time></trkpt><trkpt lat="39.14907066092546" lon="16.085552006948205"><ele>397.99999999999994</ele><time>2026-04-26T11:27:52.999Z</time></trkpt><trkpt lat="39.149009234175644" lon="16.085580635213766"><ele>398.0</ele><time>2026-04-26T11:27:54.999Z</time></trkpt><trkpt lat="39.14892286020285" lon="16.085645737646175"><ele>397.99999999999994</ele><time>2026-04-26T11:27:57.999Z</time></trkpt><trkpt lat="39.14885637185922" lon="16.085724396055635"><ele>398.0</ele><time>2026-04-26T11:28:00.999Z</time></trkpt><trkpt lat="39.1488149034825" lon="16.085791908784117"><ele>398.0</ele><time>2026-04-26T11:28:02.999Z</time></trkpt><trkpt lat="39.14877080024068" lon="16.08587831583927"><ele>398.0</ele><time>2026-04-26T11:28:04.999Z</time></trkpt><trkpt lat="39.14871739695414" lon="16.085961699997593"><ele>397.99999999999994</ele><time>2026-04-26T11:28:06.999Z</time></trkpt><trkpt lat="39.14866590112516" lon="16.086038742564707"><ele>398.0</ele><time>2026-04-26T11:28:08.999Z</time></trkpt><trkpt lat="39.14857553359869" lon="16.08605129995485"><ele>397.99999999999994</ele><time>2026-04-26T11:28:10.999Z</time></trkpt><trkpt lat="39.14849232824134" lon="16.086034008425376"><ele>398.0</ele><time>2026-04-26T11:28:12.999Z</time></trkpt><trkpt lat="39.148414538318264" lon="16.08596055323236"><ele>398.0</ele><time>2026-04-26T11:28:15.999Z</time></trkpt><trkpt lat="39.148345748129366" lon="16.08587503237854"><ele>398.0</ele><time>2026-04-26T11:28:18.999Z</time></trkpt><trkpt lat="39.14830788431066" lon="16.085800486328747"><ele>397.99999999999994</ele><time>2026-04-26T11:28:22Z</time></trkpt><trkpt lat="39.14823564853974" lon="16.085738225422475"><ele>398.0</ele><time>2026-04-26T11:28:27Z</time></trkpt><trkpt lat="39.14814051122426" lon="16.085844724356964"><ele>399.4285714285714</ele><time>2026-04-26T11:28:28Z</time></trkpt><trkpt lat="39.14808371807692" lon="16.085915563628713"><ele>400.85714285714283</ele><time>2026-04-26T11:28:31Z</time></trkpt><trkpt lat="39.1480328372797" lon="16.085964834964606"><ele>402.2857142857143</ele><time>2026-04-26T11:29:13Z</time></trkpt><trkpt lat="39.147978556520755" lon="16.08602904927097"><ele>403.71428571428567</ele><time>2026-04-26T11:29:15Z</time></trkpt><trkpt lat="39.14792272698221" lon="16.08607499326322"><ele>405.14285714285717</ele><time>2026-04-26T11:29:17Z</time></trkpt><trkpt lat="39.14785867109365" lon="16.086136367127164"><ele>406.57142857142856</ele><time>2026-04-26T11:29:20Z</time></trkpt><trkpt lat="39.14779243442413" lon="16.08618133909999"><ele>408.0</ele><time>2026-04-26T11:29:23Z</time></trkpt><trkpt lat="39.14772791647868" lon="16.086225417420064"><ele>408.0</ele><time>2026-04-26T11:29:25Z</time></trkpt><trkpt lat="39.147665649188355" lon="16.08627256529621"><ele>408.0</ele><time>2026-04-26T11:29:26.999Z</time></trkpt><trkpt lat="39.14758859559628" lon="16.086351572053214"><ele>408.0</ele><time>2026-04-26T11:29:29.999Z</time></trkpt><trkpt lat="39.147518650549415" lon="16.08641005671279"><ele>408.0</ele><time>2026-04-26T11:29:31.999Z</time></trkpt><trkpt lat="39.147448325067344" lon="16.086467633982554"><ele>408.0</ele><time>2026-04-26T11:29:33.999Z</time></trkpt><trkpt lat="39.14737621486107" lon="16.08650299501981"><ele>408.0</ele><time>2026-04-26T11:29:35.999Z</time></trkpt><trkpt lat="39.147314706092665" lon="16.086569098951127"><ele>407.5</ele><time>2026-04-26T11:29:38.999Z</time></trkpt><trkpt lat="39.14721931875292" lon="16.086591422919117"><ele>407.0</ele><time>2026-04-26T11:29:41.999Z</time></trkpt><trkpt lat="39.14714705217713" lon="16.08658549651066"><ele>406.5</ele><time>2026-04-26T11:29:43.999Z</time></trkpt><trkpt lat="39.14707358318755" lon="16.08656996748978"><ele>406.0</ele><time>2026-04-26T11:29:45.999Z</time></trkpt><trkpt lat="39.14700152267456" lon="16.086555695565657"><ele>405.5</ele><time>2026-04-26T11:29:47.999Z</time></trkpt><trkpt lat="39.14692938201344" lon="16.08652138895386"><ele>405.0</ele><time>2026-04-26T11:29:49.999Z</time></trkpt><trkpt lat="39.14688250825485" lon="16.086443480896083"><ele>405.0</ele><time>2026-04-26T11:29:51.999Z</time></trkpt><trkpt lat="39.14690488047895" lon="16.086343036622463"><ele>405.0</ele><time>2026-04-26T11:29:53.999Z</time></trkpt><trkpt lat="39.146893178680145" lon="16.08625722308493"><ele>405.0</ele><time>2026-04-26T11:29:55.999Z</time></trkpt><trkpt lat="39.14687131469484" lon="16.08616468244456"><ele>405.0</ele><time>2026-04-26T11:29:57.999Z</time></trkpt><trkpt lat="39.1468327675202" lon="16.086068130441454"><ele>405.0</ele><time>2026-04-26T11:30:00.999Z</time></trkpt></trkseg><trkseg><trkpt lat="39.15517322515143" lon="16.06713287550942"><ele>19.0</ele><time>2026-04-26T12:12:06.102Z</time></trkpt><trkpt lat="39.15530386143233" lon="16.06720796081848"><ele>19.0</ele><time>2026-04-26T12:12:08.102Z</time></trkpt><trkpt lat="39.15540128722776" lon="16.067295771440072"><ele>19.0</ele><time>2026-04-26T12:12:09.102Z</time></trkpt><trkpt lat="39.15548204221636" lon="16.067357434021364"><ele>19.0</ele><time>2026-04-26T12:12:10Z</time></trkpt><trkpt lat="39.15557949604294" lon="16.067422631727037"><ele>22.25</ele><time>2026-04-26T12:12:11Z</time></trkpt><trkpt lat="39.155694428532435" lon="16.067479677594818"><ele>25.5</ele><time>2026-04-26T12:12:12Z</time></trkpt><trkpt lat="39.15581602008424" lon="16.067537412065246"><ele>28.75</ele><time>2026-04-26T12:12:13Z</time></trkpt><trkpt lat="39.155936165138755" lon="16.06759820689706"><ele>32.0</ele><time>2026-04-26T12:12:14Z</time></trkpt><trkpt lat="39.156063254812416" lon="16.06766299663507"><ele>32.0</ele><time>2026-04-26T12:12:15Z</time></trkpt><trkpt lat="39.15619403603149" lon="16.06772768300413"><ele>32.0</ele><time>2026-04-26T12:12:16Z</time></trkpt><trkpt lat="39.156323053983165" lon="16.067792831891193"><ele>32.0</ele><time>2026-04-26T12:12:17Z</time></trkpt><trkpt lat="39.15645545427928" lon="16.06785329766532"><ele>32.0</ele><time>2026-04-26T12:12:18Z</time></trkpt><trkpt lat="39.156589036473726" lon="16.06791277267292"><ele>32.0</ele><time>2026-04-26T12:12:19Z</time></trkpt><trkpt lat="39.15672099408183" lon="16.067936981314904"><ele>32.0</ele><time>2026-04-26T12:12:20Z</time></trkpt><trkpt lat="39.15684543573142" lon="16.067955588519897"><ele>32.0</ele><time>2026-04-26T12:12:21Z</time></trkpt><trkpt lat="39.15696621565293" lon="16.067983808591475"><ele>32.0</ele><time>2026-04-26T12:12:22Z</time></trkpt><trkpt lat="39.15705888444146" lon="16.068064556996514"><ele>32.0</ele><time>2026-04-26T12:12:23Z</time></trkpt><trkpt lat="39.15716017648249" lon="16.06815977506268"><ele>32.0</ele><time>2026-04-26T12:12:24Z</time></trkpt><trkpt lat="39.15724103897779" lon="16.06828703836009"><ele>32.0</ele><time>2026-04-26T12:12:25Z</time></trkpt><trkpt lat="39.157311448623574" lon="16.068409543956705"><ele>32.0</ele><time>2026-04-26T12:12:26Z</time></trkpt><trkpt lat="39.15737064495402" lon="16.068526034966283"><ele>32.5</ele><time>2026-04-26T12:12:27Z</time></trkpt><trkpt lat="39.15738314863562" lon="16.06863720189677"><ele>33.0</ele><time>2026-04-26T12:12:28Z</time></trkpt><trkpt lat="39.15735323943813" lon="16.06873805757962"><ele>33.5</ele><time>2026-04-26T12:12:29Z</time></trkpt><trkpt lat="39.15729577216751" lon="16.068812279516976"><ele>34.0</ele><time>2026-04-26T12:12:30Z</time></trkpt><trkpt lat="39.15724735128755" lon="16.068912553504855"><ele>34.5</ele><time>2026-04-26T12:12:31Z</time></trkpt><trkpt lat="39.15719750046627" lon="16.069031269884515"><ele>35.0</ele><time>2026-04-26T12:12:32Z</time></trkpt><trkpt lat="39.15717823046435" lon="16.069166139531358"><ele>35.4</ele><time>2026-04-26T12:12:33Z</time></trkpt><trkpt lat="39.157158069697715" lon="16.069298563702105"><ele>35.8</ele><time>2026-04-26T12:12:34Z</time></trkpt><trkpt lat="39.157183526223726" lon="16.06942072063137"><ele>36.2</ele><time>2026-04-26T12:12:35Z</time></trkpt><trkpt lat="39.15724325973717" lon="16.06946909472818"><ele>36.6</ele><time>2026-04-26T12:12:36Z</time></trkpt><trkpt lat="39.15732630924874" lon="16.0694932929241"><ele>37.0</ele><time>2026-04-26T12:12:37Z</time></trkpt><trkpt lat="39.15741692086541" lon="16.069479911633685"><ele>37.0</ele><time>2026-04-26T12:12:38Z</time></trkpt><trkpt lat="39.15753339921573" lon="16.069476036996615"><ele>37.0</ele><time>2026-04-26T12:12:39Z</time></trkpt><trkpt lat="39.15766127672042" lon="16.069510800775944"><ele>37.0</ele><time>2026-04-26T12:12:40Z</time></trkpt><trkpt lat="39.15779505184038" lon="16.069530982213873"><ele>37.0</ele><time>2026-04-26T12:12:41Z</time></trkpt><trkpt lat="39.15794080811903" lon="16.069534289248487"><ele>37.0</ele><time>2026-04-26T12:12:42Z</time></trkpt><trkpt lat="39.158069987010016" lon="16.06955570050032"><ele>37.0</ele><time>2026-04-26T12:12:43Z</time></trkpt><trkpt lat="39.15818984608181" lon="16.069546368740752"><ele>37.0</ele><time>2026-04-26T12:12:44Z</time></trkpt><trkpt lat="39.15829035126161" lon="16.069487019613245"><ele>37.0</ele><time>2026-04-26T12:12:45Z</time></trkpt><trkpt lat="39.158375401602484" lon="16.069398854948172"><ele>37.0</ele><time>2026-04-26T12:12:46Z</time></trkpt><trkpt lat="39.158464647399704" lon="16.06930977906777"><ele>37.0</ele><time>2026-04-26T12:12:47Z</time></trkpt><trkpt lat="39.15853999008451" lon="16.069209434824693"><ele>37.0</ele><time>2026-04-26T12:12:48Z</time></trkpt><trkpt lat="39.15860506097017" lon="16.069111456381233"><ele>37.0</ele><time>2026-04-26T12:12:49Z</time></trkpt><trkpt lat="39.158682345651584" lon="16.06903580733703"><ele>37.0</ele><time>2026-04-26T12:12:50Z</time></trkpt><trkpt lat="39.15875380179336" lon="16.06898777816366"><ele>35.4</ele><time>2026-04-26T12:12:51Z</time></trkpt><trkpt lat="39.158844544995816" lon="16.06899175172653"><ele>33.800000000000004</ele><time>2026-04-26T12:12:52Z</time></trkpt><trkpt lat="39.15895301679067" lon="16.068976772973514"><ele>32.2</ele><time>2026-04-26T12:12:53Z</time></trkpt><trkpt lat="39.15906377241007" lon="16.06896346351096"><ele>30.6</ele><time>2026-04-26T12:12:54Z</time></trkpt><trkpt lat="39.15916101583217" lon="16.068966876600623"><ele>29.0</ele><time>2026-04-26T12:12:55Z</time></trkpt><trkpt lat="39.159258810360114" lon="16.069072918463362"><ele>29.0</ele><time>2026-04-26T12:12:56Z</time></trkpt><trkpt lat="39.159383256863045" lon="16.06909820547873"><ele>29.0</ele><time>2026-04-26T12:12:57Z</time></trkpt><trkpt lat="39.159515256635274" lon="16.069140785434957"><ele>29.0</ele><time>2026-04-26T12:12:58Z</time></trkpt><trkpt lat="39.15965690079279" lon="16.06918033333159"><ele>29.0</ele><time>2026-04-26T12:12:59Z</time></trkpt><trkpt lat="39.159800749361246" lon="16.069227453791385"><ele>36.0</ele><time>2026-04-26T12:13:00Z</time></trkpt><trkpt lat="39.15995236154675" lon="16.069274688055344"><ele>43.0</ele><time>2026-04-26T12:13:01Z</time></trkpt><trkpt lat="39.160089100144305" lon="16.069351637395922"><ele>50.0</ele><time>2026-04-26T12:13:02Z</time></trkpt><trkpt lat="39.160241053127024" lon="16.06942293731377"><ele>50.0</ele><time>2026-04-26T12:13:03Z</time></trkpt><trkpt lat="39.160405574327456" lon="16.069448408482366"><ele>50.0</ele><time>2026-04-26T12:13:04Z</time></trkpt><trkpt lat="39.160561181596975" lon="16.0694644984815"><ele>50.0</ele><time>2026-04-26T12:13:05Z</time></trkpt><trkpt lat="39.160711616828145" lon="16.069460040917242"><ele>48.4</ele><time>2026-04-26T12:13:06Z</time></trkpt><trkpt lat="39.160855752342655" lon="16.069481195594467"><ele>46.8</ele><time>2026-04-26T12:13:07Z</time></trkpt><trkpt lat="39.16097572269066" lon="16.06950224500765"><ele>45.2</ele><time>2026-04-26T12:13:08Z</time></trkpt><trkpt lat="39.16106511002172" lon="16.069549937812322"><ele>43.6</ele><time>2026-04-26T12:13:09Z</time></trkpt><trkpt lat="39.16111680214118" lon="16.069634119128487"><ele>42.0</ele><time>2026-04-26T12:13:10Z</time></trkpt><trkpt lat="39.161105831048836" lon="16.069741241956525"><ele>42.0</ele><time>2026-04-26T12:13:11Z</time></trkpt><trkpt lat="39.16107665858356" lon="16.06983258838848"><ele>42.0</ele><time>2026-04-26T12:13:12Z</time></trkpt><trkpt lat="39.161027521387965" lon="16.069922400712926"><ele>42.0</ele><time>2026-04-26T12:13:13Z</time></trkpt><trkpt lat="39.16096985325335" lon="16.07002310911717"><ele>42.0</ele><time>2026-04-26T12:13:14Z</time></trkpt><trkpt lat="39.160907534489816" lon="16.07014708163772"><ele>42.0</ele><time>2026-04-26T12:13:15Z</time></trkpt><trkpt lat="39.16083722362915" lon="16.07028778687064"><ele>49.33333333333333</ele><time>2026-04-26T12:13:16Z</time></trkpt><trkpt lat="39.16076869158284" lon="16.070447791404394"><ele>56.666666666666664</ele><time>2026-04-26T12:13:17Z</time></trkpt><trkpt lat="39.16069311430532" lon="16.07061656127016"><ele>64.0</ele><time>2026-04-26T12:13:18Z</time></trkpt><trkpt lat="39.16063259715274" lon="16.070803450776285"><ele>80.66666666666666</ele><time>2026-04-26T12:13:19Z</time></trkpt><trkpt lat="39.16060005368978" lon="16.07100848972885"><ele>97.33333333333333</ele><time>2026-04-26T12:13:20Z</time></trkpt><trkpt lat="39.16057563006827" lon="16.071209955392618"><ele>114.0</ele><time>2026-04-26T12:13:21Z</time></trkpt><trkpt lat="39.16055532216658" lon="16.07142098987116"><ele>115.0</ele><time>2026-04-26T12:13:22Z</time></trkpt><trkpt lat="39.16052931710401" lon="16.071617267732037"><ele>116.0</ele><time>2026-04-26T12:13:23Z</time></trkpt><trkpt lat="39.160511581734234" lon="16.071798235185565"><ele>117.0</ele><time>2026-04-26T12:13:24Z</time></trkpt><trkpt lat="39.1604907600243" lon="16.071959178550365"><ele>118.0</ele><time>2026-04-26T12:13:25Z</time></trkpt><trkpt lat="39.160479299639235" lon="16.072076431834486"><ele>118.00000000000001</ele><time>2026-04-26T12:13:26Z</time></trkpt><trkpt lat="39.16049843102125" lon="16.07217445433781"><ele>118.0</ele><time>2026-04-26T12:13:27Z</time></trkpt><trkpt lat="39.16055893507201" lon="16.072227537974314"><ele>118.0</ele><time>2026-04-26T12:13:28Z</time></trkpt><trkpt lat="39.160641753681794" lon="16.072250284332828"><ele>118.0</ele><time>2026-04-26T12:13:29Z</time></trkpt><trkpt lat="39.16073233806426" lon="16.072212135579424"><ele>118.00000000000001</ele><time>2026-04-26T12:13:30Z</time></trkpt><trkpt lat="39.160818113565334" lon="16.07213222089282"><ele>118.0</ele><time>2026-04-26T12:13:31Z</time></trkpt><trkpt lat="39.16091455815292" lon="16.071960735749766"><ele>108.0</ele><time>2026-04-26T12:13:32Z</time></trkpt><trkpt lat="39.16098826975621" lon="16.071827863586343"><ele>98.0</ele><time>2026-04-26T12:13:33Z</time></trkpt><trkpt lat="39.16107524802187" lon="16.071701065237253"><ele>88.0</ele><time>2026-04-26T12:13:34Z</time></trkpt><trkpt lat="39.16116596100748" lon="16.07156212037472"><ele>78.0</ele><time>2026-04-26T12:13:35Z</time></trkpt><trkpt lat="39.16126274768954" lon="16.07142121203657"><ele>79.0</ele><time>2026-04-26T12:13:36Z</time></trkpt><trkpt lat="39.161366708874475" lon="16.071273537816488"><ele>80.0</ele><time>2026-04-26T12:13:37Z</time></trkpt><trkpt lat="39.161469059857694" lon="16.071132963202068"><ele>81.0</ele><time>2026-04-26T12:13:38Z</time></trkpt><trkpt lat="39.16157469490051" lon="16.071002451657506"><ele>81.0</ele><time>2026-04-26T12:13:39Z</time></trkpt><trkpt lat="39.1616953933448" lon="16.07090276044066"><ele>81.0</ele><time>2026-04-26T12:13:40Z</time></trkpt><trkpt lat="39.161828144021875" lon="16.07081789315335"><ele>81.0</ele><time>2026-04-26T12:13:41Z</time></trkpt><trkpt lat="39.16192082974147" lon="16.070655685933353"><ele>81.0</ele><time>2026-04-26T12:13:42Z</time></trkpt><trkpt lat="39.161987244091954" lon="16.070493273203667"><ele>72.75</ele><time>2026-04-26T12:13:43Z</time></trkpt><trkpt lat="39.16207873546959" lon="16.070346333364554"><ele>64.5</ele><time>2026-04-26T12:13:44Z</time></trkpt><trkpt lat="39.16212253163974" lon="16.07018700420411"><ele>56.25</ele><time>2026-04-26T12:13:45Z</time></trkpt><trkpt lat="39.16217197771109" lon="16.070072096532044"><ele>48.0</ele><time>2026-04-26T12:13:46Z</time></trkpt><trkpt lat="39.16222877176692" lon="16.069988215396513"><ele>48.0</ele><time>2026-04-26T12:13:47Z</time></trkpt><trkpt lat="39.16231387817452" lon="16.06996971825746"><ele>48.0</ele><time>2026-04-26T12:13:48Z</time></trkpt><trkpt lat="39.162411344841864" lon="16.069960660894836"><ele>48.0</ele><time>2026-04-26T12:13:49Z</time></trkpt><trkpt lat="39.16250604333586" lon="16.069955406993476"><ele>48.0</ele><time>2026-04-26T12:13:50Z</time></trkpt><trkpt lat="39.16262647756591" lon="16.069993842583017"><ele>48.0</ele><time>2026-04-26T12:13:50.999Z</time></trkpt><trkpt lat="39.1627254488177" lon="16.070082933047402"><ele>57.0</ele><time>2026-04-26T12:13:51.999Z</time></trkpt><trkpt lat="39.162822635659566" lon="16.07019371510965"><ele>66.0</ele><time>2026-04-26T12:13:52.999Z</time></trkpt><trkpt lat="39.16290140633064" lon="16.070327591589315"><ele>75.0</ele><time>2026-04-26T12:13:53.999Z</time></trkpt><trkpt lat="39.16298847368053" lon="16.070428620660966"><ele>84.0</ele><time>2026-04-26T12:13:54.999Z</time></trkpt><trkpt lat="39.163091263809875" lon="16.070485757125343"><ele>86.0</ele><time>2026-04-26T12:13:56Z</time></trkpt><trkpt lat="39.16320123672958" lon="16.0704922935672"><ele>88.0</ele><time>2026-04-26T12:13:56.999Z</time></trkpt><trkpt lat="39.163301463079904" lon="16.070499990701325"><ele>90.0</ele><time>2026-04-26T12:13:57.999Z</time></trkpt><trkpt lat="39.163381546704976" lon="16.070444934842723"><ele>92.0</ele><time>2026-04-26T12:13:58.999Z</time></trkpt><trkpt lat="39.163419762433165" lon="16.070334358390753"><ele>94.0</ele><time>2026-04-26T12:13:59.999Z</time></trkpt><trkpt lat="39.16338656191151" lon="16.070187704804816"><ele>94.0</ele><time>2026-04-26T12:14:00.999Z</time></trkpt><trkpt lat="39.163374314730596" lon="16.070065912627626"><ele>94.0</ele><time>2026-04-26T12:14:01.999Z</time></trkpt><trkpt lat="39.16340892601543" lon="16.06994666237931"><ele>94.0</ele><time>2026-04-26T12:14:02.999Z</time></trkpt><trkpt lat="39.16350432511199" lon="16.06985924686"><ele>94.0</ele><time>2026-04-26T12:14:03.999Z</time></trkpt><trkpt lat="39.16362511631369" lon="16.069805346746154"><ele>94.0</ele><time>2026-04-26T12:14:04.999Z</time></trkpt><trkpt lat="39.163746353935686" lon="16.069789711635703"><ele>88.0</ele><time>2026-04-26T12:14:05.999Z</time></trkpt><trkpt lat="39.16386983354586" lon="16.069771444459104"><ele>82.0</ele><time>2026-04-26T12:14:06.999Z</time></trkpt><trkpt lat="39.16400247781322" lon="16.069758997135636"><ele>76.0</ele><time>2026-04-26T12:14:07.999Z</time></trkpt><trkpt lat="39.16413881772585" lon="16.069764062537423"><ele>70.0</ele><time>2026-04-26T12:14:08.999Z</time></trkpt><trkpt lat="39.16428383903393" lon="16.06978995545765"><ele>70.0</ele><time>2026-04-26T12:14:09.999Z</time></trkpt><trkpt lat="39.164444212064375" lon="16.069822106765727"><ele>70.0</ele><time>2026-04-26T12:14:10.999Z</time></trkpt><trkpt lat="39.1645576341597" lon="16.069919447378286"><ele>70.0</ele><time>2026-04-26T12:14:11.999Z</time></trkpt><trkpt lat="39.1646467765274" lon="16.070056285893916"><ele>70.0</ele><time>2026-04-26T12:14:12.999Z</time></trkpt><trkpt lat="39.16476911350973" lon="16.070106453705204"><ele>69.75</ele><time>2026-04-26T12:14:13.999Z</time></trkpt><trkpt lat="39.164874915090635" lon="16.070070240855888"><ele>69.5</ele><time>2026-04-26T12:14:14.999Z</time></trkpt><trkpt lat="39.164975018499604" lon="16.069978050086814"><ele>69.25</ele><time>2026-04-26T12:14:15.999Z</time></trkpt><trkpt lat="39.16507857552496" lon="16.069922571321097"><ele>69.0</ele><time>2026-04-26T12:14:17Z</time></trkpt><trkpt lat="39.16521411319141" lon="16.069924336196067"><ele>69.0</ele><time>2026-04-26T12:14:18Z</time></trkpt><trkpt lat="39.165366642971485" lon="16.069926014297213"><ele>69.0</ele><time>2026-04-26T12:14:19Z</time></trkpt><trkpt lat="39.16552671533988" lon="16.06991634408278"><ele>69.0</ele><time>2026-04-26T12:14:20Z</time></trkpt><trkpt lat="39.16569032679242" lon="16.069926081369566"><ele>69.75</ele><time>2026-04-26T12:14:21Z</time></trkpt><trkpt lat="39.16584635755558" lon="16.069941040107953"><ele>70.5</ele><time>2026-04-26T12:14:22Z</time></trkpt><trkpt lat="39.1659902350105" lon="16.069946841091724"><ele>71.25</ele><time>2026-04-26T12:14:23Z</time></trkpt><trkpt lat="39.16612166226422" lon="16.06993809687846"><ele>72.0</ele><time>2026-04-26T12:14:24Z</time></trkpt><trkpt lat="39.166233134576856" lon="16.06995201390254"><ele>76.8</ele><time>2026-04-26T12:14:25Z</time></trkpt><trkpt lat="39.16633519134777" lon="16.06995438180012"><ele>81.6</ele><time>2026-04-26T12:14:26Z</time></trkpt><trkpt lat="39.166429469363536" lon="16.06995020641275"><ele>86.39999999999999</ele><time>2026-04-26T12:14:27Z</time></trkpt><trkpt lat="39.166513589342635" lon="16.06995283075329"><ele>91.2</ele><time>2026-04-26T12:14:28Z</time></trkpt><trkpt lat="39.16658777046562" lon="16.07004475940015"><ele>96.0</ele><time>2026-04-26T12:14:30Z</time></trkpt><trkpt lat="39.16653978853126" lon="16.070152939487837"><ele>99.4</ele><time>2026-04-26T12:14:32Z</time></trkpt><trkpt lat="39.16641743438137" lon="16.07017847691338"><ele>102.8</ele><time>2026-04-26T12:14:34Z</time></trkpt><trkpt lat="39.16633772892647" lon="16.07014784510357"><ele>106.20000000000002</ele><time>2026-04-26T12:14:35Z</time></trkpt><trkpt lat="39.1662500318047" lon="16.070121311434576"><ele>109.60000000000001</ele><time>2026-04-26T12:14:36Z</time></trkpt><trkpt lat="39.16614879671555" lon="16.070101017702566"><ele>113.0</ele><time>2026-04-26T12:14:37Z</time></trkpt><trkpt lat="39.16603136541975" lon="16.07007791170392"><ele>113.0</ele><time>2026-04-26T12:14:38Z</time></trkpt><trkpt lat="39.16590437749379" lon="16.070065452263467"><ele>113.0</ele><time>2026-04-26T12:14:39Z</time></trkpt><trkpt lat="39.1657705193235" lon="16.070067389553508"><ele>113.0</ele><time>2026-04-26T12:14:40Z</time></trkpt><trkpt lat="39.16563402593433" lon="16.07008121265417"><ele>113.0</ele><time>2026-04-26T12:14:41Z</time></trkpt><trkpt lat="39.16549767848443" lon="16.070106957497156"><ele>113.5</ele><time>2026-04-26T12:14:42Z</time></trkpt><trkpt lat="39.16536550423108" lon="16.07012242443946"><ele>114.0</ele><time>2026-04-26T12:14:43Z</time></trkpt><trkpt lat="39.165239376029305" lon="16.07015640373106"><ele>114.5</ele><time>2026-04-26T12:14:44Z</time></trkpt><trkpt lat="39.165102994818106" lon="16.07023029109533"><ele>115.0</ele><time>2026-04-26T12:14:45Z</time></trkpt><trkpt lat="39.16500770430595" lon="16.070324876197578"><ele>115.0</ele><time>2026-04-26T12:14:46Z</time></trkpt><trkpt lat="39.16494968356554" lon="16.070446136076708"><ele>115.0</ele><time>2026-04-26T12:14:47Z</time></trkpt><trkpt lat="39.16489733306402" lon="16.07055338164994"><ele>115.0</ele><time>2026-04-26T12:14:48Z</time></trkpt><trkpt lat="39.16482232571018" lon="16.070607204076058"><ele>115.0</ele><time>2026-04-26T12:14:49Z</time></trkpt><trkpt lat="39.16472835350111" lon="16.07060828879848"><ele>115.0</ele><time>2026-04-26T12:14:50Z</time></trkpt><trkpt lat="39.16464203679545" lon="16.07053552007358"><ele>114.0</ele><time>2026-04-26T12:14:51Z</time></trkpt><trkpt lat="39.164567879665604" lon="16.070432902551232"><ele>113.0</ele><time>2026-04-26T12:14:52Z</time></trkpt><trkpt lat="39.16447182024287" lon="16.070352463663976"><ele>112.0</ele><time>2026-04-26T12:14:53Z</time></trkpt><trkpt lat="39.16435402327387" lon="16.0703104462792"><ele>111.0</ele><time>2026-04-26T12:14:54Z</time></trkpt><trkpt lat="39.164222284286716" lon="16.070312984195315"><ele>111.0</ele><time>2026-04-26T12:14:55Z</time></trkpt><trkpt lat="39.16411027303" lon="16.070330215920595"><ele>111.0</ele><time>2026-04-26T12:14:56Z</time></trkpt><trkpt lat="39.16401663586466" lon="16.07036783780798"><ele>111.0</ele><time>2026-04-26T12:14:57Z</time></trkpt><trkpt lat="39.1639521853301" lon="16.07043998859758"><ele>111.0</ele><time>2026-04-26T12:14:58Z</time></trkpt><trkpt lat="39.16392553994681" lon="16.070546623225116"><ele>111.0</ele><time>2026-04-26T12:14:59Z</time></trkpt><trkpt lat="39.16393749349646" lon="16.07067500631504"><ele>114.19999999999999</ele><time>2026-04-26T12:15:00Z</time></trkpt><trkpt lat="39.16398000165343" lon="16.070802900485763"><ele>117.39999999999999</ele><time>2026-04-26T12:15:01Z</time></trkpt><trkpt lat="39.16403460567768" lon="16.07093194736785"><ele>120.6</ele><time>2026-04-26T12:15:02Z</time></trkpt><trkpt lat="39.164086944335835" lon="16.071056661638785"><ele>123.8</ele><time>2026-04-26T12:15:03Z</time></trkpt><trkpt lat="39.164106637683496" lon="16.07119175702243"><ele>127.0</ele><time>2026-04-26T12:15:04Z</time></trkpt><trkpt lat="39.16409792196426" lon="16.071308128960702"><ele>127.0</ele><time>2026-04-26T12:15:05Z</time></trkpt><trkpt lat="39.16405729111003" lon="16.071391557499165"><ele>126.99999999999999</ele><time>2026-04-26T12:15:06Z</time></trkpt><trkpt lat="39.163990413523315" lon="16.071444176143643"><ele>126.99999999999999</ele><time>2026-04-26T12:15:07Z</time></trkpt><trkpt lat="39.163898314713165" lon="16.07139958832697"><ele>127.0</ele><time>2026-04-26T12:15:08Z</time></trkpt><trkpt lat="39.16380264635711" lon="16.071393411155668"><ele>127.0</ele><time>2026-04-26T12:15:09Z</time></trkpt><trkpt lat="39.16369693115998" lon="16.07139585246415"><ele>127.0</ele><time>2026-04-26T12:15:10Z</time></trkpt><trkpt lat="39.16358352959791" lon="16.07139749512674"><ele>127.0</ele><time>2026-04-26T12:15:11Z</time></trkpt><trkpt lat="39.163460564377225" lon="16.071445020651744"><ele>127.0</ele><time>2026-04-26T12:15:12Z</time></trkpt><trkpt lat="39.16334183605274" lon="16.071535581031764"><ele>127.0</ele><time>2026-04-26T12:15:13Z</time></trkpt><trkpt lat="39.16322531959668" lon="16.071643784594393"><ele>132.5</ele><time>2026-04-26T12:15:14Z</time></trkpt><trkpt lat="39.16308450833651" lon="16.07169426505885"><ele>138.0</ele><time>2026-04-26T12:15:15Z</time></trkpt><trkpt lat="39.162952792055826" lon="16.07177256339834"><ele>143.5</ele><time>2026-04-26T12:15:16Z</time></trkpt><trkpt lat="39.162812159530674" lon="16.07183289659355"><ele>149.0</ele><time>2026-04-26T12:15:17Z</time></trkpt><trkpt lat="39.16267993792385" lon="16.071907068272388"><ele>149.0</ele><time>2026-04-26T12:15:18Z</time></trkpt><trkpt lat="39.16254799552361" lon="16.071959425518937"><ele>149.0</ele><time>2026-04-26T12:15:19Z</time></trkpt><trkpt lat="39.16240834459321" lon="16.071984292052733"><ele>149.0</ele><time>2026-04-26T12:15:20Z</time></trkpt><trkpt lat="39.16228664407" lon="16.072014751083117"><ele>149.0</ele><time>2026-04-26T12:15:21Z</time></trkpt><trkpt lat="39.162195534258196" lon="16.072046409262516"><ele>112.0</ele><time>2026-04-26T12:15:22Z</time></trkpt><trkpt lat="39.16213382341474" lon="16.072091491881864"><ele>112.0</ele><time>2026-04-26T12:15:23Z</time></trkpt><trkpt lat="39.16208580384832" lon="16.072157802729727"><ele>112.0</ele><time>2026-04-26T12:15:26Z</time></trkpt></trkseg><trkseg><trkpt lat="39.1659211099068" lon="16.070135621405655"><ele>113.0</ele><time>2026-04-26T12:28:28Z</time></trkpt><trkpt lat="39.165991432060984" lon="16.070148927077312"><ele>113.0</ele><time>2026-04-26T12:28:29Z</time></trkpt><trkpt lat="39.166065056723966" lon="16.070160801941544"><ele>113.0</ele><time>2026-04-26T12:28:30Z</time></trkpt><trkpt lat="39.166143737989934" lon="16.070175177073676"><ele>113.0</ele><time>2026-04-26T12:28:31Z</time></trkpt><trkpt lat="39.16622331473633" lon="16.07019486936692"><ele>113.0</ele><time>2026-04-26T12:28:32Z</time></trkpt><trkpt lat="39.16629562002166" lon="16.07020328693021"><ele>113.0</ele><time>2026-04-26T12:28:33Z</time></trkpt><trkpt lat="39.16636507106457" lon="16.070212917930228"><ele>113.0</ele><time>2026-04-26T12:28:34Z</time></trkpt><trkpt lat="39.166440327399606" lon="16.070226285740556"><ele>112.99999999999999</ele><time>2026-04-26T12:28:35Z</time></trkpt><trkpt lat="39.16651097129149" lon="16.070221248128355"><ele>113.0</ele><time>2026-04-26T12:28:36Z</time></trkpt><trkpt lat="39.16657641343584" lon="16.070193248201704"><ele>113.0</ele><time>2026-04-26T12:28:37Z</time></trkpt><trkpt lat="39.16662459641308" lon="16.07013868770992"><ele>113.0</ele><time>2026-04-26T12:28:38Z</time></trkpt><trkpt lat="39.166644493577515" lon="16.069986887539564"><ele>112.99999999999999</ele><time>2026-04-26T12:28:40Z</time></trkpt><trkpt lat="39.16659965429628" lon="16.069918044844837"><ele>113.0</ele><time>2026-04-26T12:28:41Z</time></trkpt><trkpt lat="39.16653590146812" lon="16.06989435280548"><ele>107.14285714285715</ele><time>2026-04-26T12:28:42Z</time></trkpt><trkpt lat="39.16647183658522" lon="16.069899526452545"><ele>101.28571428571428</ele><time>2026-04-26T12:28:43Z</time></trkpt><trkpt lat="39.16640000115277" lon="16.069916845608315"><ele>95.42857142857143</ele><time>2026-04-26T12:28:44Z</time></trkpt><trkpt lat="39.16633458492719" lon="16.06992488376527"><ele>89.57142857142858</ele><time>2026-04-26T12:28:45Z</time></trkpt><trkpt lat="39.16626350001966" lon="16.069919622967"><ele>83.71428571428572</ele><time>2026-04-26T12:28:46Z</time></trkpt><trkpt lat="39.166183979056115" lon="16.06991846955603"><ele>77.85714285714286</ele><time>2026-04-26T12:28:47Z</time></trkpt><trkpt lat="39.16609018433787" lon="16.069915380391844"><ele>72.0</ele><time>2026-04-26T12:28:48Z</time></trkpt><trkpt lat="39.16598635434249" lon="16.069913646550813"><ele>72.0</ele><time>2026-04-26T12:28:49Z</time></trkpt><trkpt lat="39.16588035554817" lon="16.069909603125016"><ele>72.0</ele><time>2026-04-26T12:28:50Z</time></trkpt><trkpt lat="39.16576636157705" lon="16.069902755440655"><ele>72.0</ele><time>2026-04-26T12:28:51Z</time></trkpt><trkpt lat="39.165640402007895" lon="16.06989922021049"><ele>72.0</ele><time>2026-04-26T12:28:52Z</time></trkpt><trkpt lat="39.165513591321044" lon="16.06989696098553"><ele>71.25</ele><time>2026-04-26T12:28:53Z</time></trkpt><trkpt lat="39.16539058972377" lon="16.06989393379437"><ele>70.5</ele><time>2026-04-26T12:28:54Z</time></trkpt><trkpt lat="39.16526914797145" lon="16.06989294541052"><ele>69.75</ele><time>2026-04-26T12:28:55Z</time></trkpt><trkpt lat="39.16515228151303" lon="16.069890584258648"><ele>69.0</ele><time>2026-04-26T12:28:56Z</time></trkpt><trkpt lat="39.16504292654301" lon="16.06990682952039"><ele>69.2</ele><time>2026-04-26T12:28:57Z</time></trkpt><trkpt lat="39.16494411322446" lon="16.069964937893104"><ele>69.4</ele><time>2026-04-26T12:28:58Z</time></trkpt><trkpt lat="39.16485071790311" lon="16.07002603917878"><ele>69.6</ele><time>2026-04-26T12:28:59Z</time></trkpt><trkpt lat="39.16476510211264" lon="16.070049309825784"><ele>69.8</ele><time>2026-04-26T12:29:00Z</time></trkpt><trkpt lat="39.16467150471261" lon="16.070012623199823"><ele>70.0</ele><time>2026-04-26T12:29:01Z</time></trkpt><trkpt lat="39.164588986928315" lon="16.069934372811037"><ele>70.0</ele><time>2026-04-26T12:29:02Z</time></trkpt><trkpt lat="39.16451243810095" lon="16.06985074864114"><ele>70.0</ele><time>2026-04-26T12:29:03Z</time></trkpt><trkpt lat="39.164428281584826" lon="16.069788296764415"><ele>70.0</ele><time>2026-04-26T12:29:04Z</time></trkpt><trkpt lat="39.16433282730984" lon="16.06975592377806"><ele>70.0</ele><time>2026-04-26T12:29:05Z</time></trkpt><trkpt lat="39.16423480262166" lon="16.069744231289945"><ele>70.0</ele><time>2026-04-26T12:29:06Z</time></trkpt><trkpt lat="39.16414019262725" lon="16.06972700336086"><ele>70.0</ele><time>2026-04-26T12:29:07Z</time></trkpt><trkpt lat="39.16404529369539" lon="16.069715777733705"><ele>70.0</ele><time>2026-04-26T12:29:08Z</time></trkpt><trkpt lat="39.16394250618097" lon="16.069713813259423"><ele>70.0</ele><time>2026-04-26T12:29:09Z</time></trkpt><trkpt lat="39.16383683235947" lon="16.069733572384333"><ele>70.0</ele><time>2026-04-26T12:29:10Z</time></trkpt><trkpt lat="39.16373232371044" lon="16.069755254220663"><ele>70.0</ele><time>2026-04-26T12:29:11Z</time></trkpt><trkpt lat="39.16363007116654" lon="16.06978318342558"><ele>67.8</ele><time>2026-04-26T12:29:12Z</time></trkpt><trkpt lat="39.163527776119594" lon="16.06981534669191"><ele>65.6</ele><time>2026-04-26T12:29:13Z</time></trkpt><trkpt lat="39.16343330806726" lon="16.0698803170014"><ele>63.400000000000006</ele><time>2026-04-26T12:29:14Z</time></trkpt><trkpt lat="39.16336257194673" lon="16.0699889017013"><ele>61.2</ele><time>2026-04-26T12:29:15Z</time></trkpt><trkpt lat="39.16331301114095" lon="16.070116239487874"><ele>59.0</ele><time>2026-04-26T12:29:16Z</time></trkpt><trkpt lat="39.163340206291984" lon="16.070261049561303"><ele>63.16666666666667</ele><time>2026-04-26T12:29:17Z</time></trkpt><trkpt lat="39.163328774243894" lon="16.07036327006364"><ele>67.33333333333334</ele><time>2026-04-26T12:29:18Z</time></trkpt><trkpt lat="39.16332264996356" lon="16.070460965984577"><ele>71.5</ele><time>2026-04-26T12:29:19Z</time></trkpt><trkpt lat="39.163261674195105" lon="16.070518629155607"><ele>75.66666666666667</ele><time>2026-04-26T12:29:20Z</time></trkpt><trkpt lat="39.16317255287318" lon="16.070467548524594"><ele>79.83333333333333</ele><time>2026-04-26T12:29:21Z</time></trkpt><trkpt lat="39.16307904459096" lon="16.070429148799928"><ele>84.0</ele><time>2026-04-26T12:29:22Z</time></trkpt><trkpt lat="39.16294786235158" lon="16.070344603790733"><ele>84.0</ele><time>2026-04-26T12:29:23Z</time></trkpt><trkpt lat="39.162859915450674" lon="16.070219045768916"><ele>84.0</ele><time>2026-04-26T12:29:24Z</time></trkpt><trkpt lat="39.16277811527863" lon="16.070096140454094"><ele>84.0</ele><time>2026-04-26T12:29:25Z</time></trkpt><trkpt lat="39.16269510113788" lon="16.069984109195957"><ele>84.0</ele><time>2026-04-26T12:29:26Z</time></trkpt><trkpt lat="39.16257383142574" lon="16.06993277027923"><ele>75.75</ele><time>2026-04-26T12:29:27Z</time></trkpt><trkpt lat="39.16245094374889" lon="16.069915463243184"><ele>67.5</ele><time>2026-04-26T12:29:28Z</time></trkpt><trkpt lat="39.1623238174959" lon="16.06993767503543"><ele>59.25</ele><time>2026-04-26T12:29:29Z</time></trkpt><trkpt lat="39.162210624504254" lon="16.069970236239005"><ele>51.0</ele><time>2026-04-26T12:29:30Z</time></trkpt><trkpt lat="39.16212908332743" lon="16.070039957334796"><ele>50.4</ele><time>2026-04-26T12:29:31Z</time></trkpt><trkpt lat="39.16208428552874" lon="16.070137992454793"><ele>49.8</ele><time>2026-04-26T12:29:32Z</time></trkpt><trkpt lat="39.16206366991972" lon="16.070263489110236"><ele>49.199999999999996</ele><time>2026-04-26T12:29:33Z</time></trkpt><trkpt lat="39.16202202223336" lon="16.07039989343052"><ele>48.599999999999994</ele><time>2026-04-26T12:29:34Z</time></trkpt><trkpt lat="39.16195548438295" lon="16.0705369247965"><ele>48.0</ele><time>2026-04-26T12:29:35Z</time></trkpt><trkpt lat="39.16188132397289" lon="16.070667099925508"><ele>53.75</ele><time>2026-04-26T12:29:36Z</time></trkpt><trkpt lat="39.1618047722627" lon="16.070796970960036"><ele>59.5</ele><time>2026-04-26T12:29:37Z</time></trkpt><trkpt lat="39.16169105978709" lon="16.07085547790849"><ele>65.25</ele><time>2026-04-26T12:29:38Z</time></trkpt><trkpt lat="39.16158444488954" lon="16.070950096829257"><ele>71.0</ele><time>2026-04-26T12:29:39Z</time></trkpt><trkpt lat="39.16149283059054" lon="16.07107475710368"><ele>71.0</ele><time>2026-04-26T12:29:40Z</time></trkpt><trkpt lat="39.161386992508106" lon="16.071205663965817"><ele>71.0</ele><time>2026-04-26T12:29:41Z</time></trkpt><trkpt lat="39.161284230583824" lon="16.071358168331273"><ele>71.0</ele><time>2026-04-26T12:29:42Z</time></trkpt><trkpt lat="39.16117792057426" lon="16.071505091345855"><ele>72.75</ele><time>2026-04-26T12:29:43Z</time></trkpt><trkpt lat="39.16108042369468" lon="16.071651565960327"><ele>74.5</ele><time>2026-04-26T12:29:44Z</time></trkpt><trkpt lat="39.16098729782559" lon="16.071792486116344"><ele>76.25</ele><time>2026-04-26T12:29:45Z</time></trkpt><trkpt lat="39.1609036342759" lon="16.071922769351502"><ele>78.0</ele><time>2026-04-26T12:29:46Z</time></trkpt><trkpt lat="39.160826075245375" lon="16.072036186593234"><ele>78.0</ele><time>2026-04-26T12:29:47Z</time></trkpt><trkpt lat="39.16075654178292" lon="16.07212545617354"><ele>78.0</ele><time>2026-04-26T12:29:48Z</time></trkpt><trkpt lat="39.16069067335201" lon="16.07218704349566"><ele>78.0</ele><time>2026-04-26T12:29:49Z</time></trkpt><trkpt lat="39.16062105820371" lon="16.072201719790094"><ele>78.0</ele><time>2026-04-26T12:29:50Z</time></trkpt><trkpt lat="39.160556233285035" lon="16.07216156988839"><ele>78.0</ele><time>2026-04-26T12:29:51Z</time></trkpt><trkpt lat="39.16051331839687" lon="16.07209427039077"><ele>78.0</ele><time>2026-04-26T12:29:52Z</time></trkpt><trkpt lat="39.16049040627072" lon="16.07199853257269"><ele>85.2</ele><time>2026-04-26T12:29:53Z</time></trkpt><trkpt lat="39.16053466881778" lon="16.071884292730275"><ele>92.4</ele><time>2026-04-26T12:29:54Z</time></trkpt><trkpt lat="39.160549185868746" lon="16.07175734844552"><ele>99.60000000000001</ele><time>2026-04-26T12:29:55Z</time></trkpt><trkpt lat="39.16056716966875" lon="16.071619703288803"><ele>106.8</ele><time>2026-04-26T12:29:56Z</time></trkpt><trkpt lat="39.160581044533515" lon="16.071461995130175"><ele>114.0</ele><time>2026-04-26T12:29:57Z</time></trkpt><trkpt lat="39.16060472504738" lon="16.07129925430728"><ele>114.0</ele><time>2026-04-26T12:29:58Z</time></trkpt><trkpt lat="39.16062128778094" lon="16.071125566535326"><ele>114.0</ele><time>2026-04-26T12:29:59Z</time></trkpt><trkpt lat="39.160644469863136" lon="16.07094512759613"><ele>114.0</ele><time>2026-04-26T12:30:00Z</time></trkpt><trkpt lat="39.16066911819558" lon="16.07076827332353"><ele>114.0</ele><time>2026-04-26T12:30:01Z</time></trkpt><trkpt lat="39.16070940761163" lon="16.07059386813738"><ele>101.5</ele><time>2026-04-26T12:30:02Z</time></trkpt><trkpt lat="39.16079543144495" lon="16.07045067148887"><ele>89.0</ele><time>2026-04-26T12:30:03Z</time></trkpt><trkpt lat="39.160865181890934" lon="16.070281674114028"><ele>76.5</ele><time>2026-04-26T12:30:04Z</time></trkpt><trkpt lat="39.16095203786997" lon="16.07013701475742"><ele>64.0</ele><time>2026-04-26T12:30:05Z</time></trkpt><trkpt lat="39.16102558402542" lon="16.069996572047547"><ele>60.33333333333333</ele><time>2026-04-26T12:30:06Z</time></trkpt><trkpt lat="39.16108465278391" lon="16.06987474758308"><ele>56.666666666666664</ele><time>2026-04-26T12:30:07Z</time></trkpt><trkpt lat="39.161120994692894" lon="16.069766186916514"><ele>53.0</ele><time>2026-04-26T12:30:08Z</time></trkpt><trkpt lat="39.16112734056098" lon="16.069658592870795"><ele>49.33333333333333</ele><time>2026-04-26T12:30:09Z</time></trkpt><trkpt lat="39.16110201543153" lon="16.06956082156094"><ele>45.666666666666664</ele><time>2026-04-26T12:30:10Z</time></trkpt><trkpt lat="39.161044559123965" lon="16.06949116074925"><ele>42.0</ele><time>2026-04-26T12:30:11Z</time></trkpt><trkpt lat="39.160963574274646" lon="16.069444650553866"><ele>42.0</ele><time>2026-04-26T12:30:12Z</time></trkpt><trkpt lat="39.1608644110778" lon="16.0694329664551"><ele>42.0</ele><time>2026-04-26T12:30:13Z</time></trkpt><trkpt lat="39.160757108309895" lon="16.06943746285025"><ele>42.0</ele><time>2026-04-26T12:30:14Z</time></trkpt><trkpt lat="39.16064624467723" lon="16.069433959675187"><ele>42.0</ele><time>2026-04-26T12:30:15Z</time></trkpt><trkpt lat="39.160528707322335" lon="16.06941987707146"><ele>42.0</ele><time>2026-04-26T12:30:16Z</time></trkpt><trkpt lat="39.16040603379101" lon="16.06941010776893"><ele>44.0</ele><time>2026-04-26T12:30:17Z</time></trkpt><trkpt lat="39.16028342630711" lon="16.06939584899138"><ele>46.0</ele><time>2026-04-26T12:30:18Z</time></trkpt><trkpt lat="39.16015751093335" lon="16.069358092420398"><ele>48.0</ele><time>2026-04-26T12:30:19Z</time></trkpt><trkpt lat="39.1600392273387" lon="16.06927938759329"><ele>50.0</ele><time>2026-04-26T12:30:20Z</time></trkpt><trkpt lat="39.15990985889383" lon="16.069242573037428"><ele>50.0</ele><time>2026-04-26T12:30:21Z</time></trkpt><trkpt lat="39.159786664604425" lon="16.069204290249257"><ele>50.0</ele><time>2026-04-26T12:30:22Z</time></trkpt><trkpt lat="39.159670271772505" lon="16.069179498998142"><ele>50.0</ele><time>2026-04-26T12:30:23Z</time></trkpt><trkpt lat="39.159553684495926" lon="16.06914765362737"><ele>50.0</ele><time>2026-04-26T12:30:24Z</time></trkpt><trkpt lat="39.15944802714112" lon="16.069114078062956"><ele>46.50000000000001</ele><time>2026-04-26T12:30:25Z</time></trkpt><trkpt lat="39.15936104037428" lon="16.06905816437052"><ele>43.0</ele><time>2026-04-26T12:30:26Z</time></trkpt><trkpt lat="39.15927616711234" lon="16.069033822204595"><ele>39.5</ele><time>2026-04-26T12:30:27Z</time></trkpt><trkpt lat="39.15921417702852" lon="16.069017314344247"><ele>36.0</ele><time>2026-04-26T12:30:28Z</time></trkpt><trkpt lat="39.15915290227141" lon="16.068987063501574"><ele>32.5</ele><time>2026-04-26T12:30:30Z</time></trkpt><trkpt lat="39.15922061519002" lon="16.068943031746613"><ele>29.0</ele><time>2026-04-26T12:30:33Z</time></trkpt><trkpt lat="39.15936287694993" lon="16.068916027282903"><ele>29.0</ele><time>2026-04-26T12:30:35Z</time></trkpt><trkpt lat="39.15943662422704" lon="16.068916551970386"><ele>29.0</ele><time>2026-04-26T12:30:36Z</time></trkpt><trkpt lat="39.159532663973785" lon="16.068899375027634"><ele>29.0</ele><time>2026-04-26T12:30:37Z</time></trkpt><trkpt lat="39.1596282626749" lon="16.0688790056044"><ele>29.0</ele><time>2026-04-26T12:30:38Z</time></trkpt><trkpt lat="39.15974525870519" lon="16.06886348990065"><ele>29.0</ele><time>2026-04-26T12:30:39Z</time></trkpt><trkpt lat="39.15984648919941" lon="16.068852510881715"><ele>28.25</ele><time>2026-04-26T12:30:40Z</time></trkpt><trkpt lat="39.15995564404588" lon="16.068845230527476"><ele>27.5</ele><time>2026-04-26T12:30:41Z</time></trkpt><trkpt lat="39.160069989661025" lon="16.068850639756157"><ele>26.75</ele><time>2026-04-26T12:30:42Z</time></trkpt><trkpt lat="39.16018705299554" lon="16.068883853422793"><ele>26.0</ele><time>2026-04-26T12:30:43Z</time></trkpt><trkpt lat="39.16029993079629" lon="16.06888741098485"><ele>26.0</ele><time>2026-04-26T12:30:44Z</time></trkpt><trkpt lat="39.16040652853115" lon="16.068900384274794"><ele>26.0</ele><time>2026-04-26T12:30:45Z</time></trkpt><trkpt lat="39.16050860362963" lon="16.06891980497282"><ele>26.0</ele><time>2026-04-26T12:30:46Z</time></trkpt><trkpt lat="39.16060838377856" lon="16.068935788868053"><ele>26.0</ele><time>2026-04-26T12:30:47Z</time></trkpt><trkpt lat="39.160705911902944" lon="16.068948449228834"><ele>26.0</ele><time>2026-04-26T12:30:48Z</time></trkpt><trkpt lat="39.16080089537159" lon="16.06896266025696"><ele>25.666666666666664</ele><time>2026-04-26T12:30:49Z</time></trkpt><trkpt lat="39.16088170309757" lon="16.069015823055775"><ele>25.333333333333332</ele><time>2026-04-26T12:30:50Z</time></trkpt><trkpt lat="39.16095958594288" lon="16.069050702513874"><ele>25.0</ele><time>2026-04-26T12:30:51Z</time></trkpt><trkpt lat="39.161023836398066" lon="16.069131472003523"><ele>24.666666666666664</ele><time>2026-04-26T12:30:52Z</time></trkpt><trkpt lat="39.16108417513549" lon="16.069208770492708"><ele>24.333333333333332</ele><time>2026-04-26T12:30:53Z</time></trkpt><trkpt lat="39.1611489181805" lon="16.06928461655685"><ele>24.0</ele><time>2026-04-26T12:30:54Z</time></trkpt><trkpt lat="39.16122340940273" lon="16.069344783404382"><ele>25.833333333333332</ele><time>2026-04-26T12:30:55Z</time></trkpt><trkpt lat="39.161308596131946" lon="16.069382658539595"><ele>27.666666666666664</ele><time>2026-04-26T12:30:56Z</time></trkpt><trkpt lat="39.16140332267077" lon="16.069373646524973"><ele>29.5</ele><time>2026-04-26T12:30:57Z</time></trkpt><trkpt lat="39.16149037524797" lon="16.069341609493982"><ele>31.333333333333332</ele><time>2026-04-26T12:30:58Z</time></trkpt><trkpt lat="39.161570850690055" lon="16.069296822178256"><ele>33.166666666666664</ele><time>2026-04-26T12:30:59Z</time></trkpt><trkpt lat="39.161639739472584" lon="16.06924711199809"><ele>35.0</ele><time>2026-04-26T12:31:00Z</time></trkpt><trkpt lat="39.16164851360027" lon="16.069136108925978"><ele>33.6</ele><time>2026-04-26T12:31:01Z</time></trkpt><trkpt lat="39.16163492289469" lon="16.069045827937362"><ele>32.2</ele><time>2026-04-26T12:31:02Z</time></trkpt><trkpt lat="39.16168636860471" lon="16.06894246269901"><ele>30.799999999999997</ele><time>2026-04-26T12:31:03Z</time></trkpt><trkpt lat="39.161716305268484" lon="16.068827914398803"><ele>29.4</ele><time>2026-04-26T12:31:04Z</time></trkpt><trkpt lat="39.16174797745295" lon="16.068698187517825"><ele>28.0</ele><time>2026-04-26T12:31:05Z</time></trkpt><trkpt lat="39.16177914442975" lon="16.068566140591077"><ele>28.0</ele><time>2026-04-26T12:31:06Z</time></trkpt><trkpt lat="39.161816172846756" lon="16.068432511997585"><ele>27.999999999999996</ele><time>2026-04-26T12:31:07Z</time></trkpt><trkpt lat="39.16186474518228" lon="16.068307569740657"><ele>27.999999999999996</ele><time>2026-04-26T12:31:08Z</time></trkpt><trkpt lat="39.161931071281906" lon="16.068218061673388"><ele>28.0</ele><time>2026-04-26T12:31:09Z</time></trkpt><trkpt lat="39.162012786674126" lon="16.068174464722283"><ele>28.0</ele><time>2026-04-26T12:31:10Z</time></trkpt><trkpt lat="39.16210421807797" lon="16.068206322718762"><ele>28.0</ele><time>2026-04-26T12:31:11Z</time></trkpt><trkpt lat="39.1621851616026" lon="16.068261161286095"><ele>27.999999999999996</ele><time>2026-04-26T12:31:12Z</time></trkpt><trkpt lat="39.16227628117618" lon="16.068319694002604"><ele>27.999999999999996</ele><time>2026-04-26T12:31:13Z</time></trkpt><trkpt lat="39.162375844104766" lon="16.06837132929408"><ele>28.0</ele><time>2026-04-26T12:31:14Z</time></trkpt><trkpt lat="39.16246745327955" lon="16.068453899531992"><ele>28.0</ele><time>2026-04-26T12:31:15Z</time></trkpt><trkpt lat="39.162540397824095" lon="16.06856764180688"><ele>29.2</ele><time>2026-04-26T12:31:16Z</time></trkpt><trkpt lat="39.16262412143341" lon="16.068663905760246"><ele>30.4</ele><time>2026-04-26T12:31:17Z</time></trkpt><trkpt lat="39.1626834938365" lon="16.068761610722934"><ele>31.599999999999998</ele><time>2026-04-26T12:31:18Z</time></trkpt><trkpt lat="39.16274820599751" lon="16.068826204639134"><ele>32.8</ele><time>2026-04-26T12:31:19Z</time></trkpt><trkpt lat="39.16281205177228" lon="16.06885936567512"><ele>34.0</ele><time>2026-04-26T12:31:20Z</time></trkpt><trkpt lat="39.162893540411325" lon="16.06880035009733"><ele>34.0</ele><time>2026-04-26T12:31:21Z</time></trkpt><trkpt lat="39.16296849476496" lon="16.068729633071538"><ele>34.0</ele><time>2026-04-26T12:31:22Z</time></trkpt><trkpt lat="39.163041139190504" lon="16.06864973706579"><ele>34.0</ele><time>2026-04-26T12:31:23Z</time></trkpt><trkpt lat="39.163113533305484" lon="16.068560869714542"><ele>34.0</ele><time>2026-04-26T12:31:24Z</time></trkpt><trkpt lat="39.16319087612078" lon="16.06848692638662"><ele>34.0</ele><time>2026-04-26T12:31:25Z</time></trkpt><trkpt lat="39.16329440755135" lon="16.068451069974355"><ele>35.5</ele><time>2026-04-26T12:31:26Z</time></trkpt><trkpt lat="39.163404424505174" lon="16.06848497645549"><ele>37.0</ele><time>2026-04-26T12:31:27Z</time></trkpt><trkpt lat="39.163512909239365" lon="16.068529314638127"><ele>38.5</ele><time>2026-04-26T12:31:28Z</time></trkpt><trkpt lat="39.1636309385922" lon="16.068548662253846"><ele>40.0</ele><time>2026-04-26T12:31:29Z</time></trkpt><trkpt lat="39.16375046500628" lon="16.068597074155385"><ele>40.0</ele><time>2026-04-26T12:31:30Z</time></trkpt><trkpt lat="39.16387515729196" lon="16.068640729499595"><ele>40.0</ele><time>2026-04-26T12:31:31Z</time></trkpt><trkpt lat="39.164004518632474" lon="16.068674858656117"><ele>40.0</ele><time>2026-04-26T12:31:32Z</time></trkpt><trkpt lat="39.16413969643482" lon="16.06869396141107"><ele>40.0</ele><time>2026-04-26T12:31:33Z</time></trkpt><trkpt lat="39.164276459698755" lon="16.068687677149665"><ele>40.25</ele><time>2026-04-26T12:31:34Z</time></trkpt><trkpt lat="39.16441432552138" lon="16.068685804698312"><ele>40.5</ele><time>2026-04-26T12:31:35Z</time></trkpt><trkpt lat="39.164554558985" lon="16.06867709427219"><ele>40.75</ele><time>2026-04-26T12:31:36Z</time></trkpt><trkpt lat="39.16469634063181" lon="16.06869948719793"><ele>41.0</ele><time>2026-04-26T12:31:37Z</time></trkpt><trkpt lat="39.16483913159706" lon="16.068709222098086"><ele>42.25</ele><time>2026-04-26T12:31:38Z</time></trkpt><trkpt lat="39.16498351558596" lon="16.068718191061556"><ele>43.5</ele><time>2026-04-26T12:31:39Z</time></trkpt><trkpt lat="39.16512582089417" lon="16.068728130551076"><ele>44.75</ele><time>2026-04-26T12:31:40Z</time></trkpt><trkpt lat="39.16526722134564" lon="16.068717578420205"><ele>46.0</ele><time>2026-04-26T12:31:41Z</time></trkpt><trkpt lat="39.165406403646614" lon="16.068747728171267"><ele>46.0</ele><time>2026-04-26T12:31:42Z</time></trkpt><trkpt lat="39.16554417252693" lon="16.068746763991324"><ele>46.0</ele><time>2026-04-26T12:31:43Z</time></trkpt><trkpt lat="39.16567979699582" lon="16.068742049791936"><ele>46.0</ele><time>2026-04-26T12:31:44Z</time></trkpt><trkpt lat="39.16581209940131" lon="16.068750325659995"><ele>46.0</ele><time>2026-04-26T12:31:45Z</time></trkpt><trkpt lat="39.16593502439561" lon="16.068777229045143"><ele>47.25</ele><time>2026-04-26T12:31:46Z</time></trkpt><trkpt lat="39.16606213908893" lon="16.068764291756175"><ele>48.5</ele><time>2026-04-26T12:31:47Z</time></trkpt><trkpt lat="39.16618118246954" lon="16.068779133967183"><ele>49.75</ele><time>2026-04-26T12:31:48Z</time></trkpt><trkpt lat="39.16629683558651" lon="16.06880049380441"><ele>51.0</ele><time>2026-04-26T12:31:49Z</time></trkpt><trkpt lat="39.16641945946307" lon="16.068792739484365"><ele>51.25</ele><time>2026-04-26T12:31:50Z</time></trkpt><trkpt lat="39.16653885616467" lon="16.06880580347296"><ele>51.5</ele><time>2026-04-26T12:31:51Z</time></trkpt><trkpt lat="39.16665253748465" lon="16.068822201539916"><ele>51.75</ele><time>2026-04-26T12:31:52Z</time></trkpt><trkpt lat="39.16676684845204" lon="16.068834281946195"><ele>52.0</ele><time>2026-04-26T12:31:53Z</time></trkpt><trkpt lat="39.16687161195435" lon="16.068845784681507"><ele>51.99999999999999</ele><time>2026-04-26T12:31:54Z</time></trkpt><trkpt lat="39.166962546499185" lon="16.068860167401965"><ele>52.0</ele><time>2026-04-26T12:31:55Z</time></trkpt><trkpt lat="39.16704093573147" lon="16.068886762605295"><ele>52.0</ele><time>2026-04-26T12:31:56Z</time></trkpt><trkpt lat="39.167102399250645" lon="16.068955273236114"><ele>52.0</ele><time>2026-04-26T12:31:57Z</time></trkpt><trkpt lat="39.167153865099955" lon="16.069044898003153"><ele>51.99999999999999</ele><time>2026-04-26T12:31:58Z</time></trkpt><trkpt lat="39.16720526451376" lon="16.069142357518697"><ele>52.0</ele><time>2026-04-26T12:31:59Z</time></trkpt><trkpt lat="39.167254440550266" lon="16.069249872160785"><ele>55.166666666666664</ele><time>2026-04-26T12:32:00Z</time></trkpt><trkpt lat="39.167299013255096" lon="16.06935205780197"><ele>58.33333333333333</ele><time>2026-04-26T12:32:01Z</time></trkpt><trkpt lat="39.16733551225475" lon="16.069442555444525"><ele>61.5</ele><time>2026-04-26T12:32:02Z</time></trkpt><trkpt lat="39.16733041136709" lon="16.06958746396939"><ele>64.66666666666667</ele><time>2026-04-26T12:32:04Z</time></trkpt><trkpt lat="39.16729309946891" lon="16.069655996955273"><ele>67.83333333333334</ele><time>2026-04-26T12:32:05Z</time></trkpt><trkpt lat="39.16725819233801" lon="16.069734098086215"><ele>71.0</ele><time>2026-04-26T12:32:06Z</time></trkpt><trkpt lat="39.16721137749649" lon="16.069798145061622"><ele>71.0</ele><time>2026-04-26T12:32:07Z</time></trkpt><trkpt lat="39.16718619627448" lon="16.06987343955207"><ele>71.0</ele><time>2026-04-26T12:32:08Z</time></trkpt><trkpt lat="39.16718591142433" lon="16.070014361489015"><ele>71.0</ele><time>2026-04-26T12:32:10Z</time></trkpt><trkpt lat="39.16726437555894" lon="16.070153080223125"><ele>71.0</ele><time>2026-04-26T12:32:12Z</time></trkpt><trkpt lat="39.16736242917011" lon="16.070121944454712"><ele>71.0</ele><time>2026-04-26T12:32:13Z</time></trkpt><trkpt lat="39.16743919412629" lon="16.07010641109437"><ele>72.16666666666667</ele><time>2026-04-26T12:32:14Z</time></trkpt><trkpt lat="39.16750934554241" lon="16.070056571359075"><ele>73.33333333333334</ele><time>2026-04-26T12:32:15Z</time></trkpt><trkpt lat="39.1675691501231" lon="16.06998067103043"><ele>74.5</ele><time>2026-04-26T12:32:16Z</time></trkpt><trkpt lat="39.16762777400411" lon="16.069897830290177"><ele>75.66666666666667</ele><time>2026-04-26T12:32:17Z</time></trkpt><trkpt lat="39.16768709961746" lon="16.06981454191618"><ele>76.83333333333333</ele><time>2026-04-26T12:32:18Z</time></trkpt><trkpt lat="39.16774463918375" lon="16.06972574722724"><ele>78.0</ele><time>2026-04-26T12:32:19Z</time></trkpt><trkpt lat="39.16778836340566" lon="16.069619355811046"><ele>74.0</ele><time>2026-04-26T12:32:20Z</time></trkpt><trkpt lat="39.16782685059878" lon="16.069503121394426"><ele>70.0</ele><time>2026-04-26T12:32:21Z</time></trkpt><trkpt lat="39.167867430087284" lon="16.069392943785832"><ele>66.0</ele><time>2026-04-26T12:32:22Z</time></trkpt><trkpt lat="39.1679131050621" lon="16.069286562939542"><ele>62.0</ele><time>2026-04-26T12:32:23Z</time></trkpt><trkpt lat="39.16796917363766" lon="16.06919729207748"><ele>58.0</ele><time>2026-04-26T12:32:24Z</time></trkpt><trkpt lat="39.16802424223225" lon="16.069127030131675"><ele>56.99999999999999</ele><time>2026-04-26T12:32:25Z</time></trkpt><trkpt lat="39.168092723818106" lon="16.0690941625905"><ele>56.0</ele><time>2026-04-26T12:32:26Z</time></trkpt><trkpt lat="39.168162503718825" lon="16.069083791148422"><ele>55.0</ele><time>2026-04-26T12:32:27Z</time></trkpt><trkpt lat="39.16824142354636" lon="16.069094762172938"><ele>54.0</ele><time>2026-04-26T12:32:28Z</time></trkpt><trkpt lat="39.168314164776476" lon="16.069097877526502"><ele>52.99999999999999</ele><time>2026-04-26T12:32:29Z</time></trkpt><trkpt lat="39.16840951127195" lon="16.069105935618357"><ele>52.0</ele><time>2026-04-26T12:32:30Z</time></trkpt><trkpt lat="39.168513801199275" lon="16.069115850269117"><ele>56.25</ele><time>2026-04-26T12:32:31Z</time></trkpt><trkpt lat="39.16862698906249" lon="16.06914320224853"><ele>60.5</ele><time>2026-04-26T12:32:32Z</time></trkpt><trkpt lat="39.168743084990886" lon="16.069187873235116"><ele>64.75</ele><time>2026-04-26T12:32:33Z</time></trkpt><trkpt lat="39.16886193706538" lon="16.06924655842748"><ele>69.0</ele><time>2026-04-26T12:32:34Z</time></trkpt><trkpt lat="39.16900205858009" lon="16.069153719549824"><ele>67.0</ele><time>2026-04-26T12:32:35Z</time></trkpt><trkpt lat="39.16914820072094" lon="16.06917379461352"><ele>65.0</ele><time>2026-04-26T12:32:36Z</time></trkpt><trkpt lat="39.1692951416827" lon="16.069188747649445"><ele>63.0</ele><time>2026-04-26T12:32:37Z</time></trkpt><trkpt lat="39.16945134759826" lon="16.06920212922631"><ele>63.0</ele><time>2026-04-26T12:32:38Z</time></trkpt><trkpt lat="39.16960765931086" lon="16.069216478416447"><ele>63.0</ele><time>2026-04-26T12:32:39Z</time></trkpt><trkpt lat="39.169763538131285" lon="16.069232603795633"><ele>63.0</ele><time>2026-04-26T12:32:40Z</time></trkpt><trkpt lat="39.16991741150553" lon="16.069241867380008"><ele>65.0</ele><time>2026-04-26T12:32:41Z</time></trkpt><trkpt lat="39.170075098477696" lon="16.06925359105277"><ele>67.0</ele><time>2026-04-26T12:32:42Z</time></trkpt><trkpt lat="39.170232818291" lon="16.06926495460969"><ele>69.0</ele><time>2026-04-26T12:32:43Z</time></trkpt><trkpt lat="39.17038823607009" lon="16.06927416064726"><ele>69.0</ele><time>2026-04-26T12:32:44Z</time></trkpt><trkpt lat="39.17054616143895" lon="16.069290266940477"><ele>69.0</ele><time>2026-04-26T12:32:45Z</time></trkpt><trkpt lat="39.17070486339707" lon="16.06930111831388"><ele>69.0</ele><time>2026-04-26T12:32:46Z</time></trkpt><trkpt lat="39.170861310023255" lon="16.06931600854921"><ele>70.0</ele><time>2026-04-26T12:32:47Z</time></trkpt><trkpt lat="39.17102090449734" lon="16.06932071272413"><ele>71.0</ele><time>2026-04-26T12:32:48Z</time></trkpt><trkpt lat="39.17117873831981" lon="16.069316362383894"><ele>72.0</ele><time>2026-04-26T12:32:49Z</time></trkpt><trkpt lat="39.17133160602727" lon="16.06931567705273"><ele>72.0</ele><time>2026-04-26T12:32:50Z</time></trkpt><trkpt lat="39.17147328661898" lon="16.069332388525634"><ele>72.0</ele><time>2026-04-26T12:32:51Z</time></trkpt><trkpt lat="39.17160501213337" lon="16.069313452853486"><ele>72.0</ele><time>2026-04-26T12:32:52Z</time></trkpt><trkpt lat="39.17172850677483" lon="16.06931083036938"><ele>72.0</ele><time>2026-04-26T12:32:53Z</time></trkpt><trkpt lat="39.17184894603555" lon="16.069306956357664"><ele>73.0</ele><time>2026-04-26T12:32:54Z</time></trkpt><trkpt lat="39.1719696766991" lon="16.069304259414395"><ele>74.0</ele><time>2026-04-26T12:32:55Z</time></trkpt><trkpt lat="39.17208526289582" lon="16.06930368276352"><ele>75.0</ele><time>2026-04-26T12:32:56Z</time></trkpt><trkpt lat="39.172192584967114" lon="16.069328572125738"><ele>76.0</ele><time>2026-04-26T12:32:57Z</time></trkpt><trkpt lat="39.17229561296942" lon="16.069375901326794"><ele>76.39999999999999</ele><time>2026-04-26T12:32:58Z</time></trkpt><trkpt lat="39.172391865906256" lon="16.069454270965412"><ele>76.8</ele><time>2026-04-26T12:32:59Z</time></trkpt><trkpt lat="39.17247411050588" lon="16.06953517848976"><ele>77.19999999999999</ele><time>2026-04-26T12:33:00Z</time></trkpt><trkpt lat="39.17255223311068" lon="16.06958489289218"><ele>77.6</ele><time>2026-04-26T12:33:01Z</time></trkpt><trkpt lat="39.172630337400655" lon="16.06958357591228"><ele>78.0</ele><time>2026-04-26T12:33:02Z</time></trkpt><trkpt lat="39.17270199442001" lon="16.069548117358295"><ele>78.0</ele><time>2026-04-26T12:33:03Z</time></trkpt><trkpt lat="39.17273725253577" lon="16.069422131780183"><ele>78.0</ele><time>2026-04-26T12:33:04Z</time></trkpt><trkpt lat="39.17277849319635" lon="16.069307961924377"><ele>78.0</ele><time>2026-04-26T12:33:05Z</time></trkpt><trkpt lat="39.172868840228034" lon="16.069263047074774"><ele>78.0</ele><time>2026-04-26T12:33:06Z</time></trkpt><trkpt lat="39.172964104647626" lon="16.069206244395435"><ele>78.0</ele><time>2026-04-26T12:33:07Z</time></trkpt><trkpt lat="39.17307392438973" lon="16.06914839348895"><ele>73.5</ele><time>2026-04-26T12:33:08Z</time></trkpt><trkpt lat="39.173185404470644" lon="16.069074885305305"><ele>69.0</ele><time>2026-04-26T12:33:09Z</time></trkpt><trkpt lat="39.17331041102272" lon="16.069025353654528"><ele>64.5</ele><time>2026-04-26T12:33:10Z</time></trkpt><trkpt lat="39.17344841499633" lon="16.06900557166167"><ele>60.0</ele><time>2026-04-26T12:33:11Z</time></trkpt><trkpt lat="39.17358523468131" lon="16.068958380841618"><ele>60.0</ele><time>2026-04-26T12:33:12Z</time></trkpt><trkpt lat="39.17372244338595" lon="16.068914336508435"><ele>60.0</ele><time>2026-04-26T12:33:13Z</time></trkpt><trkpt lat="39.173862729113395" lon="16.068863359913127"><ele>60.0</ele><time>2026-04-26T12:33:14Z</time></trkpt><trkpt lat="39.174005329209436" lon="16.068797798863958"><ele>60.0</ele><time>2026-04-26T12:33:15Z</time></trkpt><trkpt lat="39.17415992785398" lon="16.068764632864944"><ele>60.25</ele><time>2026-04-26T12:33:16Z</time></trkpt><trkpt lat="39.17430264712378" lon="16.068705975324885"><ele>60.5</ele><time>2026-04-26T12:33:17Z</time></trkpt><trkpt lat="39.174434348992506" lon="16.068645671423514"><ele>60.75</ele><time>2026-04-26T12:33:18Z</time></trkpt><trkpt lat="39.174547101021034" lon="16.068569539881246"><ele>61.0</ele><time>2026-04-26T12:33:19Z</time></trkpt><trkpt lat="39.17465898909418" lon="16.06848470329989"><ele>61.0</ele><time>2026-04-26T12:33:20Z</time></trkpt><trkpt lat="39.17476798759907" lon="16.068409263821025"><ele>61.0</ele><time>2026-04-26T12:33:21Z</time></trkpt><trkpt lat="39.17488005326859" lon="16.06835280085998"><ele>61.0</ele><time>2026-04-26T12:33:22Z</time></trkpt><trkpt lat="39.17500126951102" lon="16.06834426816667"><ele>61.0</ele><time>2026-04-26T12:33:23Z</time></trkpt><trkpt lat="39.17512570912712" lon="16.06832663682764"><ele>63.8</ele><time>2026-04-26T12:33:24Z</time></trkpt><trkpt lat="39.175241738362125" lon="16.068315066848093"><ele>66.6</ele><time>2026-04-26T12:33:25Z</time></trkpt><trkpt lat="39.175345592426055" lon="16.068304242351935"><ele>69.4</ele><time>2026-04-26T12:33:26Z</time></trkpt><trkpt lat="39.17543757202424" lon="16.068375938324323"><ele>72.2</ele><time>2026-04-26T12:33:27Z</time></trkpt><trkpt lat="39.1755230925994" lon="16.068382042435548"><ele>75.0</ele><time>2026-04-26T12:33:28Z</time></trkpt><trkpt lat="39.175602349420984" lon="16.06836400026641"><ele>75.0</ele><time>2026-04-26T12:33:29Z</time></trkpt><trkpt lat="39.17567522938029" lon="16.068317882748943"><ele>75.0</ele><time>2026-04-26T12:33:30Z</time></trkpt><trkpt lat="39.17573088687209" lon="16.068215663272834"><ele>75.0</ele><time>2026-04-26T12:33:31Z</time></trkpt><trkpt lat="39.17572030255254" lon="16.068066603436474"><ele>75.0</ele><time>2026-04-26T12:33:32Z</time></trkpt><trkpt lat="39.175737534611116" lon="16.067932121108115"><ele>75.0</ele><time>2026-04-26T12:33:33Z</time></trkpt><trkpt lat="39.17580546652291" lon="16.067841697391934"><ele>69.8</ele><time>2026-04-26T12:33:34Z</time></trkpt><trkpt lat="39.17587463421895" lon="16.067729615700976"><ele>64.6</ele><time>2026-04-26T12:33:35Z</time></trkpt><trkpt lat="39.175967914712636" lon="16.06765600686022"><ele>59.400000000000006</ele><time>2026-04-26T12:33:36Z</time></trkpt><trkpt lat="39.17607103851369" lon="16.067649971729782"><ele>54.2</ele><time>2026-04-26T12:33:37Z</time></trkpt><trkpt lat="39.17617115260025" lon="16.067654911985713"><ele>49.0</ele><time>2026-04-26T12:33:38Z</time></trkpt><trkpt lat="39.17628387854889" lon="16.067635492535285"><ele>49.0</ele><time>2026-04-26T12:33:39Z</time></trkpt><trkpt lat="39.17639386633851" lon="16.067631786610782"><ele>49.0</ele><time>2026-04-26T12:33:40Z</time></trkpt><trkpt lat="39.17649469401507" lon="16.067640085684562"><ele>49.0</ele><time>2026-04-26T12:33:41Z</time></trkpt><trkpt lat="39.1765859090103" lon="16.067683029573463"><ele>49.0</ele><time>2026-04-26T12:33:42Z</time></trkpt><trkpt lat="39.17664665290724" lon="16.067780999425008"><ele>49.0</ele><time>2026-04-26T12:33:43Z</time></trkpt><trkpt lat="39.17672361213758" lon="16.067814163823115"><ele>50.800000000000004</ele><time>2026-04-26T12:33:44Z</time></trkpt><trkpt lat="39.17680860224534" lon="16.067812648219945"><ele>52.6</ele><time>2026-04-26T12:33:45Z</time></trkpt><trkpt lat="39.17690098205053" lon="16.067782427516242"><ele>54.4</ele><time>2026-04-26T12:33:46Z</time></trkpt><trkpt lat="39.17696881610397" lon="16.06765695034206"><ele>56.2</ele><time>2026-04-26T12:33:47Z</time></trkpt><trkpt lat="39.17703209963847" lon="16.0675346467741"><ele>58.0</ele><time>2026-04-26T12:33:48Z</time></trkpt><trkpt lat="39.1771033656459" lon="16.067440406688775"><ele>51.75</ele><time>2026-04-26T12:33:49Z</time></trkpt><trkpt lat="39.17720603700122" lon="16.06735012874674"><ele>45.5</ele><time>2026-04-26T12:33:50Z</time></trkpt><trkpt lat="39.17730488261296" lon="16.067257227711483"><ele>39.25</ele><time>2026-04-26T12:33:51Z</time></trkpt><trkpt lat="39.17739496649907" lon="16.067180565779225"><ele>33.0</ele><time>2026-04-26T12:33:52Z</time></trkpt><trkpt lat="39.17748857816194" lon="16.067140716611554"><ele>33.0</ele><time>2026-04-26T12:33:53Z</time></trkpt><trkpt lat="39.177588830003245" lon="16.06718046380466"><ele>33.0</ele><time>2026-04-26T12:33:54Z</time></trkpt><trkpt lat="39.17770194430469" lon="16.067149202022275"><ele>33.0</ele><time>2026-04-26T12:33:55Z</time></trkpt><trkpt lat="39.17780851907365" lon="16.067115509202083"><ele>33.0</ele><time>2026-04-26T12:33:56Z</time></trkpt><trkpt lat="39.1779211794606" lon="16.06706925395475"><ele>33.0</ele><time>2026-04-26T12:33:57Z</time></trkpt><trkpt lat="39.17802846608979" lon="16.067054464541133"><ele>33.0</ele><time>2026-04-26T12:33:58Z</time></trkpt><trkpt lat="39.17813027090743" lon="16.067082964754505"><ele>33.0</ele><time>2026-04-26T12:33:59Z</time></trkpt><trkpt lat="39.17821220200299" lon="16.067142106294543"><ele>33.0</ele><time>2026-04-26T12:34:00Z</time></trkpt><trkpt lat="39.178238337643236" lon="16.06725349421298"><ele>33.0</ele><time>2026-04-26T12:34:01Z</time></trkpt><trkpt lat="39.17830802671931" lon="16.067337100499522"><ele>33.0</ele><time>2026-04-26T12:34:02Z</time></trkpt><trkpt lat="39.17837017311087" lon="16.06743831524619"><ele>40.8</ele><time>2026-04-26T12:34:03Z</time></trkpt><trkpt lat="39.1784540402581" lon="16.067515851257117"><ele>48.599999999999994</ele><time>2026-04-26T12:34:04Z</time></trkpt><trkpt lat="39.178553425204825" lon="16.067573828969095"><ele>56.400000000000006</ele><time>2026-04-26T12:34:05Z</time></trkpt><trkpt lat="39.17865619193109" lon="16.067610140381504"><ele>64.2</ele><time>2026-04-26T12:34:06Z</time></trkpt><trkpt lat="39.178762511662875" lon="16.0676268911129"><ele>72.0</ele><time>2026-04-26T12:34:07Z</time></trkpt><trkpt lat="39.1788689148239" lon="16.0676163405766"><ele>72.0</ele><time>2026-04-26T12:34:08Z</time></trkpt><trkpt lat="39.17897281292536" lon="16.067582051643868"><ele>72.0</ele><time>2026-04-26T12:34:09Z</time></trkpt><trkpt lat="39.17906891379759" lon="16.067518261168377"><ele>72.0</ele><time>2026-04-26T12:34:10Z</time></trkpt><trkpt lat="39.17916181618173" lon="16.067454305231745"><ele>72.0</ele><time>2026-04-26T12:34:11Z</time></trkpt><trkpt lat="39.17925502097592" lon="16.067400041661806"><ele>72.0</ele><time>2026-04-26T12:34:12Z</time></trkpt><trkpt lat="39.179348700831895" lon="16.067357862023307"><ele>62.0</ele><time>2026-04-26T12:34:13Z</time></trkpt><trkpt lat="39.17944247937012" lon="16.067329710171016"><ele>52.0</ele><time>2026-04-26T12:34:14Z</time></trkpt><trkpt lat="39.17953908899838" lon="16.0673478366107"><ele>42.0</ele><time>2026-04-26T12:34:15Z</time></trkpt><trkpt lat="39.17962676829661" lon="16.067333889888555"><ele>32.0</ele><time>2026-04-26T12:34:16Z</time></trkpt><trkpt lat="39.179713761445484" lon="16.067336449490888"><ele>22.0</ele><time>2026-04-26T12:34:17Z</time></trkpt><trkpt lat="39.179803270813" lon="16.067318424568246"><ele>22.400000000000002</ele><time>2026-04-26T12:34:18Z</time></trkpt><trkpt lat="39.179898533223415" lon="16.067289304725964"><ele>22.8</ele><time>2026-04-26T12:34:19Z</time></trkpt><trkpt lat="39.18000102021748" lon="16.067256763933912"><ele>23.2</ele><time>2026-04-26T12:34:20Z</time></trkpt><trkpt lat="39.1801009645443" lon="16.067224992884064"><ele>23.6</ele><time>2026-04-26T12:34:21Z</time></trkpt><trkpt lat="39.180210649961005" lon="16.06720227372522"><ele>24.0</ele><time>2026-04-26T12:34:22Z</time></trkpt><trkpt lat="39.18032109534466" lon="16.067172532513755"><ele>24.0</ele><time>2026-04-26T12:34:23Z</time></trkpt><trkpt lat="39.18043159764341" lon="16.067143684263723"><ele>24.0</ele><time>2026-04-26T12:34:24Z</time></trkpt><trkpt lat="39.18053554017485" lon="16.067123825047226"><ele>24.0</ele><time>2026-04-26T12:34:25Z</time></trkpt><trkpt lat="39.18061998457596" lon="16.06713161813396"><ele>24.0</ele><time>2026-04-26T12:34:26Z</time></trkpt><trkpt lat="39.18067920563519" lon="16.067180782988455"><ele>24.0</ele><time>2026-04-26T12:34:27Z</time></trkpt><trkpt lat="39.180707964738986" lon="16.067268108131977"><ele>24.0</ele><time>2026-04-26T12:34:28Z</time></trkpt><trkpt lat="39.1807239151963" lon="16.067361744681957"><ele>27.833333333333332</ele><time>2026-04-26T12:34:29Z</time></trkpt><trkpt lat="39.18074792539509" lon="16.06745965933975"><ele>31.666666666666664</ele><time>2026-04-26T12:34:30Z</time></trkpt><trkpt lat="39.180789413143685" lon="16.06756876565903"><ele>35.5</ele><time>2026-04-26T12:34:31Z</time></trkpt><trkpt lat="39.1808109278016" lon="16.06769876426679"><ele>39.33333333333333</ele><time>2026-04-26T12:34:32Z</time></trkpt><trkpt lat="39.180855065390155" lon="16.067803398949586"><ele>43.166666666666664</ele><time>2026-04-26T12:34:33Z</time></trkpt><trkpt lat="39.18088850271077" lon="16.06789594499225"><ele>47.0</ele><time>2026-04-26T12:34:34Z</time></trkpt><trkpt lat="39.180955318589945" lon="16.067956267165748"><ele>47.0</ele><time>2026-04-26T12:34:35Z</time></trkpt><trkpt lat="39.18104569554817" lon="16.067962072756846"><ele>47.0</ele><time>2026-04-26T12:34:36Z</time></trkpt><trkpt lat="39.181138809859156" lon="16.06796260568349"><ele>47.0</ele><time>2026-04-26T12:34:37Z</time></trkpt><trkpt lat="39.181240776580225" lon="16.067972924046835"><ele>47.0</ele><time>2026-04-26T12:34:38Z</time></trkpt><trkpt lat="39.18133894342098" lon="16.067992099230484"><ele>47.0</ele><time>2026-04-26T12:34:39Z</time></trkpt><trkpt lat="39.18142764170707" lon="16.068008186143228"><ele>47.0</ele><time>2026-04-26T12:34:40Z</time></trkpt><trkpt lat="39.18150562566699" lon="16.067997294242012"><ele>47.0</ele><time>2026-04-26T12:34:41Z</time></trkpt><trkpt lat="39.18157880598744" lon="16.06797798086403"><ele>47.0</ele><time>2026-04-26T12:34:42Z</time></trkpt><trkpt lat="39.181609613403765" lon="16.06786329963885"><ele>47.0</ele><time>2026-04-26T12:34:43Z</time></trkpt><trkpt lat="39.181627513988055" lon="16.067745184595932"><ele>47.0</ele><time>2026-04-26T12:34:44Z</time></trkpt><trkpt lat="39.181627756378305" lon="16.06761479435739"><ele>47.0</ele><time>2026-04-26T12:34:45Z</time></trkpt><trkpt lat="39.18162248394229" lon="16.067476902152244"><ele>45.0</ele><time>2026-04-26T12:34:46Z</time></trkpt><trkpt lat="39.18163834052566" lon="16.06733955489809"><ele>43.0</ele><time>2026-04-26T12:34:47Z</time></trkpt><trkpt lat="39.181691712656935" lon="16.067236533433274"><ele>41.0</ele><time>2026-04-26T12:34:48Z</time></trkpt><trkpt lat="39.181747042110295" lon="16.067162025514605"><ele>39.0</ele><time>2026-04-26T12:34:49Z</time></trkpt><trkpt lat="39.18180209918562" lon="16.06708096424869"><ele>37.0</ele><time>2026-04-26T12:34:50Z</time></trkpt><trkpt lat="39.1818614039581" lon="16.06702136967835"><ele>35.0</ele><time>2026-04-26T12:34:51Z</time></trkpt><trkpt lat="39.18192679831286" lon="16.066963488880106"><ele>35.0</ele><time>2026-04-26T12:34:52Z</time></trkpt><trkpt lat="39.18201673202352" lon="16.06696687633723"><ele>35.0</ele><time>2026-04-26T12:34:53Z</time></trkpt><trkpt lat="39.18211034278086" lon="16.066966309824775"><ele>35.0</ele><time>2026-04-26T12:34:54Z</time></trkpt><trkpt lat="39.182210555383406" lon="16.066990565228046"><ele>35.0</ele><time>2026-04-26T12:34:55Z</time></trkpt><trkpt lat="39.182325240044065" lon="16.06702911798864"><ele>35.0</ele><time>2026-04-26T12:34:56Z</time></trkpt><trkpt lat="39.18244948917957" lon="16.067061304604987"><ele>34.25</ele><time>2026-04-26T12:34:57Z</time></trkpt><trkpt lat="39.18257102972526" lon="16.06711909081266"><ele>33.5</ele><time>2026-04-26T12:34:58Z</time></trkpt><trkpt lat="39.18269199891869" lon="16.067188727696003"><ele>32.75</ele><time>2026-04-26T12:34:59Z</time></trkpt><trkpt lat="39.18282515281379" lon="16.067234598298693"><ele>32.0</ele><time>2026-04-26T12:35:00Z</time></trkpt><trkpt lat="39.182972767295965" lon="16.06722996281629"><ele>32.0</ele><time>2026-04-26T12:35:01Z</time></trkpt><trkpt lat="39.18311580008014" lon="16.067206608864517"><ele>32.0</ele><time>2026-04-26T12:35:02Z</time></trkpt><trkpt lat="39.18325370103141" lon="16.067162260714873"><ele>32.0</ele><time>2026-04-26T12:35:03Z</time></trkpt><trkpt lat="39.18339700358049" lon="16.067151967268046"><ele>32.0</ele><time>2026-04-26T12:35:04Z</time></trkpt><trkpt lat="39.18354509036105" lon="16.067171605075888"><ele>31.666666666666664</ele><time>2026-04-26T12:35:05Z</time></trkpt><trkpt lat="39.18369892893505" lon="16.06719959276081"><ele>31.333333333333336</ele><time>2026-04-26T12:35:06Z</time></trkpt><trkpt lat="39.18385909730077" lon="16.067221668029518"><ele>31.0</ele><time>2026-04-26T12:35:07Z</time></trkpt><trkpt lat="39.18402638795723" lon="16.06723081434256"><ele>31.0</ele><time>2026-04-26T12:35:08Z</time></trkpt><trkpt lat="39.18420203444031" lon="16.067236974864255"><ele>31.0</ele><time>2026-04-26T12:35:09Z</time></trkpt><trkpt lat="39.184379122386346" lon="16.067261286337516"><ele>31.0</ele><time>2026-04-26T12:35:10Z</time></trkpt><trkpt lat="39.18455235910127" lon="16.067259173166427"><ele>31.0</ele><time>2026-04-26T12:35:11Z</time></trkpt><trkpt lat="39.18473259566576" lon="16.067268622724978"><ele>31.0</ele><time>2026-04-26T12:35:12Z</time></trkpt><trkpt lat="39.18491415368162" lon="16.067303576294922"><ele>31.0</ele><time>2026-04-26T12:35:13Z</time></trkpt><trkpt lat="39.18509267587304" lon="16.06730412750073"><ele>30.333333333333336</ele><time>2026-04-26T12:35:14Z</time></trkpt><trkpt lat="39.185269846985406" lon="16.067333829295453"><ele>29.666666666666664</ele><time>2026-04-26T12:35:15Z</time></trkpt><trkpt lat="39.185446872182716" lon="16.0673708692979"><ele>29.0</ele><time>2026-04-26T12:35:16Z</time></trkpt><trkpt lat="39.185619630677536" lon="16.06740441413833"><ele>39.0</ele><time>2026-04-26T12:35:17Z</time></trkpt><trkpt lat="39.18579495778769" lon="16.06744599175497"><ele>49.0</ele><time>2026-04-26T12:35:18Z</time></trkpt><trkpt lat="39.18595732444501" lon="16.067485523923562"><ele>59.0</ele><time>2026-04-26T12:35:19Z</time></trkpt><trkpt lat="39.186113905125325" lon="16.06749783252368"><ele>59.0</ele><time>2026-04-26T12:35:20Z</time></trkpt><trkpt lat="39.186252234341914" lon="16.067444459613803"><ele>59.0</ele><time>2026-04-26T12:35:21Z</time></trkpt><trkpt lat="39.18637800673517" lon="16.067416563392015"><ele>59.0</ele><time>2026-04-26T12:35:22Z</time></trkpt><trkpt lat="39.18649254364715" lon="16.067440175849857"><ele>59.0</ele><time>2026-04-26T12:35:23Z</time></trkpt><trkpt lat="39.18662075988087" lon="16.06747772221492"><ele>57.25</ele><time>2026-04-26T12:35:24Z</time></trkpt><trkpt lat="39.186757538188125" lon="16.06753043966792"><ele>55.5</ele><time>2026-04-26T12:35:25Z</time></trkpt><trkpt lat="39.186892258858265" lon="16.067593590559074"><ele>53.75</ele><time>2026-04-26T12:35:26Z</time></trkpt><trkpt lat="39.18700625045937" lon="16.067670121608305"><ele>52.0</ele><time>2026-04-26T12:35:27Z</time></trkpt><trkpt lat="39.187131464209315" lon="16.067707296531356"><ele>52.0</ele><time>2026-04-26T12:35:28Z</time></trkpt><trkpt lat="39.18724963293364" lon="16.067742228069246"><ele>52.0</ele><time>2026-04-26T12:35:29Z</time></trkpt><trkpt lat="39.187383334502684" lon="16.067735831612154"><ele>52.0</ele><time>2026-04-26T12:35:30Z</time></trkpt><trkpt lat="39.18752216777049" lon="16.067721843099935"><ele>52.0</ele><time>2026-04-26T12:35:31Z</time></trkpt><trkpt lat="39.18766415534508" lon="16.067685279860928"><ele>52.25</ele><time>2026-04-26T12:35:32Z</time></trkpt><trkpt lat="39.18780836061823" lon="16.067628332373744"><ele>52.5</ele><time>2026-04-26T12:35:33Z</time></trkpt><trkpt lat="39.18795122454275" lon="16.06756729927684"><ele>52.75</ele><time>2026-04-26T12:35:34Z</time></trkpt><trkpt lat="39.18808879712918" lon="16.06749891444797"><ele>53.0</ele><time>2026-04-26T12:35:35Z</time></trkpt><trkpt lat="39.188203858650475" lon="16.067412202246253"><ele>50.0</ele><time>2026-04-26T12:35:36Z</time></trkpt><trkpt lat="39.18830303974683" lon="16.06730347585818"><ele>47.0</ele><time>2026-04-26T12:35:37Z</time></trkpt><trkpt lat="39.18838830302329" lon="16.067207786931608"><ele>44.0</ele><time>2026-04-26T12:35:38Z</time></trkpt><trkpt lat="39.18847862082499" lon="16.067185447853902"><ele>41.0</ele><time>2026-04-26T12:35:39Z</time></trkpt><trkpt lat="39.18856662004573" lon="16.067187932632375"><ele>38.0</ele><time>2026-04-26T12:35:40Z</time></trkpt><trkpt lat="39.18868338520154" lon="16.06717920910293"><ele>38.0</ele><time>2026-04-26T12:35:41Z</time></trkpt><trkpt lat="39.18880267440785" lon="16.067158573785626"><ele>38.0</ele><time>2026-04-26T12:35:42Z</time></trkpt><trkpt lat="39.188927741867204" lon="16.067153118087987"><ele>38.0</ele><time>2026-04-26T12:35:43Z</time></trkpt><trkpt lat="39.189045285370895" lon="16.067131559240764"><ele>38.0</ele><time>2026-04-26T12:35:44Z</time></trkpt><trkpt lat="39.18915324162158" lon="16.067131983316674"><ele>38.5</ele><time>2026-04-26T12:35:45Z</time></trkpt><trkpt lat="39.18925074444239" lon="16.067127977462555"><ele>39.0</ele><time>2026-04-26T12:35:46Z</time></trkpt><trkpt lat="39.1893365975378" lon="16.067140178926973"><ele>39.5</ele><time>2026-04-26T12:35:47Z</time></trkpt><trkpt lat="39.18940397589957" lon="16.067205016258946"><ele>40.0</ele><time>2026-04-26T12:35:48Z</time></trkpt><trkpt lat="39.189477909291334" lon="16.067238884741478"><ele>40.5</ele><time>2026-04-26T12:35:49Z</time></trkpt><trkpt lat="39.18954211287981" lon="16.067272332385485"><ele>41.0</ele><time>2026-04-26T12:35:50Z</time></trkpt><trkpt lat="39.189615839972966" lon="16.0672784415224"><ele>41.0</ele><time>2026-04-26T12:35:51Z</time></trkpt><trkpt lat="39.18970410285217" lon="16.067256522396413"><ele>41.0</ele><time>2026-04-26T12:35:52Z</time></trkpt><trkpt lat="39.1897985955791" lon="16.067240167652713"><ele>41.0</ele><time>2026-04-26T12:35:53Z</time></trkpt><trkpt lat="39.18989854620548" lon="16.0672259469353"><ele>41.0</ele><time>2026-04-26T12:35:54Z</time></trkpt><trkpt lat="39.189985036237594" lon="16.067206372020852"><ele>41.0</ele><time>2026-04-26T12:35:55Z</time></trkpt><trkpt lat="39.1900588182023" lon="16.067182055912397"><ele>41.666666666666664</ele><time>2026-04-26T12:35:56Z</time></trkpt><trkpt lat="39.190103463601105" lon="16.067094498413123"><ele>42.33333333333333</ele><time>2026-04-26T12:35:57Z</time></trkpt><trkpt lat="39.19013233137715" lon="16.066995042370316"><ele>43.0</ele><time>2026-04-26T12:35:58Z</time></trkpt><trkpt lat="39.19014596841652" lon="16.066883554403155"><ele>43.666666666666664</ele><time>2026-04-26T12:35:59Z</time></trkpt><trkpt lat="39.190165314904114" lon="16.066772135038796"><ele>44.333333333333336</ele><time>2026-04-26T12:36:00Z</time></trkpt><trkpt lat="39.19020556291655" lon="16.066689710398947"><ele>45.0</ele><time>2026-04-26T12:36:01Z</time></trkpt><trkpt lat="39.190271900172746" lon="16.06665131798757"><ele>45.0</ele><time>2026-04-26T12:36:02Z</time></trkpt><trkpt lat="39.190353640994786" lon="16.06670068791927"><ele>45.0</ele><time>2026-04-26T12:36:03Z</time></trkpt><trkpt lat="39.190448513942364" lon="16.066700579206966"><ele>45.0</ele><time>2026-04-26T12:36:04Z</time></trkpt><trkpt lat="39.19055184397973" lon="16.066730945470425"><ele>45.0</ele><time>2026-04-26T12:36:05Z</time></trkpt><trkpt lat="39.1906732826627" lon="16.066748286860843"><ele>45.0</ele><time>2026-04-26T12:36:06Z</time></trkpt><trkpt lat="39.19079722046311" lon="16.066767437339543"><ele>44.0</ele><time>2026-04-26T12:36:07Z</time></trkpt><trkpt lat="39.19092593041172" lon="16.06679945021254"><ele>43.0</ele><time>2026-04-26T12:36:08Z</time></trkpt><trkpt lat="39.19106191139363" lon="16.066823339214974"><ele>42.0</ele><time>2026-04-26T12:36:09Z</time></trkpt><trkpt lat="39.191206237177276" lon="16.06685027926019"><ele>41.0</ele><time>2026-04-26T12:36:10Z</time></trkpt><trkpt lat="39.191356331986476" lon="16.066865189653623"><ele>41.0</ele><time>2026-04-26T12:36:11Z</time></trkpt><trkpt lat="39.19150233269776" lon="16.066876555098748"><ele>41.0</ele><time>2026-04-26T12:36:12Z</time></trkpt><trkpt lat="39.19165088351478" lon="16.066862237596897"><ele>41.0</ele><time>2026-04-26T12:36:13Z</time></trkpt><trkpt lat="39.19182320520508" lon="16.066845479724048"><ele>41.33333333333333</ele><time>2026-04-26T12:36:14Z</time></trkpt><trkpt lat="39.19199197618416" lon="16.066806654813835"><ele>41.666666666666664</ele><time>2026-04-26T12:36:15Z</time></trkpt><trkpt lat="39.19216951697877" lon="16.06678490504689"><ele>42.0</ele><time>2026-04-26T12:36:16Z</time></trkpt><trkpt lat="39.19234564356822" lon="16.06676452975941"><ele>42.0</ele><time>2026-04-26T12:36:17Z</time></trkpt><trkpt lat="39.19251827797745" lon="16.066739338950622"><ele>42.0</ele><time>2026-04-26T12:36:18Z</time></trkpt><trkpt lat="39.19269156647504" lon="16.066709853600383"><ele>42.0</ele><time>2026-04-26T12:36:19Z</time></trkpt><trkpt lat="39.192865390514946" lon="16.06670495234891"><ele>42.0</ele><time>2026-04-26T12:36:20Z</time></trkpt><trkpt lat="39.19303572726811" lon="16.06668111236051"><ele>42.0</ele><time>2026-04-26T12:36:21Z</time></trkpt><trkpt lat="39.19319845262302" lon="16.06663617771482"><ele>42.0</ele><time>2026-04-26T12:36:22Z</time></trkpt><trkpt lat="39.193360638942124" lon="16.066621881021305"><ele>32.333333333333336</ele><time>2026-04-26T12:36:23Z</time></trkpt><trkpt lat="39.193525518174724" lon="16.0665950868124"><ele>22.666666666666664</ele><time>2026-04-26T12:36:24Z</time></trkpt><trkpt lat="39.19367648578725" lon="16.06660100558579"><ele>13.0</ele><time>2026-04-26T12:36:25Z</time></trkpt><trkpt lat="39.19383891178574" lon="16.066596905415757"><ele>13.0</ele><time>2026-04-26T12:36:26Z</time></trkpt><trkpt lat="39.193994866226795" lon="16.06659837569028"><ele>13.0</ele><time>2026-04-26T12:36:27Z</time></trkpt><trkpt lat="39.19414897257438" lon="16.066602585235533"><ele>13.0</ele><time>2026-04-26T12:36:28Z</time></trkpt><trkpt lat="39.194295501717626" lon="16.06668008400535"><ele>21.75</ele><time>2026-04-26T12:36:29Z</time></trkpt><trkpt lat="39.194439247844755" lon="16.066716748784867"><ele>30.5</ele><time>2026-04-26T12:36:30Z</time></trkpt><trkpt lat="39.19458557088885" lon="16.06672617699542"><ele>39.25</ele><time>2026-04-26T12:36:31Z</time></trkpt><trkpt lat="39.19472748882897" lon="16.066695501441178"><ele>48.0</ele><time>2026-04-26T12:36:32Z</time></trkpt><trkpt lat="39.19487707943035" lon="16.066691738198763"><ele>48.75</ele><time>2026-04-26T12:36:33Z</time></trkpt><trkpt lat="39.195018592838416" lon="16.066673113731255"><ele>49.5</ele><time>2026-04-26T12:36:34Z</time></trkpt><trkpt lat="39.19514983700436" lon="16.066668256207866"><ele>50.25</ele><time>2026-04-26T12:36:35Z</time></trkpt><trkpt lat="39.19526626844041" lon="16.066664150530872"><ele>51.0</ele><time>2026-04-26T12:36:36Z</time></trkpt><trkpt lat="39.195365617256684" lon="16.066746954665856"><ele>51.0</ele><time>2026-04-26T12:36:37Z</time></trkpt><trkpt lat="39.19546227141762" lon="16.066827859716525"><ele>51.0</ele><time>2026-04-26T12:36:38Z</time></trkpt><trkpt lat="39.19556123756412" lon="16.06691380671899"><ele>51.0</ele><time>2026-04-26T12:36:39Z</time></trkpt><trkpt lat="39.19564766858235" lon="16.066974679782692"><ele>51.0</ele><time>2026-04-26T12:36:40Z</time></trkpt><trkpt lat="39.19574181489642" lon="16.06701709566109"><ele>51.0</ele><time>2026-04-26T12:36:41Z</time></trkpt><trkpt lat="39.195832034290156" lon="16.067052978125833"><ele>50.0</ele><time>2026-04-26T12:36:42Z</time></trkpt><trkpt lat="39.19593846098838" lon="16.06692718630544"><ele>49.0</ele><time>2026-04-26T12:36:43Z</time></trkpt><trkpt lat="39.19602735830967" lon="16.066831842217745"><ele>48.0</ele><time>2026-04-26T12:36:44Z</time></trkpt><trkpt lat="39.196136009691834" lon="16.066775960224245"><ele>47.0</ele><time>2026-04-26T12:36:45Z</time></trkpt><trkpt lat="39.196243708877816" lon="16.066726829371735"><ele>47.0</ele><time>2026-04-26T12:36:46Z</time></trkpt><trkpt lat="39.19636346487242" lon="16.06669559942132"><ele>47.0</ele><time>2026-04-26T12:36:47Z</time></trkpt><trkpt lat="39.19648606323738" lon="16.06669107477253"><ele>47.0</ele><time>2026-04-26T12:36:48Z</time></trkpt><trkpt lat="39.196614339193175" lon="16.0667041907711"><ele>47.0</ele><time>2026-04-26T12:36:49Z</time></trkpt><trkpt lat="39.19675099559304" lon="16.06672302067434"><ele>48.75</ele><time>2026-04-26T12:36:50Z</time></trkpt><trkpt lat="39.19690327551134" lon="16.066756385270754"><ele>50.5</ele><time>2026-04-26T12:36:51Z</time></trkpt><trkpt lat="39.197038120184565" lon="16.066786493002343"><ele>52.25</ele><time>2026-04-26T12:36:52Z</time></trkpt><trkpt lat="39.19719205713553" lon="16.06679275528177"><ele>54.0</ele><time>2026-04-26T12:36:53Z</time></trkpt><trkpt lat="39.19735558075189" lon="16.066775440457956"><ele>54.0</ele><time>2026-04-26T12:36:54Z</time></trkpt><trkpt lat="39.19751847255188" lon="16.06674778569836"><ele>54.0</ele><time>2026-04-26T12:36:55Z</time></trkpt><trkpt lat="39.19767668430006" lon="16.06676122898991"><ele>54.0</ele><time>2026-04-26T12:36:56Z</time></trkpt><trkpt lat="39.19783833142812" lon="16.066747707154825"><ele>54.0</ele><time>2026-04-26T12:36:57Z</time></trkpt><trkpt lat="39.19799308717138" lon="16.066762125742414"><ele>54.0</ele><time>2026-04-26T12:36:58Z</time></trkpt><trkpt lat="39.19813180382212" lon="16.066767089500576"><ele>54.0</ele><time>2026-04-26T12:36:59Z</time></trkpt><trkpt lat="39.19825903767769" lon="16.06673858643284"><ele>54.0</ele><time>2026-04-26T12:37:00Z</time></trkpt><trkpt lat="39.198386389882685" lon="16.066669732013395"><ele>48.0</ele><time>2026-04-26T12:37:01Z</time></trkpt><trkpt lat="39.19851425933841" lon="16.066585940548542"><ele>42.0</ele><time>2026-04-26T12:37:02Z</time></trkpt><trkpt lat="39.198655172878134" lon="16.066548807710394"><ele>36.0</ele><time>2026-04-26T12:37:03Z</time></trkpt><trkpt lat="39.198800963508255" lon="16.06651633659005"><ele>30.0</ele><time>2026-04-26T12:37:04Z</time></trkpt><trkpt lat="39.19893790606276" lon="16.066443730713594"><ele>31.25</ele><time>2026-04-26T12:37:05Z</time></trkpt><trkpt lat="39.199067570185704" lon="16.066373806950008"><ele>32.5</ele><time>2026-04-26T12:37:06Z</time></trkpt><trkpt lat="39.199185645981004" lon="16.0663106264356"><ele>33.75</ele><time>2026-04-26T12:37:07Z</time></trkpt><trkpt lat="39.199293472731135" lon="16.066314801357954"><ele>35.0</ele><time>2026-04-26T12:37:08Z</time></trkpt><trkpt lat="39.19938235262862" lon="16.066344327919705"><ele>35.0</ele><time>2026-04-26T12:37:09Z</time></trkpt><trkpt lat="39.19948334106218" lon="16.066384756567846"><ele>35.0</ele><time>2026-04-26T12:37:10Z</time></trkpt><trkpt lat="39.19959645186316" lon="16.06642719257837"><ele>35.0</ele><time>2026-04-26T12:37:11Z</time></trkpt><trkpt lat="39.19970719267419" lon="16.066502035656978"><ele>35.0</ele><time>2026-04-26T12:37:12Z</time></trkpt><trkpt lat="39.1998166401359" lon="16.06658957903939"><ele>40.6</ele><time>2026-04-26T12:37:13Z</time></trkpt><trkpt lat="39.19992712432544" lon="16.066665942318075"><ele>46.2</ele><time>2026-04-26T12:37:14Z</time></trkpt><trkpt lat="39.20004176713576" lon="16.066726815289304"><ele>51.8</ele><time>2026-04-26T12:37:15Z</time></trkpt><trkpt lat="39.200141728512165" lon="16.066767342225134"><ele>57.4</ele><time>2026-04-26T12:37:16Z</time></trkpt><trkpt lat="39.20023503514477" lon="16.066774387039874"><ele>63.0</ele><time>2026-04-26T12:37:17Z</time></trkpt><trkpt lat="39.200322180453675" lon="16.066732959608764"><ele>63.0</ele><time>2026-04-26T12:37:18Z</time></trkpt><trkpt lat="39.200397610162405" lon="16.066646320455416"><ele>63.0</ele><time>2026-04-26T12:37:19Z</time></trkpt><trkpt lat="39.20046892789401" lon="16.06654189820906"><ele>63.0</ele><time>2026-04-26T12:37:20Z</time></trkpt><trkpt lat="39.20053756246671" lon="16.06644898785216"><ele>63.0</ele><time>2026-04-26T12:37:21Z</time></trkpt><trkpt lat="39.200613088254826" lon="16.06639942374721"><ele>63.0</ele><time>2026-04-26T12:37:22Z</time></trkpt><trkpt lat="39.20069919226712" lon="16.066420417128494"><ele>60.2</ele><time>2026-04-26T12:37:23Z</time></trkpt><trkpt lat="39.200788089523535" lon="16.066456980667095"><ele>57.4</ele><time>2026-04-26T12:37:24Z</time></trkpt><trkpt lat="39.20089730712678" lon="16.06647689444351"><ele>54.6</ele><time>2026-04-26T12:37:25Z</time></trkpt><trkpt lat="39.20101135199834" lon="16.066495084880575"><ele>51.800000000000004</ele><time>2026-04-26T12:37:26Z</time></trkpt><trkpt lat="39.20112880010631" lon="16.06649993901289"><ele>49.0</ele><time>2026-04-26T12:37:27Z</time></trkpt><trkpt lat="39.20125187537194" lon="16.066505279754086"><ele>49.0</ele><time>2026-04-26T12:37:28Z</time></trkpt><trkpt lat="39.201383150153134" lon="16.06642807895019"><ele>49.0</ele><time>2026-04-26T12:37:29Z</time></trkpt><trkpt lat="39.20152107525195" lon="16.066449371444886"><ele>49.0</ele><time>2026-04-26T12:37:30Z</time></trkpt><trkpt lat="39.20166804382174" lon="16.06648626588325"><ele>49.0</ele><time>2026-04-26T12:37:31Z</time></trkpt><trkpt lat="39.20181803127956" lon="16.066508590804702"><ele>48.33333333333333</ele><time>2026-04-26T12:37:32Z</time></trkpt><trkpt lat="39.20196743684883" lon="16.06651673211127"><ele>47.666666666666664</ele><time>2026-04-26T12:37:33Z</time></trkpt><trkpt lat="39.20212020077171" lon="16.066466364626343"><ele>47.0</ele><time>2026-04-26T12:37:34Z</time></trkpt><trkpt lat="39.20227225243769" lon="16.066397359778716"><ele>47.25</ele><time>2026-04-26T12:37:35Z</time></trkpt><trkpt lat="39.2024133493394" lon="16.066369702552887"><ele>47.5</ele><time>2026-04-26T12:37:36Z</time></trkpt><trkpt lat="39.20253000615137" lon="16.06631826201246"><ele>47.75</ele><time>2026-04-26T12:37:37Z</time></trkpt><trkpt lat="39.20263772400949" lon="16.066298609456062"><ele>48.0</ele><time>2026-04-26T12:37:38Z</time></trkpt><trkpt lat="39.2027326825756" lon="16.066306381630312"><ele>48.0</ele><time>2026-04-26T12:37:39Z</time></trkpt><trkpt lat="39.20280226167587" lon="16.066391319435613"><ele>48.0</ele><time>2026-04-26T12:37:40Z</time></trkpt><trkpt lat="39.202905567031266" lon="16.066444820518257"><ele>48.0</ele><time>2026-04-26T12:37:41Z</time></trkpt><trkpt lat="39.20300702046153" lon="16.066500479879444"><ele>48.0</ele><time>2026-04-26T12:37:42Z</time></trkpt><trkpt lat="39.20313091461823" lon="16.066527194837832"><ele>48.0</ele><time>2026-04-26T12:37:43Z</time></trkpt><trkpt lat="39.2032468588255" lon="16.066562933365045"><ele>53.75</ele><time>2026-04-26T12:37:44Z</time></trkpt><trkpt lat="39.20334952269005" lon="16.066623856332747"><ele>59.5</ele><time>2026-04-26T12:37:45Z</time></trkpt><trkpt lat="39.20344524165631" lon="16.066711657208675"><ele>65.25</ele><time>2026-04-26T12:37:46Z</time></trkpt><trkpt lat="39.203546534947904" lon="16.06679184803122"><ele>71.0</ele><time>2026-04-26T12:37:47Z</time></trkpt><trkpt lat="39.20363950050457" lon="16.066878430255827"><ele>71.0</ele><time>2026-04-26T12:37:48Z</time></trkpt><trkpt lat="39.203744447140274" lon="16.06691687077791"><ele>71.0</ele><time>2026-04-26T12:37:49Z</time></trkpt><trkpt lat="39.203808078404464" lon="16.06708394049904"><ele>71.0</ele><time>2026-04-26T12:37:50Z</time></trkpt><trkpt lat="39.20389667627786" lon="16.067174729227954"><ele>71.0</ele><time>2026-04-26T12:37:51Z</time></trkpt><trkpt lat="39.203994961306634" lon="16.06723756865317"><ele>70.8</ele><time>2026-04-26T12:37:52Z</time></trkpt><trkpt lat="39.204084211985865" lon="16.067294043222926"><ele>70.6</ele><time>2026-04-26T12:37:53Z</time></trkpt><trkpt lat="39.204194414804114" lon="16.06725151882442"><ele>70.4</ele><time>2026-04-26T12:37:54Z</time></trkpt><trkpt lat="39.20427938853839" lon="16.06723571283586"><ele>70.2</ele><time>2026-04-26T12:37:55Z</time></trkpt><trkpt lat="39.20434122162871" lon="16.067205171477923"><ele>70.0</ele><time>2026-04-26T12:37:56Z</time></trkpt><trkpt lat="39.20439808013987" lon="16.06728596780324"><ele>70.0</ele><time>2026-04-26T12:37:59Z</time></trkpt><trkpt lat="39.20438626785169" lon="16.06720159879074"><ele>70.0</ele><time>2026-04-26T12:38:08Z</time></trkpt><trkpt lat="39.20419695232579" lon="16.067363974100243"><ele>70.0</ele><time>2026-04-26T12:38:11Z</time></trkpt><trkpt lat="39.20410928159402" lon="16.067372926405238"><ele>70.0</ele><time>2026-04-26T12:38:12Z</time></trkpt><trkpt lat="39.20401454162901" lon="16.067380036689425"><ele>70.25</ele><time>2026-04-26T12:38:13Z</time></trkpt><trkpt lat="39.20393340223712" lon="16.06738611759546"><ele>70.5</ele><time>2026-04-26T12:38:14Z</time></trkpt><trkpt lat="39.20386148501647" lon="16.067391507362064"><ele>70.75</ele><time>2026-04-26T12:38:15Z</time></trkpt><trkpt lat="39.2037701773827" lon="16.067400206405704"><ele>71.0</ele><time>2026-04-26T12:38:17Z</time></trkpt><trkpt lat="39.20368407555508" lon="16.067038359420362"><ele>71.0</ele><time>2026-04-26T12:38:19Z</time></trkpt><trkpt lat="39.20378055933181" lon="16.066875320876314"><ele>71.0</ele><time>2026-04-26T12:38:20Z</time></trkpt><trkpt lat="39.20384407948326" lon="16.066872333112357"><ele>71.0</ele><time>2026-04-26T12:38:21Z</time></trkpt><trkpt lat="39.20391856800176" lon="16.066860877539764"><ele>71.0</ele><time>2026-04-26T12:38:22Z</time></trkpt><trkpt lat="39.20400201049219" lon="16.066829819567268"><ele>71.0</ele><time>2026-04-26T12:38:23Z</time></trkpt><trkpt lat="39.2040963567689" lon="16.06678319855641"><ele>70.8</ele><time>2026-04-26T12:38:24Z</time></trkpt><trkpt lat="39.20419169209037" lon="16.066717725624773"><ele>70.6</ele><time>2026-04-26T12:38:25Z</time></trkpt><trkpt lat="39.20427577414846" lon="16.0666502832258"><ele>70.4</ele><time>2026-04-26T12:38:26Z</time></trkpt><trkpt lat="39.204374100340786" lon="16.06663179138912"><ele>70.2</ele><time>2026-04-26T12:38:27Z</time></trkpt><trkpt lat="39.204487264626955" lon="16.06665556930209"><ele>70.0</ele><time>2026-04-26T12:38:28Z</time></trkpt><trkpt lat="39.204586114942" lon="16.066700632709292"><ele>69.66666666666666</ele><time>2026-04-26T12:38:29Z</time></trkpt><trkpt lat="39.204734024074426" lon="16.066548925878493"><ele>69.33333333333333</ele><time>2026-04-26T12:38:30Z</time></trkpt><trkpt lat="39.20486345364603" lon="16.066751838559252"><ele>69.0</ele><time>2026-04-26T12:38:31Z</time></trkpt><trkpt lat="39.20500252197819" lon="16.066800033527983"><ele>69.0</ele><time>2026-04-26T12:38:32Z</time></trkpt><trkpt lat="39.20512511135847" lon="16.066841141497346"><ele>69.0</ele><time>2026-04-26T12:38:33Z</time></trkpt><trkpt lat="39.205238183445054" lon="16.06688163468447"><ele>69.0</ele><time>2026-04-26T12:38:34Z</time></trkpt><trkpt lat="39.20534104959979" lon="16.066909371737847"><ele>69.0</ele><time>2026-04-26T12:38:35Z</time></trkpt><trkpt lat="39.20544020884609" lon="16.066937802207175"><ele>69.0</ele><time>2026-04-26T12:38:36Z</time></trkpt><trkpt lat="39.20553654427854" lon="16.066941155844887"><ele>69.0</ele><time>2026-04-26T12:38:37Z</time></trkpt><trkpt lat="39.20563512765211" lon="16.066906891416927"><ele>69.0</ele><time>2026-04-26T12:38:38Z</time></trkpt><trkpt lat="39.20573487178626" lon="16.066858758123438"><ele>69.0</ele><time>2026-04-26T12:38:39Z</time></trkpt><trkpt lat="39.20582537205147" lon="16.066792267601937"><ele>69.0</ele><time>2026-04-26T12:38:40Z</time></trkpt><trkpt lat="39.205897977574935" lon="16.066680599739595"><ele>63.75</ele><time>2026-04-26T12:38:41Z</time></trkpt><trkpt lat="39.20595606595414" lon="16.06654066826049"><ele>58.5</ele><time>2026-04-26T12:38:42Z</time></trkpt><trkpt lat="39.20600729899917" lon="16.066409152428502"><ele>53.25</ele><time>2026-04-26T12:38:43Z</time></trkpt><trkpt lat="39.20605448819787" lon="16.0662776788794"><ele>48.0</ele><time>2026-04-26T12:38:44Z</time></trkpt><trkpt lat="39.206096499161006" lon="16.06615724484811"><ele>48.0</ele><time>2026-04-26T12:38:45Z</time></trkpt><trkpt lat="39.2061478780551" lon="16.066064405555444"><ele>48.0</ele><time>2026-04-26T12:38:46Z</time></trkpt><trkpt lat="39.20621348177365" lon="16.06601137981936"><ele>48.0</ele><time>2026-04-26T12:38:47Z</time></trkpt><trkpt lat="39.20630107943204" lon="16.065999322096392"><ele>48.0</ele><time>2026-04-26T12:38:48Z</time></trkpt><trkpt lat="39.206404245813516" lon="16.06597545413688"><ele>48.0</ele><time>2026-04-26T12:38:49Z</time></trkpt><trkpt lat="39.20652185419233" lon="16.06594496837855"><ele>49.75</ele><time>2026-04-26T12:38:50Z</time></trkpt><trkpt lat="39.2066446634713" lon="16.065892082164282"><ele>51.5</ele><time>2026-04-26T12:38:51Z</time></trkpt><trkpt lat="39.206769222142306" lon="16.065864828379105"><ele>53.25</ele><time>2026-04-26T12:38:52Z</time></trkpt><trkpt lat="39.2068938333178" lon="16.065817806435607"><ele>55.0</ele><time>2026-04-26T12:38:53Z</time></trkpt><trkpt lat="39.20700689295077" lon="16.065759142207316"><ele>49.0</ele><time>2026-04-26T12:38:54Z</time></trkpt><trkpt lat="39.20710352212119" lon="16.06567405176572"><ele>43.0</ele><time>2026-04-26T12:38:55Z</time></trkpt><trkpt lat="39.20720084892508" lon="16.065595093293652"><ele>37.0</ele><time>2026-04-26T12:38:56Z</time></trkpt><trkpt lat="39.20731245479946" lon="16.065572286887058"><ele>31.0</ele><time>2026-04-26T12:38:57Z</time></trkpt><trkpt lat="39.2074231754459" lon="16.065569132215803"><ele>31.0</ele><time>2026-04-26T12:38:58Z</time></trkpt><trkpt lat="39.20753113117981" lon="16.065592660661856"><ele>31.0</ele><time>2026-04-26T12:38:59Z</time></trkpt><trkpt lat="39.20765020754023" lon="16.06561100466507"><ele>31.0</ele><time>2026-04-26T12:39:00Z</time></trkpt><trkpt lat="39.207767427657956" lon="16.065612712540894"><ele>31.0</ele><time>2026-04-26T12:39:01Z</time></trkpt><trkpt lat="39.2078787463307" lon="16.065582960580684"><ele>31.0</ele><time>2026-04-26T12:39:02Z</time></trkpt><trkpt lat="39.207988838521146" lon="16.065580569518414"><ele>31.0</ele><time>2026-04-26T12:39:03Z</time></trkpt><trkpt lat="39.20808103463872" lon="16.065613012512767"><ele>31.0</ele><time>2026-04-26T12:39:04Z</time></trkpt><trkpt lat="39.2081623385298" lon="16.065684250511918"><ele>31.0</ele><time>2026-04-26T12:39:05Z</time></trkpt><trkpt lat="39.20825864477993" lon="16.065743140668133"><ele>31.0</ele><time>2026-04-26T12:39:06Z</time></trkpt><trkpt lat="39.20835796507587" lon="16.06579193103082"><ele>31.4</ele><time>2026-04-26T12:39:07Z</time></trkpt><trkpt lat="39.208466793914525" lon="16.065795206866802"><ele>31.8</ele><time>2026-04-26T12:39:08Z</time></trkpt><trkpt lat="39.20856904482038" lon="16.065739442911713"><ele>32.199999999999996</ele><time>2026-04-26T12:39:09Z</time></trkpt><trkpt lat="39.20865872681634" lon="16.065663807797943"><ele>32.6</ele><time>2026-04-26T12:39:10Z</time></trkpt><trkpt lat="39.20875109785621" lon="16.06559074139922"><ele>33.0</ele><time>2026-04-26T12:39:11Z</time></trkpt><trkpt lat="39.208846056820526" lon="16.06552686455833"><ele>33.0</ele><time>2026-04-26T12:39:12Z</time></trkpt><trkpt lat="39.20895720372111" lon="16.06548257157376"><ele>33.0</ele><time>2026-04-26T12:39:13Z</time></trkpt><trkpt lat="39.20907745448186" lon="16.06545542063047"><ele>33.0</ele><time>2026-04-26T12:39:14Z</time></trkpt><trkpt lat="39.20920237294989" lon="16.065441360464767"><ele>33.0</ele><time>2026-04-26T12:39:15Z</time></trkpt><trkpt lat="39.209327478688365" lon="16.065444160208667"><ele>33.0</ele><time>2026-04-26T12:39:16Z</time></trkpt><trkpt lat="39.20945936521676" lon="16.06545812932368"><ele>33.0</ele><time>2026-04-26T12:39:17Z</time></trkpt><trkpt lat="39.20959364565325" lon="16.065449280093326"><ele>33.0</ele><time>2026-04-26T12:39:18Z</time></trkpt><trkpt lat="39.20972534947452" lon="16.065472601760735"><ele>33.0</ele><time>2026-04-26T12:39:19Z</time></trkpt><trkpt lat="39.20984863942423" lon="16.065485154934716"><ele>33.0</ele><time>2026-04-26T12:39:20Z</time></trkpt><trkpt lat="39.20995730189979" lon="16.065495703172104"><ele>33.0</ele><time>2026-04-26T12:39:21Z</time></trkpt><trkpt lat="39.210067581965205" lon="16.065498878455266"><ele>33.0</ele><time>2026-04-26T12:39:22Z</time></trkpt><trkpt lat="39.21016512293522" lon="16.06553186767097"><ele>33.0</ele><time>2026-04-26T12:39:23Z</time></trkpt><trkpt lat="39.21026073379492" lon="16.065527517507036"><ele>33.0</ele><time>2026-04-26T12:39:24Z</time></trkpt><trkpt lat="39.210349362037626" lon="16.065562288173314"><ele>33.0</ele><time>2026-04-26T12:39:25Z</time></trkpt><trkpt lat="39.2104289860814" lon="16.06562878983248"><ele>33.0</ele><time>2026-04-26T12:39:26Z</time></trkpt><trkpt lat="39.21049750278618" lon="16.065726014332654"><ele>33.0</ele><time>2026-04-26T12:39:27Z</time></trkpt><trkpt lat="39.21055514195384" lon="16.065838002845258"><ele>33.0</ele><time>2026-04-26T12:39:28Z</time></trkpt><trkpt lat="39.21062924906765" lon="16.065927798886293"><ele>33.0</ele><time>2026-04-26T12:39:29Z</time></trkpt><trkpt lat="39.210726518318104" lon="16.065969614018762"><ele>32.333333333333336</ele><time>2026-04-26T12:39:30Z</time></trkpt><trkpt lat="39.210831763813964" lon="16.06597615490228"><ele>31.666666666666664</ele><time>2026-04-26T12:39:31Z</time></trkpt><trkpt lat="39.21092408335686" lon="16.065962456858436"><ele>31.0</ele><time>2026-04-26T12:39:32Z</time></trkpt><trkpt lat="39.21099070488842" lon="16.06589838817112"><ele>30.333333333333332</ele><time>2026-04-26T12:39:33Z</time></trkpt><trkpt lat="39.211032151104675" lon="16.06580752106732"><ele>29.666666666666664</ele><time>2026-04-26T12:39:34Z</time></trkpt><trkpt lat="39.21106376514994" lon="16.06573409658645"><ele>29.0</ele><time>2026-04-26T12:39:35Z</time></trkpt><trkpt lat="39.21115685242737" lon="16.065652936538807"><ele>29.0</ele><time>2026-04-26T12:39:37Z</time></trkpt><trkpt lat="39.21127302597172" lon="16.06554148998808"><ele>29.0</ele><time>2026-04-26T12:39:39Z</time></trkpt><trkpt lat="39.211369503444686" lon="16.065518679077158"><ele>29.0</ele><time>2026-04-26T12:39:40Z</time></trkpt><trkpt lat="39.211454734135664" lon="16.065458675040006"><ele>29.0</ele><time>2026-04-26T12:39:41Z</time></trkpt><trkpt lat="39.21155036911808" lon="16.06539303888075"><ele>29.0</ele><time>2026-04-26T12:39:42Z</time></trkpt><trkpt lat="39.21165058015591" lon="16.065328230876947"><ele>31.0</ele><time>2026-04-26T12:39:43Z</time></trkpt><trkpt lat="39.21175775688134" lon="16.065285128223483"><ele>33.0</ele><time>2026-04-26T12:39:44Z</time></trkpt><trkpt lat="39.21187678171293" lon="16.065279805965158"><ele>35.0</ele><time>2026-04-26T12:39:45Z</time></trkpt><trkpt lat="39.21198884475478" lon="16.06523362127089"><ele>37.0</ele><time>2026-04-26T12:39:46Z</time></trkpt><trkpt lat="39.21210223954908" lon="16.065232617652292"><ele>37.0</ele><time>2026-04-26T12:39:47Z</time></trkpt><trkpt lat="39.212215933460904" lon="16.06523293805721"><ele>37.0</ele><time>2026-04-26T12:39:48Z</time></trkpt><trkpt lat="39.21233025585439" lon="16.065232621005674"><ele>37.0</ele><time>2026-04-26T12:39:49Z</time></trkpt><trkpt lat="39.21244436478103" lon="16.065268388546"><ele>37.0</ele><time>2026-04-26T12:39:50Z</time></trkpt><trkpt lat="39.21255703459774" lon="16.065292088563105"><ele>39.0</ele><time>2026-04-26T12:39:51Z</time></trkpt><trkpt lat="39.21267300275859" lon="16.065271521299284"><ele>41.0</ele><time>2026-04-26T12:39:52Z</time></trkpt><trkpt lat="39.2127904319394" lon="16.065226180181583"><ele>43.0</ele><time>2026-04-26T12:39:53Z</time></trkpt><trkpt lat="39.21290267329051" lon="16.065181840331135"><ele>45.0</ele><time>2026-04-26T12:39:54Z</time></trkpt><trkpt lat="39.21300999371659" lon="16.065168511917413"><ele>45.0</ele><time>2026-04-26T12:39:55Z</time></trkpt><trkpt lat="39.21310082472139" lon="16.065236406568744"><ele>45.0</ele><time>2026-04-26T12:39:56Z</time></trkpt><trkpt lat="39.21318637555967" lon="16.06531397365632"><ele>45.0</ele><time>2026-04-26T12:39:57Z</time></trkpt><trkpt lat="39.213288998615766" lon="16.065393975844596"><ele>45.0</ele><time>2026-04-26T12:39:58Z</time></trkpt><trkpt lat="39.21339286456402" lon="16.065445940372626"><ele>45.0</ele><time>2026-04-26T12:39:59Z</time></trkpt><trkpt lat="39.21349033018411" lon="16.065488329243948"><ele>44.8</ele><time>2026-04-26T12:40:00Z</time></trkpt><trkpt lat="39.213587922273845" lon="16.065498357582655"><ele>44.6</ele><time>2026-04-26T12:40:01Z</time></trkpt><trkpt lat="39.2137063444519" lon="16.06549398772057"><ele>44.400000000000006</ele><time>2026-04-26T12:40:02Z</time></trkpt><trkpt lat="39.213824451823285" lon="16.065522899634317"><ele>44.2</ele><time>2026-04-26T12:40:03Z</time></trkpt><trkpt lat="39.21393659052679" lon="16.065529489094484"><ele>44.0</ele><time>2026-04-26T12:40:04Z</time></trkpt><trkpt lat="39.21404287611049" lon="16.06551202593739"><ele>44.0</ele><time>2026-04-26T12:40:05Z</time></trkpt><trkpt lat="39.21413131934019" lon="16.065483059007782"><ele>44.0</ele><time>2026-04-26T12:40:06Z</time></trkpt><trkpt lat="39.214209990586966" lon="16.065423501734504"><ele>44.0</ele><time>2026-04-26T12:40:07Z</time></trkpt><trkpt lat="39.214282940604726" lon="16.065342334376663"><ele>44.0</ele><time>2026-04-26T12:40:08Z</time></trkpt><trkpt lat="39.21435224873912" lon="16.065244507910702"><ele>44.0</ele><time>2026-04-26T12:40:09Z</time></trkpt><trkpt lat="39.21441512421935" lon="16.06513379665064"><ele>44.0</ele><time>2026-04-26T12:40:10Z</time></trkpt><trkpt lat="39.21448193996496" lon="16.065015364111517"><ele>44.0</ele><time>2026-04-26T12:40:11Z</time></trkpt><trkpt lat="39.2145478973701" lon="16.064906080772833"><ele>44.0</ele><time>2026-04-26T12:40:12Z</time></trkpt><trkpt lat="39.21462166308071" lon="16.064809530530095"><ele>44.0</ele><time>2026-04-26T12:40:13Z</time></trkpt><trkpt lat="39.214698943281526" lon="16.064724624371994"><ele>44.0</ele><time>2026-04-26T12:40:14Z</time></trkpt><trkpt lat="39.21476850772038" lon="16.064658205910288"><ele>42.800000000000004</ele><time>2026-04-26T12:40:15Z</time></trkpt><trkpt lat="39.21484752686174" lon="16.06460428090577"><ele>41.6</ele><time>2026-04-26T12:40:16Z</time></trkpt><trkpt lat="39.214945448563284" lon="16.064562990019258"><ele>40.4</ele><time>2026-04-26T12:40:17Z</time></trkpt><trkpt lat="39.215058102287024" lon="16.064512758158358"><ele>39.2</ele><time>2026-04-26T12:40:18Z</time></trkpt><trkpt lat="39.21517159906772" lon="16.06445469951811"><ele>38.0</ele><time>2026-04-26T12:40:19Z</time></trkpt><trkpt lat="39.21529116191449" lon="16.06439331259233"><ele>38.0</ele><time>2026-04-26T12:40:20Z</time></trkpt><trkpt lat="39.21541238672089" lon="16.064328602633534"><ele>38.0</ele><time>2026-04-26T12:40:21Z</time></trkpt><trkpt lat="39.21553893317408" lon="16.064276229437663"><ele>38.0</ele><time>2026-04-26T12:40:22Z</time></trkpt><trkpt lat="39.215675214674356" lon="16.064247772631255"><ele>38.0</ele><time>2026-04-26T12:40:23Z</time></trkpt><trkpt lat="39.21580641104165" lon="16.064229446290746"><ele>39.4</ele><time>2026-04-26T12:40:24Z</time></trkpt><trkpt lat="39.21593055450374" lon="16.064216529400323"><ele>40.8</ele><time>2026-04-26T12:40:25Z</time></trkpt><trkpt lat="39.21603987379133" lon="16.064229800734797"><ele>42.2</ele><time>2026-04-26T12:40:26Z</time></trkpt><trkpt lat="39.21614425409346" lon="16.064259045362792"><ele>43.6</ele><time>2026-04-26T12:40:27Z</time></trkpt><trkpt lat="39.2162446529277" lon="16.06431114063786"><ele>45.0</ele><time>2026-04-26T12:40:28Z</time></trkpt><trkpt lat="39.216355267288044" lon="16.064364665250014"><ele>45.0</ele><time>2026-04-26T12:40:29Z</time></trkpt><trkpt lat="39.21647461659259" lon="16.064401047553122"><ele>45.0</ele><time>2026-04-26T12:40:30Z</time></trkpt><trkpt lat="39.21659291448651" lon="16.06444289770441"><ele>45.0</ele><time>2026-04-26T12:40:31Z</time></trkpt><trkpt lat="39.21671682519466" lon="16.06444689521881"><ele>45.0</ele><time>2026-04-26T12:40:32Z</time></trkpt><trkpt lat="39.2168287039591" lon="16.064418839179357"><ele>43.6</ele><time>2026-04-26T12:40:33Z</time></trkpt><trkpt lat="39.216928104005" lon="16.064432620867763"><ele>42.2</ele><time>2026-04-26T12:40:34Z</time></trkpt><trkpt lat="39.21700505521634" lon="16.064460019318688"><ele>40.8</ele><time>2026-04-26T12:40:35Z</time></trkpt><trkpt lat="39.217085130131196" lon="16.064501094849685"><ele>39.4</ele><time>2026-04-26T12:40:36Z</time></trkpt><trkpt lat="39.2171520381394" lon="16.06458687778455"><ele>38.0</ele><time>2026-04-26T12:40:37Z</time></trkpt><trkpt lat="39.21722035754155" lon="16.06467398983804"><ele>38.0</ele><time>2026-04-26T12:40:38Z</time></trkpt><trkpt lat="39.217307541713616" lon="16.06473887183369"><ele>38.0</ele><time>2026-04-26T12:40:39Z</time></trkpt><trkpt lat="39.21741329482967" lon="16.064772004666384"><ele>38.0</ele><time>2026-04-26T12:40:40Z</time></trkpt><trkpt lat="39.217526938923335" lon="16.064793345489043"><ele>38.0</ele><time>2026-04-26T12:40:41Z</time></trkpt><trkpt lat="39.21763974594578" lon="16.064825279802672"><ele>38.0</ele><time>2026-04-26T12:40:42Z</time></trkpt><trkpt lat="39.21775133486627" lon="16.064860600630443"><ele>36.0</ele><time>2026-04-26T12:40:43Z</time></trkpt><trkpt lat="39.21785679263747" lon="16.064897173994122"><ele>34.0</ele><time>2026-04-26T12:40:44Z</time></trkpt><trkpt lat="39.217938902125766" lon="16.06496146467833"><ele>32.0</ele><time>2026-04-26T12:40:45Z</time></trkpt><trkpt lat="39.21801468304469" lon="16.065013071531023"><ele>30.0</ele><time>2026-04-26T12:40:46Z</time></trkpt><trkpt lat="39.21803583426452" lon="16.06512193198285"><ele>27.999999999999996</ele><time>2026-04-26T12:40:47Z</time></trkpt><trkpt lat="39.21807224566176" lon="16.065192904074713"><ele>26.0</ele><time>2026-04-26T12:40:48Z</time></trkpt><trkpt lat="39.21811856508847" lon="16.065251585490664"><ele>30.0</ele><time>2026-04-26T12:40:49Z</time></trkpt><trkpt lat="39.218199155424905" lon="16.06526361993067"><ele>34.0</ele><time>2026-04-26T12:40:50Z</time></trkpt><trkpt lat="39.21828755036441" lon="16.06523197654278"><ele>38.0</ele><time>2026-04-26T12:40:51Z</time></trkpt><trkpt lat="39.21837145248259" lon="16.065158010639763"><ele>42.0</ele><time>2026-04-26T12:40:52Z</time></trkpt><trkpt lat="39.21845044119433" lon="16.065057417451367"><ele>46.0</ele><time>2026-04-26T12:40:53Z</time></trkpt><trkpt lat="39.2185356528474" lon="16.064960400293106"><ele>47.75</ele><time>2026-04-26T12:40:54Z</time></trkpt><trkpt lat="39.218640337331834" lon="16.064902825595546"><ele>49.5</ele><time>2026-04-26T12:40:55Z</time></trkpt><trkpt lat="39.218752381581346" lon="16.064879579381348"><ele>51.25</ele><time>2026-04-26T12:40:56Z</time></trkpt><trkpt lat="39.21886763694932" lon="16.06493026278883"><ele>53.0</ele><time>2026-04-26T12:40:57Z</time></trkpt><trkpt lat="39.218991352837" lon="16.064964439411884"><ele>53.0</ele><time>2026-04-26T12:40:58Z</time></trkpt><trkpt lat="39.219126172098385" lon="16.064986306108242"><ele>53.0</ele><time>2026-04-26T12:40:59Z</time></trkpt><trkpt lat="39.21925145329758" lon="16.065037085828514"><ele>53.0</ele><time>2026-04-26T12:41:00Z</time></trkpt><trkpt lat="39.21938126322258" lon="16.06507100041343"><ele>53.0</ele><time>2026-04-26T12:41:01Z</time></trkpt><trkpt lat="39.21949288978459" lon="16.065101076585236"><ele>53.0</ele><time>2026-04-26T12:41:02Z</time></trkpt><trkpt lat="39.219612708335355" lon="16.065114242854428"><ele>53.0</ele><time>2026-04-26T12:41:03Z</time></trkpt><trkpt lat="39.21973750598539" lon="16.065034458323122"><ele>53.0</ele><time>2026-04-26T12:41:04Z</time></trkpt><trkpt lat="39.219842479144276" lon="16.064964778280434"><ele>53.0</ele><time>2026-04-26T12:41:05Z</time></trkpt><trkpt lat="39.21994200941985" lon="16.064933071461645"><ele>53.25</ele><time>2026-04-26T12:41:06Z</time></trkpt><trkpt lat="39.22004697173848" lon="16.06495581198612"><ele>53.5</ele><time>2026-04-26T12:41:07Z</time></trkpt><trkpt lat="39.220165690069514" lon="16.06501404225895"><ele>53.75</ele><time>2026-04-26T12:41:08Z</time></trkpt><trkpt lat="39.22029239870325" lon="16.06507013995452"><ele>54.0</ele><time>2026-04-26T12:41:09Z</time></trkpt><trkpt lat="39.22041340084297" lon="16.065115990558603"><ele>54.0</ele><time>2026-04-26T12:41:10Z</time></trkpt><trkpt lat="39.22050159363779" lon="16.065185529743143"><ele>54.00000000000001</ele><time>2026-04-26T12:41:11Z</time></trkpt><trkpt lat="39.22058953742961" lon="16.0652545114291"><ele>54.00000000000001</ele><time>2026-04-26T12:41:12Z</time></trkpt><trkpt lat="39.22065974291992" lon="16.065355234468164"><ele>54.0</ele><time>2026-04-26T12:41:13Z</time></trkpt><trkpt lat="39.22073124524141" lon="16.06545138541828"><ele>54.0</ele><time>2026-04-26T12:41:14Z</time></trkpt><trkpt lat="39.22082753659266" lon="16.065500348092232"><ele>51.5</ele><time>2026-04-26T12:41:15Z</time></trkpt><trkpt lat="39.22093512357438" lon="16.06548808098088"><ele>49.0</ele><time>2026-04-26T12:41:16Z</time></trkpt><trkpt lat="39.221052120474" lon="16.06545040334212"><ele>46.5</ele><time>2026-04-26T12:41:17Z</time></trkpt><trkpt lat="39.221188586203375" lon="16.065433561716894"><ele>44.0</ele><time>2026-04-26T12:41:18Z</time></trkpt><trkpt lat="39.22132386415817" lon="16.06540664718715"><ele>44.0</ele><time>2026-04-26T12:41:19Z</time></trkpt><trkpt lat="39.22145909687229" lon="16.065380073994948"><ele>44.0</ele><time>2026-04-26T12:41:20Z</time></trkpt><trkpt lat="39.22160894995718" lon="16.065352236456885"><ele>44.0</ele><time>2026-04-26T12:41:21Z</time></trkpt><trkpt lat="39.221723249412015" lon="16.06531637312442"><ele>44.0</ele><time>2026-04-26T12:41:22Z</time></trkpt><trkpt lat="39.22184267445257" lon="16.065287722201305"><ele>43.400000000000006</ele><time>2026-04-26T12:41:23Z</time></trkpt><trkpt lat="39.22194594435805" lon="16.065230833917898"><ele>42.8</ele><time>2026-04-26T12:41:24Z</time></trkpt><trkpt lat="39.222025519288906" lon="16.06514478835266"><ele>42.2</ele><time>2026-04-26T12:41:25Z</time></trkpt><trkpt lat="39.22208670586038" lon="16.065063032772397"><ele>41.599999999999994</ele><time>2026-04-26T12:41:26Z</time></trkpt><trkpt lat="39.22214987141716" lon="16.065000084750697"><ele>41.0</ele><time>2026-04-26T12:41:27Z</time></trkpt><trkpt lat="39.22224153854447" lon="16.06500853598732"><ele>42.75</ele><time>2026-04-26T12:41:28Z</time></trkpt><trkpt lat="39.222340265583505" lon="16.064984954462687"><ele>44.5</ele><time>2026-04-26T12:41:29Z</time></trkpt><trkpt lat="39.22245567214323" lon="16.064957388931834"><ele>46.25</ele><time>2026-04-26T12:41:30Z</time></trkpt><trkpt lat="39.22257885979365" lon="16.064922270637677"><ele>48.0</ele><time>2026-04-26T12:41:31Z</time></trkpt><trkpt lat="39.22270248806023" lon="16.06486411595882"><ele>42.0</ele><time>2026-04-26T12:41:32Z</time></trkpt><trkpt lat="39.22282155374036" lon="16.06481216409471"><ele>36.0</ele><time>2026-04-26T12:41:33Z</time></trkpt><trkpt lat="39.22295037357265" lon="16.064821408717847"><ele>30.0</ele><time>2026-04-26T12:41:34Z</time></trkpt><trkpt lat="39.223090660200164" lon="16.064818070930315"><ele>24.0</ele><time>2026-04-26T12:41:35Z</time></trkpt><trkpt lat="39.22323516703406" lon="16.06481291261235"><ele>24.0</ele><time>2026-04-26T12:41:36Z</time></trkpt><trkpt lat="39.22338755834154" lon="16.06479947057455"><ele>24.0</ele><time>2026-04-26T12:41:37Z</time></trkpt><trkpt lat="39.22353162433174" lon="16.064763748173213"><ele>24.0</ele><time>2026-04-26T12:41:38Z</time></trkpt><trkpt lat="39.22367822671203" lon="16.06475828320633"><ele>24.0</ele><time>2026-04-26T12:41:39Z</time></trkpt><trkpt lat="39.223829397008544" lon="16.064747960903283"><ele>24.0</ele><time>2026-04-26T12:41:40Z</time></trkpt><trkpt lat="39.223976283844344" lon="16.064734156657657"><ele>24.0</ele><time>2026-04-26T12:41:41Z</time></trkpt><trkpt lat="39.224122545044104" lon="16.064708143357112"><ele>24.0</ele><time>2026-04-26T12:41:42Z</time></trkpt><trkpt lat="39.22426978959931" lon="16.064680143844704"><ele>24.0</ele><time>2026-04-26T12:41:43Z</time></trkpt><trkpt lat="39.22442133379446" lon="16.06465836761409"><ele>24.0</ele><time>2026-04-26T12:41:44Z</time></trkpt><trkpt lat="39.22457195744095" lon="16.06466145402028"><ele>24.0</ele><time>2026-04-26T12:41:45Z</time></trkpt><trkpt lat="39.22471903857245" lon="16.064674847293926"><ele>24.0</ele><time>2026-04-26T12:41:46Z</time></trkpt><trkpt lat="39.224868261815914" lon="16.06466788641732"><ele>24.0</ele><time>2026-04-26T12:41:47Z</time></trkpt><trkpt lat="39.2250173893154" lon="16.064629842830197"><ele>24.666666666666664</ele><time>2026-04-26T12:41:48Z</time></trkpt><trkpt lat="39.22516487830621" lon="16.064583187145736"><ele>25.333333333333332</ele><time>2026-04-26T12:41:49Z</time></trkpt><trkpt lat="39.225310046119915" lon="16.064530432202552"><ele>26.0</ele><time>2026-04-26T12:41:50Z</time></trkpt><trkpt lat="39.22545197545866" lon="16.064470933102513"><ele>26.0</ele><time>2026-04-26T12:41:51Z</time></trkpt><trkpt lat="39.22558611770616" lon="16.064394516864976"><ele>26.0</ele><time>2026-04-26T12:41:52Z</time></trkpt><trkpt lat="39.22571298419642" lon="16.06432692550013"><ele>26.0</ele><time>2026-04-26T12:41:53Z</time></trkpt><trkpt lat="39.22582426294275" lon="16.064273918636523"><ele>26.0</ele><time>2026-04-26T12:41:54Z</time></trkpt><trkpt lat="39.22592918887223" lon="16.064273064758233"><ele>27.6</ele><time>2026-04-26T12:41:55Z</time></trkpt><trkpt lat="39.22601961598043" lon="16.064212296909396"><ele>29.200000000000003</ele><time>2026-04-26T12:41:56Z</time></trkpt><trkpt lat="39.226122325252355" lon="16.06419909399319"><ele>30.799999999999997</ele><time>2026-04-26T12:41:57Z</time></trkpt><trkpt lat="39.22622572176543" lon="16.064187303140752"><ele>32.4</ele><time>2026-04-26T12:41:58Z</time></trkpt><trkpt lat="39.226334754486615" lon="16.064246743761238"><ele>34.0</ele><time>2026-04-26T12:41:59Z</time></trkpt><trkpt lat="39.22644939716741" lon="16.06422442776152"><ele>35.2</ele><time>2026-04-26T12:42:00Z</time></trkpt><trkpt lat="39.226564301513044" lon="16.064203659280746"><ele>36.4</ele><time>2026-04-26T12:42:01Z</time></trkpt><trkpt lat="39.22667529192425" lon="16.064183881819687"><ele>37.6</ele><time>2026-04-26T12:42:02Z</time></trkpt><trkpt lat="39.22677769775428" lon="16.06420026125357"><ele>38.8</ele><time>2026-04-26T12:42:03Z</time></trkpt><trkpt lat="39.22687357019652" lon="16.064209898683274"><ele>40.0</ele><time>2026-04-26T12:42:04Z</time></trkpt><trkpt lat="39.22696204310723" lon="16.064226951455396"><ele>40.0</ele><time>2026-04-26T12:42:05Z</time></trkpt><trkpt lat="39.22704490466728" lon="16.06423034070671"><ele>40.0</ele><time>2026-04-26T12:42:06Z</time></trkpt><trkpt lat="39.227126242637105" lon="16.064250065195036"><ele>40.0</ele><time>2026-04-26T12:42:07Z</time></trkpt><trkpt lat="39.227217895619745" lon="16.06426632378602"><ele>40.0</ele><time>2026-04-26T12:42:08Z</time></trkpt><trkpt lat="39.227315991573406" lon="16.064238952784518"><ele>40.0</ele><time>2026-04-26T12:42:09Z</time></trkpt><trkpt lat="39.227419136877174" lon="16.064238363871937"><ele>40.2</ele><time>2026-04-26T12:42:10Z</time></trkpt><trkpt lat="39.22751348868452" lon="16.06428306978602"><ele>40.4</ele><time>2026-04-26T12:42:11Z</time></trkpt><trkpt lat="39.227616312837675" lon="16.064310895034083"><ele>40.599999999999994</ele><time>2026-04-26T12:42:12Z</time></trkpt><trkpt lat="39.227715821546255" lon="16.064329520380138"><ele>40.8</ele><time>2026-04-26T12:42:13Z</time></trkpt><trkpt lat="39.22780325969097" lon="16.06436260664252"><ele>41.0</ele><time>2026-04-26T12:42:14Z</time></trkpt><trkpt lat="39.22789010395008" lon="16.064351841871723"><ele>41.0</ele><time>2026-04-26T12:42:15Z</time></trkpt><trkpt lat="39.2279820706688" lon="16.064312010519107"><ele>41.0</ele><time>2026-04-26T12:42:16Z</time></trkpt><trkpt lat="39.22808394670073" lon="16.064275243530286"><ele>41.0</ele><time>2026-04-26T12:42:17Z</time></trkpt><trkpt lat="39.22819406070736" lon="16.064239882972526"><ele>41.0</ele><time>2026-04-26T12:42:18Z</time></trkpt><trkpt lat="39.228310010674214" lon="16.064220795836356"><ele>41.0</ele><time>2026-04-26T12:42:19Z</time></trkpt><trkpt lat="39.22842372525151" lon="16.064193198733033"><ele>41.4</ele><time>2026-04-26T12:42:20Z</time></trkpt><trkpt lat="39.22853012812874" lon="16.06417075736791"><ele>41.8</ele><time>2026-04-26T12:42:21Z</time></trkpt><trkpt lat="39.22862434502959" lon="16.06414961113106"><ele>42.199999999999996</ele><time>2026-04-26T12:42:22Z</time></trkpt><trkpt lat="39.228711666465884" lon="16.06414318358137"><ele>42.599999999999994</ele><time>2026-04-26T12:42:23Z</time></trkpt><trkpt lat="39.22879487307364" lon="16.064175299841484"><ele>43.0</ele><time>2026-04-26T12:42:24Z</time></trkpt><trkpt lat="39.228871057165684" lon="16.064219953386644"><ele>43.0</ele><time>2026-04-26T12:42:25Z</time></trkpt><trkpt lat="39.228951218341386" lon="16.064258866454303"><ele>43.0</ele><time>2026-04-26T12:42:26Z</time></trkpt><trkpt lat="39.229037356220374" lon="16.064289348654622"><ele>43.0</ele><time>2026-04-26T12:42:27Z</time></trkpt><trkpt lat="39.229130974134755" lon="16.0643065732104"><ele>43.0</ele><time>2026-04-26T12:42:28Z</time></trkpt><trkpt lat="39.22923072211793" lon="16.064299395313583"><ele>43.0</ele><time>2026-04-26T12:42:29Z</time></trkpt><trkpt lat="39.2293380659575" lon="16.064276796935683"><ele>40.25</ele><time>2026-04-26T12:42:30Z</time></trkpt><trkpt lat="39.22945078251594" lon="16.06425987892111"><ele>37.5</ele><time>2026-04-26T12:42:31Z</time></trkpt><trkpt lat="39.22956517765293" lon="16.064261104443922"><ele>34.75</ele><time>2026-04-26T12:42:32Z</time></trkpt><trkpt lat="39.229681575058756" lon="16.06426592989313"><ele>32.0</ele><time>2026-04-26T12:42:33Z</time></trkpt><trkpt lat="39.22980153429192" lon="16.064281346353727"><ele>32.0</ele><time>2026-04-26T12:42:34Z</time></trkpt><trkpt lat="39.229920089339444" lon="16.06430509152692"><ele>32.0</ele><time>2026-04-26T12:42:35Z</time></trkpt><trkpt lat="39.23004224096567" lon="16.064321603310624"><ele>32.0</ele><time>2026-04-26T12:42:36Z</time></trkpt><trkpt lat="39.230165755435486" lon="16.0643355183733"><ele>32.0</ele><time>2026-04-26T12:42:37Z</time></trkpt><trkpt lat="39.23029186558698" lon="16.0643391045316"><ele>32.0</ele><time>2026-04-26T12:42:38Z</time></trkpt><trkpt lat="39.23042090832292" lon="16.06434514281867"><ele>32.0</ele><time>2026-04-26T12:42:39Z</time></trkpt><trkpt lat="39.23054832079479" lon="16.0643451905225"><ele>32.0</ele><time>2026-04-26T12:42:40Z</time></trkpt><trkpt lat="39.230675602869496" lon="16.064339564408158"><ele>32.0</ele><time>2026-04-26T12:42:41Z</time></trkpt><trkpt lat="39.2308031429252" lon="16.064333182031945"><ele>31.75</ele><time>2026-04-26T12:42:42Z</time></trkpt><trkpt lat="39.23092162446153" lon="16.06432846439423"><ele>31.5</ele><time>2026-04-26T12:42:43Z</time></trkpt><trkpt lat="39.231039640095645" lon="16.064323894081195"><ele>31.25</ele><time>2026-04-26T12:42:44Z</time></trkpt><trkpt lat="39.23115528814398" lon="16.064318662777552"><ele>31.0</ele><time>2026-04-26T12:42:45Z</time></trkpt><trkpt lat="39.23127119496532" lon="16.064325758275697"><ele>31.000000000000004</ele><time>2026-04-26T12:42:46Z</time></trkpt><trkpt lat="39.23137719940709" lon="16.064332384173678"><ele>31.0</ele><time>2026-04-26T12:42:47Z</time></trkpt><trkpt lat="39.231476109288295" lon="16.064336952377463"><ele>31.0</ele><time>2026-04-26T12:42:48Z</time></trkpt><trkpt lat="39.23156192107067" lon="16.06433369358023"><ele>31.0</ele><time>2026-04-26T12:42:49Z</time></trkpt><trkpt lat="39.23162935562394" lon="16.064308365218594"><ele>31.000000000000004</ele><time>2026-04-26T12:42:50Z</time></trkpt><trkpt lat="39.23168840808045" lon="16.06427248001418"><ele>31.0</ele><time>2026-04-26T12:42:51Z</time></trkpt><trkpt lat="39.23171966972937" lon="16.064173701364577"><ele>28.0</ele><time>2026-04-26T12:42:52Z</time></trkpt><trkpt lat="39.23176055271539" lon="16.064088063805332"><ele>25.0</ele><time>2026-04-26T12:42:53Z</time></trkpt><trkpt lat="39.231829604837046" lon="16.064023861316002"><ele>22.0</ele><time>2026-04-26T12:42:54Z</time></trkpt><trkpt lat="39.231919167176706" lon="16.063978951607094"><ele>19.0</ele><time>2026-04-26T12:42:55Z</time></trkpt><trkpt lat="39.23202772041687" lon="16.063961144939068"><ele>16.0</ele><time>2026-04-26T12:42:56Z</time></trkpt><trkpt lat="39.23214751739195" lon="16.063944371052077"><ele>16.0</ele><time>2026-04-26T12:42:57Z</time></trkpt><trkpt lat="39.232278791482315" lon="16.063924584441867"><ele>16.0</ele><time>2026-04-26T12:42:58Z</time></trkpt><trkpt lat="39.23241675395714" lon="16.063906573234007"><ele>16.0</ele><time>2026-04-26T12:42:59Z</time></trkpt><trkpt lat="39.23256002529902" lon="16.063888334378593"><ele>16.0</ele><time>2026-04-26T12:43:00Z</time></trkpt><trkpt lat="39.232713502477296" lon="16.063871902097645"><ele>16.666666666666664</ele><time>2026-04-26T12:43:01Z</time></trkpt><trkpt lat="39.23287079841299" lon="16.063844149887174"><ele>17.333333333333332</ele><time>2026-04-26T12:43:02Z</time></trkpt><trkpt lat="39.23303383657266" lon="16.06381652093843"><ele>18.0</ele><time>2026-04-26T12:43:03Z</time></trkpt><trkpt lat="39.23320043824382" lon="16.063792840890503"><ele>19.333333333333332</ele><time>2026-04-26T12:43:04Z</time></trkpt><trkpt lat="39.23337792039321" lon="16.06377326551264"><ele>20.666666666666664</ele><time>2026-04-26T12:43:05Z</time></trkpt><trkpt lat="39.23355327999924" lon="16.063750164804098"><ele>22.0</ele><time>2026-04-26T12:43:06Z</time></trkpt><trkpt lat="39.2337255155141" lon="16.063720123766746"><ele>22.0</ele><time>2026-04-26T12:43:07Z</time></trkpt><trkpt lat="39.233892310991195" lon="16.063693358326592"><ele>22.0</ele><time>2026-04-26T12:43:08Z</time></trkpt><trkpt lat="39.234035059385434" lon="16.063662421490676"><ele>22.0</ele><time>2026-04-26T12:43:09Z</time></trkpt><trkpt lat="39.23417064202004" lon="16.063648903045557"><ele>22.0</ele><time>2026-04-26T12:43:10Z</time></trkpt><trkpt lat="39.23433056988645" lon="16.063582579253964"><ele>22.75</ele><time>2026-04-26T12:43:11Z</time></trkpt><trkpt lat="39.23446507624209" lon="16.06351198221711"><ele>23.5</ele><time>2026-04-26T12:43:12Z</time></trkpt><trkpt lat="39.234588124965896" lon="16.063421931008687"><ele>24.25</ele><time>2026-04-26T12:43:13Z</time></trkpt><trkpt lat="39.23469384107741" lon="16.063324779085466"><ele>25.0</ele><time>2026-04-26T12:43:14Z</time></trkpt><trkpt lat="39.234779077776174" lon="16.063206956878865"><ele>22.8</ele><time>2026-04-26T12:43:15Z</time></trkpt><trkpt lat="39.23482276897772" lon="16.063063125246863"><ele>20.6</ele><time>2026-04-26T12:43:16Z</time></trkpt><trkpt lat="39.234881858686265" lon="16.062943271376568"><ele>18.4</ele><time>2026-04-26T12:43:17Z</time></trkpt><trkpt lat="39.234927528404185" lon="16.062829259728762"><ele>16.2</ele><time>2026-04-26T12:43:18Z</time></trkpt><trkpt lat="39.23501590807962" lon="16.06281946856499"><ele>14.0</ele><time>2026-04-26T12:43:19Z</time></trkpt><trkpt lat="39.235112009067755" lon="16.06280804582452"><ele>14.0</ele><time>2026-04-26T12:43:20Z</time></trkpt><trkpt lat="39.23522781038461" lon="16.062781189867856"><ele>14.0</ele><time>2026-04-26T12:43:21Z</time></trkpt><trkpt lat="39.23534971145166" lon="16.062751025907282"><ele>14.0</ele><time>2026-04-26T12:43:22Z</time></trkpt><trkpt lat="39.23546405280452" lon="16.062722438713656"><ele>14.0</ele><time>2026-04-26T12:43:23Z</time></trkpt><trkpt lat="39.23557824196158" lon="16.062716859078176"><ele>14.0</ele><time>2026-04-26T12:43:24Z</time></trkpt><trkpt lat="39.23569786391325" lon="16.06272730575768"><ele>14.0</ele><time>2026-04-26T12:43:25Z</time></trkpt><trkpt lat="39.23581578943193" lon="16.06275298796882"><ele>14.0</ele><time>2026-04-26T12:43:26Z</time></trkpt><trkpt lat="39.23594088621547" lon="16.06278410543283"><ele>14.0</ele><time>2026-04-26T12:43:27Z</time></trkpt><trkpt lat="39.23607025530005" lon="16.062794836985006"><ele>14.0</ele><time>2026-04-26T12:43:28Z</time></trkpt><trkpt lat="39.23619962549566" lon="16.062823328343878"><ele>14.0</ele><time>2026-04-26T12:43:29Z</time></trkpt><trkpt lat="39.23633472151561" lon="16.0628613597771"><ele>14.0</ele><time>2026-04-26T12:43:30Z</time></trkpt><trkpt lat="39.23647369483153" lon="16.062899594019207"><ele>14.0</ele><time>2026-04-26T12:43:31Z</time></trkpt><trkpt lat="39.236610368256436" lon="16.062947934120125"><ele>13.0</ele><time>2026-04-26T12:43:32Z</time></trkpt><trkpt lat="39.23674251626916" lon="16.062998003650524"><ele>12.0</ele><time>2026-04-26T12:43:33Z</time></trkpt><trkpt lat="39.23687894092505" lon="16.063046057849654"><ele>11.0</ele><time>2026-04-26T12:43:34Z</time></trkpt><trkpt lat="39.23701379865432" lon="16.063094329119835"><ele>10.0</ele><time>2026-04-26T12:43:35Z</time></trkpt><trkpt lat="39.23715451594717" lon="16.063111826356288"><ele>10.0</ele><time>2026-04-26T12:43:36Z</time></trkpt><trkpt lat="39.237296466461586" lon="16.063115162069604"><ele>10.0</ele><time>2026-04-26T12:43:37Z</time></trkpt><trkpt lat="39.23743376053936" lon="16.063131434074396"><ele>10.0</ele><time>2026-04-26T12:43:38Z</time></trkpt><trkpt lat="39.23756611041684" lon="16.06318533611869"><ele>10.0</ele><time>2026-04-26T12:43:39Z</time></trkpt><trkpt lat="39.23769829821741" lon="16.063255403021202"><ele>16.25</ele><time>2026-04-26T12:43:40Z</time></trkpt><trkpt lat="39.237833323271346" lon="16.063326246436958"><ele>22.5</ele><time>2026-04-26T12:43:41Z</time></trkpt><trkpt lat="39.23797344317811" lon="16.063386351069525"><ele>28.75</ele><time>2026-04-26T12:43:42Z</time></trkpt><trkpt lat="39.238117439360856" lon="16.0634195964309"><ele>35.0</ele><time>2026-04-26T12:43:43Z</time></trkpt><trkpt lat="39.23827202499202" lon="16.063434224741407"><ele>35.0</ele><time>2026-04-26T12:43:44Z</time></trkpt><trkpt lat="39.238432767657734" lon="16.063430595282593"><ele>35.0</ele><time>2026-04-26T12:43:45Z</time></trkpt><trkpt lat="39.23859344445582" lon="16.06343772462148"><ele>35.0</ele><time>2026-04-26T12:43:46Z</time></trkpt><trkpt lat="39.23876236631568" lon="16.063442876075555"><ele>35.0</ele><time>2026-04-26T12:43:47Z</time></trkpt><trkpt lat="39.238939543665154" lon="16.063470184173813"><ele>35.0</ele><time>2026-04-26T12:43:48Z</time></trkpt><trkpt lat="39.23910734050038" lon="16.063480410417014"><ele>35.0</ele><time>2026-04-26T12:43:49Z</time></trkpt><trkpt lat="39.23926469462435" lon="16.063490000229955"><ele>34.666666666666664</ele><time>2026-04-26T12:43:50Z</time></trkpt><trkpt lat="39.23941281036816" lon="16.063521076847564"><ele>34.333333333333336</ele><time>2026-04-26T12:43:51Z</time></trkpt><trkpt lat="39.23957912128474" lon="16.063529767466363"><ele>34.0</ele><time>2026-04-26T12:43:52Z</time></trkpt><trkpt lat="39.239725140490805" lon="16.06354837488121"><ele>32.8</ele><time>2026-04-26T12:43:53Z</time></trkpt><trkpt lat="39.239844780305745" lon="16.063545449552876"><ele>31.599999999999998</ele><time>2026-04-26T12:43:54Z</time></trkpt><trkpt lat="39.23991428711606" lon="16.063599312276335"><ele>30.4</ele><time>2026-04-26T12:43:55Z</time></trkpt><trkpt lat="39.23998502028287" lon="16.06364767669025"><ele>29.2</ele><time>2026-04-26T12:43:57Z</time></trkpt><trkpt lat="39.2399397165225" lon="16.063752425743594"><ele>28.0</ele><time>2026-04-26T12:44:00Z</time></trkpt><trkpt lat="39.23990191995821" lon="16.063886238893883"><ele>28.000000000000004</ele><time>2026-04-26T12:44:02Z</time></trkpt><trkpt lat="39.23986896593029" lon="16.064046136374238"><ele>28.0</ele><time>2026-04-26T12:44:04Z</time></trkpt><trkpt lat="39.23984720982418" lon="16.06414051416291"><ele>28.0</ele><time>2026-04-26T12:44:05Z</time></trkpt><trkpt lat="39.23982146111273" lon="16.06423647637519"><ele>28.0</ele><time>2026-04-26T12:44:06Z</time></trkpt><trkpt lat="39.239799941680666" lon="16.064334001148993"><ele>28.000000000000004</ele><time>2026-04-26T12:44:07Z</time></trkpt><trkpt lat="39.23978663475414" lon="16.064439455154357"><ele>28.0</ele><time>2026-04-26T12:44:08Z</time></trkpt><trkpt lat="39.2397787156199" lon="16.064550603876867"><ele>33.66666666666667</ele><time>2026-04-26T12:44:09Z</time></trkpt><trkpt lat="39.239752743197585" lon="16.064652841606534"><ele>39.333333333333336</ele><time>2026-04-26T12:44:10Z</time></trkpt><trkpt lat="39.23972261525075" lon="16.064763461295485"><ele>45.0</ele><time>2026-04-26T12:44:12Z</time></trkpt><trkpt lat="39.23964193791689" lon="16.064730814192465"><ele>50.66666666666667</ele><time>2026-04-26T12:44:14Z</time></trkpt><trkpt lat="39.2396590377038" lon="16.064600022815732"><ele>56.333333333333336</ele><time>2026-04-26T12:44:16Z</time></trkpt><trkpt lat="39.23966043467124" lon="16.064514448222504"><ele>62.0</ele><time>2026-04-26T12:44:17Z</time></trkpt><trkpt lat="39.239661311023085" lon="16.06441258233274"><ele>62.00000000000001</ele><time>2026-04-26T12:44:18Z</time></trkpt><trkpt lat="39.23965635015822" lon="16.064303040052923"><ele>62.0</ele><time>2026-04-26T12:44:19Z</time></trkpt><trkpt lat="39.239671347630754" lon="16.06419134692897"><ele>62.0</ele><time>2026-04-26T12:44:20Z</time></trkpt><trkpt lat="39.239692237959204" lon="16.064080999384355"><ele>62.0</ele><time>2026-04-26T12:44:21Z</time></trkpt><trkpt lat="39.23972746688405" lon="16.063981225802497"><ele>62.00000000000001</ele><time>2026-04-26T12:44:22Z</time></trkpt><trkpt lat="39.23974154413902" lon="16.063895378582774"><ele>62.0</ele><time>2026-04-26T12:44:23Z</time></trkpt><trkpt lat="39.239678078900546" lon="16.06378241095756"><ele>62.0</ele><time>2026-04-26T12:44:25Z</time></trkpt><trkpt lat="39.23957287919143" lon="16.06391150774791"><ele>62.0</ele><time>2026-04-26T12:44:28Z</time></trkpt><trkpt lat="39.23957129730741" lon="16.064008856232817"><ele>62.0</ele><time>2026-04-26T12:44:29Z</time></trkpt><trkpt lat="39.23957203720222" lon="16.064116919229008"><ele>62.0</ele><time>2026-04-26T12:44:30Z</time></trkpt><trkpt lat="39.239564621210064" lon="16.064231394340684"><ele>62.0</ele><time>2026-04-26T12:44:31Z</time></trkpt><trkpt lat="39.239544065224" lon="16.064342068234527"><ele>62.0</ele><time>2026-04-26T12:44:32Z</time></trkpt><trkpt lat="39.23951183202625" lon="16.064467182485924"><ele>62.0</ele><time>2026-04-26T12:44:33Z</time></trkpt><trkpt lat="39.23949251680574" lon="16.064597150567128"><ele>62.0</ele><time>2026-04-26T12:44:34Z</time></trkpt><trkpt lat="39.23948534399647" lon="16.0647461145652"><ele>62.0</ele><time>2026-04-26T12:44:35Z</time></trkpt><trkpt lat="39.23948547971847" lon="16.064898344031974"><ele>62.0</ele><time>2026-04-26T12:44:36Z</time></trkpt><trkpt lat="39.2395003822864" lon="16.065043739559844"><ele>66.0</ele><time>2026-04-26T12:44:37Z</time></trkpt><trkpt lat="39.239524186543505" lon="16.065176589066642"><ele>70.0</ele><time>2026-04-26T12:44:38Z</time></trkpt><trkpt lat="39.23954596971365" lon="16.06527906727973"><ele>74.0</ele><time>2026-04-26T12:44:39Z</time></trkpt><trkpt lat="39.23954492485754" lon="16.065402558558702"><ele>78.0</ele><time>2026-04-26T12:44:41Z</time></trkpt><trkpt lat="39.23947076669704" lon="16.06540924660685"><ele>82.0</ele><time>2026-04-26T12:44:43Z</time></trkpt><trkpt lat="39.23947723721787" lon="16.06527518985185"><ele>82.0</ele><time>2026-04-26T12:44:45Z</time></trkpt><trkpt lat="39.23947899802856" lon="16.065182357899037"><ele>82.0</ele><time>2026-04-26T12:44:46Z</time></trkpt><trkpt lat="39.239473659203284" lon="16.0650832316711"><ele>82.0</ele><time>2026-04-26T12:44:47Z</time></trkpt><trkpt lat="39.23945825642648" lon="16.064970569765368"><ele>82.0</ele><time>2026-04-26T12:44:48Z</time></trkpt><trkpt lat="39.239431978353984" lon="16.064844082876355"><ele>82.0</ele><time>2026-04-26T12:44:49Z</time></trkpt><trkpt lat="39.23940910943524" lon="16.06470136309538"><ele>77.0</ele><time>2026-04-26T12:44:50Z</time></trkpt><trkpt lat="39.23938873096373" lon="16.06454661889729"><ele>72.0</ele><time>2026-04-26T12:44:51Z</time></trkpt><trkpt lat="39.23937210212704" lon="16.06438610589562"><ele>67.0</ele><time>2026-04-26T12:44:52Z</time></trkpt><trkpt lat="39.239351632876534" lon="16.064234031304373"><ele>62.0</ele><time>2026-04-26T12:44:53Z</time></trkpt><trkpt lat="39.23934670140308" lon="16.064106087084333"><ele>62.00000000000001</ele><time>2026-04-26T12:44:54Z</time></trkpt><trkpt lat="39.23934487732333" lon="16.06400751904297"><ele>62.0</ele><time>2026-04-26T12:44:55Z</time></trkpt><trkpt lat="39.23927342656175" lon="16.063938414847005"><ele>62.0</ele><time>2026-04-26T12:44:57Z</time></trkpt><trkpt lat="39.239204925373826" lon="16.064055982069988"><ele>62.0</ele><time>2026-04-26T12:44:59Z</time></trkpt><trkpt lat="39.23921521954131" lon="16.064150626349665"><ele>62.00000000000001</ele><time>2026-04-26T12:45:00Z</time></trkpt><trkpt lat="39.23924865830191" lon="16.06426017326306"><ele>62.0</ele><time>2026-04-26T12:45:01Z</time></trkpt><trkpt lat="39.23924739501474" lon="16.064396148104677"><ele>62.0</ele><time>2026-04-26T12:45:02Z</time></trkpt><trkpt lat="39.23926244835029" lon="16.064547426579267"><ele>62.0</ele><time>2026-04-26T12:45:03Z</time></trkpt><trkpt lat="39.239258024175356" lon="16.064703662648792"><ele>62.0</ele><time>2026-04-26T12:45:04Z</time></trkpt><trkpt lat="39.23926221744084" lon="16.06486510194149"><ele>62.0</ele><time>2026-04-26T12:45:05Z</time></trkpt><trkpt lat="39.239270646023854" lon="16.065027743748484"><ele>66.0</ele><time>2026-04-26T12:45:06Z</time></trkpt><trkpt lat="39.23928161931531" lon="16.065185962006673"><ele>70.0</ele><time>2026-04-26T12:45:07Z</time></trkpt><trkpt lat="39.23928719997796" lon="16.06532016293855"><ele>74.0</ele><time>2026-04-26T12:45:08Z</time></trkpt><trkpt lat="39.239278602015325" lon="16.06542431292566"><ele>78.0</ele><time>2026-04-26T12:45:09Z</time></trkpt><trkpt lat="39.239215609166905" lon="16.065495959871516"><ele>82.0</ele><time>2026-04-26T12:45:10Z</time></trkpt><trkpt lat="39.239144762758016" lon="16.065585730712318"><ele>82.0</ele><time>2026-04-26T12:45:11Z</time></trkpt><trkpt lat="39.23907447509693" lon="16.06568874661061"><ele>82.0</ele><time>2026-04-26T12:45:12Z</time></trkpt><trkpt lat="39.23903771585129" lon="16.065816404523158"><ele>82.0</ele><time>2026-04-26T12:45:13Z</time></trkpt><trkpt lat="39.239021688890375" lon="16.065946371205012"><ele>82.0</ele><time>2026-04-26T12:45:14Z</time></trkpt><trkpt lat="39.23909872675775" lon="16.066074587544055"><ele>82.0</ele><time>2026-04-26T12:45:15Z</time></trkpt><trkpt lat="39.23910874372568" lon="16.066206698130276"><ele>83.75</ele><time>2026-04-26T12:45:16Z</time></trkpt><trkpt lat="39.23907591456437" lon="16.066329663217292"><ele>85.5</ele><time>2026-04-26T12:45:17Z</time></trkpt><trkpt lat="39.23905389554304" lon="16.066474632697712"><ele>87.25</ele><time>2026-04-26T12:45:18Z</time></trkpt><trkpt lat="39.23902269962648" lon="16.066617488642937"><ele>89.0</ele><time>2026-04-26T12:45:19Z</time></trkpt><trkpt lat="39.23907320276017" lon="16.06676808737813"><ele>89.0</ele><time>2026-04-26T12:45:20Z</time></trkpt><trkpt lat="39.23907581771529" lon="16.066893786501907"><ele>89.0</ele><time>2026-04-26T12:45:21Z</time></trkpt><trkpt lat="39.239035111703245" lon="16.067007501251226"><ele>89.0</ele><time>2026-04-26T12:45:22Z</time></trkpt><trkpt lat="39.23895380770706" lon="16.067078161779534"><ele>89.0</ele><time>2026-04-26T12:45:23Z</time></trkpt><trkpt lat="39.2388746403679" lon="16.067133085820053"><ele>89.0</ele><time>2026-04-26T12:45:24Z</time></trkpt><trkpt lat="39.23877115951565" lon="16.067133961339113"><ele>100.0</ele><time>2026-04-26T12:45:25Z</time></trkpt><trkpt lat="39.238658287106965" lon="16.067111194643786"><ele>111.0</ele><time>2026-04-26T12:45:26Z</time></trkpt><trkpt lat="39.23854793594839" lon="16.067113370826352"><ele>122.0</ele><time>2026-04-26T12:45:27Z</time></trkpt><trkpt lat="39.238457694095544" lon="16.067168872250715"><ele>133.0</ele><time>2026-04-26T12:45:28Z</time></trkpt><trkpt lat="39.23839574609043" lon="16.067315321967037"><ele>130.0</ele><time>2026-04-26T12:45:29Z</time></trkpt><trkpt lat="39.23834179759377" lon="16.067448818493506"><ele>127.0</ele><time>2026-04-26T12:45:30Z</time></trkpt><trkpt lat="39.23830806783576" lon="16.067589237152742"><ele>124.0</ele><time>2026-04-26T12:45:31Z</time></trkpt><trkpt lat="39.23832240679186" lon="16.06773563076707"><ele>121.0</ele><time>2026-04-26T12:45:32Z</time></trkpt><trkpt lat="39.238341443542915" lon="16.067904687724393"><ele>121.0</ele><time>2026-04-26T12:45:33Z</time></trkpt><trkpt lat="39.238338888306146" lon="16.068080792549946"><ele>121.0</ele><time>2026-04-26T12:45:34Z</time></trkpt><trkpt lat="39.23838946924916" lon="16.068256835846352"><ele>121.0</ele><time>2026-04-26T12:45:35Z</time></trkpt><trkpt lat="39.23846252849225" lon="16.06840627022248"><ele>121.0</ele><time>2026-04-26T12:45:36Z</time></trkpt><trkpt lat="39.238493217850554" lon="16.068577201336147"><ele>121.33333333333334</ele><time>2026-04-26T12:45:37Z</time></trkpt><trkpt lat="39.23842399043727" lon="16.068754975759916"><ele>121.66666666666666</ele><time>2026-04-26T12:45:38Z</time></trkpt><trkpt lat="39.23839399652735" lon="16.06894052897115"><ele>122.0</ele><time>2026-04-26T12:45:39Z</time></trkpt><trkpt lat="39.23835846988708" lon="16.069144125899598"><ele>122.0</ele><time>2026-04-26T12:45:40Z</time></trkpt><trkpt lat="39.238128949155524" lon="16.069291899470365"><ele>122.0</ele><time>2026-04-26T12:45:41Z</time></trkpt><trkpt lat="39.23835863580474" lon="16.069381342805514"><ele>122.0</ele><time>2026-04-26T12:45:42Z</time></trkpt><trkpt lat="39.238345052541504" lon="16.069486423997844"><ele>121.99999999999999</ele><time>2026-04-26T12:45:43Z</time></trkpt><trkpt lat="39.23826815720111" lon="16.069549762278598"><ele>121.99999999999999</ele><time>2026-04-26T12:45:45Z</time></trkpt><trkpt lat="39.2382238350141" lon="16.069456926104657"><ele>122.0</ele><time>2026-04-26T12:45:47Z</time></trkpt><trkpt lat="39.23824369905198" lon="16.06931733930699"><ele>122.0</ele><time>2026-04-26T12:45:49Z</time></trkpt><trkpt lat="39.238245871066624" lon="16.06920599347966"><ele>122.0</ele><time>2026-04-26T12:45:50Z</time></trkpt><trkpt lat="39.23826788249255" lon="16.069075754584038"><ele>121.99999999999999</ele><time>2026-04-26T12:45:51Z</time></trkpt><trkpt lat="39.238280746662454" lon="16.068940190856335"><ele>121.99999999999999</ele><time>2026-04-26T12:45:52Z</time></trkpt><trkpt lat="39.23829021838276" lon="16.06879111628332"><ele>122.0</ele><time>2026-04-26T12:45:53Z</time></trkpt><trkpt lat="39.2382985100843" lon="16.068634430992955"><ele>122.0</ele><time>2026-04-26T12:45:54Z</time></trkpt><trkpt lat="39.23828747999701" lon="16.06848056023741"><ele>122.0</ele><time>2026-04-26T12:45:55Z</time></trkpt><trkpt lat="39.238227971775366" lon="16.06832366191121"><ele>122.0</ele><time>2026-04-26T12:45:56Z</time></trkpt><trkpt lat="39.238148320663605" lon="16.06818487839789"><ele>122.0</ele><time>2026-04-26T12:45:57Z</time></trkpt><trkpt lat="39.238070469433566" lon="16.068027851887265"><ele>122.0</ele><time>2026-04-26T12:45:58Z</time></trkpt><trkpt lat="39.23805457050817" lon="16.067838305165566"><ele>140.33333333333331</ele><time>2026-04-26T12:45:59Z</time></trkpt><trkpt lat="39.23803917139393" lon="16.067634567037604"><ele>158.66666666666666</ele><time>2026-04-26T12:46:00Z</time></trkpt><trkpt lat="39.23802629565575" lon="16.067425119038223"><ele>177.0</ele><time>2026-04-26T12:46:01Z</time></trkpt><trkpt lat="39.238020137310315" lon="16.067220797034807"><ele>178.0</ele><time>2026-04-26T12:46:02Z</time></trkpt><trkpt lat="39.23802135365942" lon="16.067024653983797"><ele>179.0</ele><time>2026-04-26T12:46:03Z</time></trkpt><trkpt lat="39.23803412748665" lon="16.06684021179816"><ele>180.0</ele><time>2026-04-26T12:46:04Z</time></trkpt><trkpt lat="39.238061807194775" lon="16.06669823619194"><ele>181.0</ele><time>2026-04-26T12:46:05Z</time></trkpt><trkpt lat="39.23811130500958" lon="16.066591754011018"><ele>173.8</ele><time>2026-04-26T12:46:06Z</time></trkpt><trkpt lat="39.23816438833136" lon="16.066477542778127"><ele>166.60000000000002</ele><time>2026-04-26T12:46:07Z</time></trkpt><trkpt lat="39.23821489950743" lon="16.066373824877616"><ele>159.4</ele><time>2026-04-26T12:46:08Z</time></trkpt><trkpt lat="39.238267335888274" lon="16.066265813425854"><ele>152.2</ele><time>2026-04-26T12:46:09Z</time></trkpt><trkpt lat="39.23830974582239" lon="16.06615555993134"><ele>145.0</ele><time>2026-04-26T12:46:10Z</time></trkpt><trkpt lat="39.23835722937859" lon="16.066062944338622"><ele>145.0</ele><time>2026-04-26T12:46:11Z</time></trkpt><trkpt lat="39.23837862710293" lon="16.065985874092203"><ele>145.0</ele><time>2026-04-26T12:46:12Z</time></trkpt><trkpt lat="39.238313476712825" lon="16.065889363621753"><ele>145.0</ele><time>2026-04-26T12:46:14Z</time></trkpt><trkpt lat="39.238216008311824" lon="16.065992464342848"><ele>145.0</ele><time>2026-04-26T12:46:16Z</time></trkpt><trkpt lat="39.23819063070426" lon="16.06609912361386"><ele>145.0</ele><time>2026-04-26T12:46:17Z</time></trkpt><trkpt lat="39.23815459605694" lon="16.06620465333659"><ele>154.0</ele><time>2026-04-26T12:46:18Z</time></trkpt><trkpt lat="39.238099023989626" lon="16.06631197558517"><ele>163.0</ele><time>2026-04-26T12:46:19Z</time></trkpt><trkpt lat="39.23799541246856" lon="16.066395812992912"><ele>172.0</ele><time>2026-04-26T12:46:20Z</time></trkpt><trkpt lat="39.237907154258494" lon="16.066510959309984"><ele>181.0</ele><time>2026-04-26T12:46:21Z</time></trkpt><trkpt lat="39.23782013070274" lon="16.06663125515535"><ele>181.0</ele><time>2026-04-26T12:46:22Z</time></trkpt><trkpt lat="39.23777512589752" lon="16.066775907061533"><ele>181.0</ele><time>2026-04-26T12:46:23Z</time></trkpt><trkpt lat="39.237757508964144" lon="16.066939250579402"><ele>181.0</ele><time>2026-04-26T12:46:24Z</time></trkpt><trkpt lat="39.237750179229046" lon="16.067119011537475"><ele>181.0</ele><time>2026-04-26T12:46:25Z</time></trkpt><trkpt lat="39.23774283881176" lon="16.067303285467037"><ele>180.0</ele><time>2026-04-26T12:46:26Z</time></trkpt><trkpt lat="39.237761977834275" lon="16.067470497809943"><ele>179.0</ele><time>2026-04-26T12:46:27Z</time></trkpt><trkpt lat="39.23775991095026" lon="16.067616093788708"><ele>178.0</ele><time>2026-04-26T12:46:28Z</time></trkpt><trkpt lat="39.237679515744745" lon="16.067729709191546"><ele>177.0</ele><time>2026-04-26T12:46:29Z</time></trkpt><trkpt lat="39.23763682136255" lon="16.06787057699265"><ele>177.0</ele><time>2026-04-26T12:46:30Z</time></trkpt><trkpt lat="39.23763787847056" lon="16.06803145238667"><ele>177.0</ele><time>2026-04-26T12:46:31Z</time></trkpt><trkpt lat="39.2376714642573" lon="16.068190740240716"><ele>177.0</ele><time>2026-04-26T12:46:32Z</time></trkpt><trkpt lat="39.23770615044212" lon="16.0683457520307"><ele>177.0</ele><time>2026-04-26T12:46:33Z</time></trkpt><trkpt lat="39.23770424770917" lon="16.068482002106357"><ele>176.6</ele><time>2026-04-26T12:46:34Z</time></trkpt><trkpt lat="39.237663186445495" lon="16.068590887220243"><ele>176.2</ele><time>2026-04-26T12:46:35Z</time></trkpt><trkpt lat="39.23759405497597" lon="16.068656628681314"><ele>175.8</ele><time>2026-04-26T12:46:36Z</time></trkpt><trkpt lat="39.23749116413218" lon="16.068637563716088"><ele>175.4</ele><time>2026-04-26T12:46:37Z</time></trkpt><trkpt lat="39.237387948032044" lon="16.06868306015231"><ele>175.0</ele><time>2026-04-26T12:46:38Z</time></trkpt><trkpt lat="39.23726280777401" lon="16.068704361394914"><ele>178.0</ele><time>2026-04-26T12:46:39Z</time></trkpt><trkpt lat="39.23713353038396" lon="16.068757063143913"><ele>181.0</ele><time>2026-04-26T12:46:40Z</time></trkpt><trkpt lat="39.236993199532" lon="16.068831950704165"><ele>184.0</ele><time>2026-04-26T12:46:41Z</time></trkpt><trkpt lat="39.23684697759327" lon="16.068906311685677"><ele>187.0</ele><time>2026-04-26T12:46:42Z</time></trkpt><trkpt lat="39.23669810693967" lon="16.068969124104306"><ele>187.0</ele><time>2026-04-26T12:46:43Z</time></trkpt><trkpt lat="39.23655654334016" lon="16.069019189492355"><ele>187.0</ele><time>2026-04-26T12:46:44Z</time></trkpt><trkpt lat="39.23641483692013" lon="16.06905325247476"><ele>187.0</ele><time>2026-04-26T12:46:45Z</time></trkpt><trkpt lat="39.236268092346904" lon="16.06906936414273"><ele>187.0</ele><time>2026-04-26T12:46:46Z</time></trkpt><trkpt lat="39.23611496256648" lon="16.06906571845956"><ele>189.0</ele><time>2026-04-26T12:46:47Z</time></trkpt><trkpt lat="39.235957586478676" lon="16.069054637975196"><ele>191.0</ele><time>2026-04-26T12:46:48Z</time></trkpt><trkpt lat="39.23579133324339" lon="16.06904620260256"><ele>193.0</ele><time>2026-04-26T12:46:49Z</time></trkpt><trkpt lat="39.235623974055166" lon="16.069051351584655"><ele>195.33333333333331</ele><time>2026-04-26T12:46:50Z</time></trkpt><trkpt lat="39.23545153373534" lon="16.069060022713135"><ele>197.66666666666669</ele><time>2026-04-26T12:46:51Z</time></trkpt><trkpt lat="39.23528317397308" lon="16.069076510648014"><ele>200.0</ele><time>2026-04-26T12:46:52Z</time></trkpt><trkpt lat="39.23512797843449" lon="16.069101061579588"><ele>200.0</ele><time>2026-04-26T12:46:53Z</time></trkpt><trkpt lat="39.23498511341991" lon="16.069138267413305"><ele>200.0</ele><time>2026-04-26T12:46:54Z</time></trkpt><trkpt lat="39.23485925064494" lon="16.06917387140761"><ele>200.0</ele><time>2026-04-26T12:46:55Z</time></trkpt><trkpt lat="39.234743852980124" lon="16.06925198872244"><ele>200.0</ele><time>2026-04-26T12:46:56Z</time></trkpt><trkpt lat="39.23464075922956" lon="16.069362469140078"><ele>200.00000000000003</ele><time>2026-04-26T12:46:57Z</time></trkpt><trkpt lat="39.23454856212288" lon="16.0694809017366"><ele>200.0</ele><time>2026-04-26T12:46:58Z</time></trkpt><trkpt lat="39.23446114756103" lon="16.06956087303195"><ele>200.0</ele><time>2026-04-26T12:46:59Z</time></trkpt><trkpt lat="39.234384922756526" lon="16.069578772731873"><ele>200.0</ele><time>2026-04-26T12:47:00Z</time></trkpt><trkpt lat="39.23432743972152" lon="16.069541700349973"><ele>200.00000000000003</ele><time>2026-04-26T12:47:01Z</time></trkpt><trkpt lat="39.234285342021856" lon="16.069468556526875"><ele>200.0</ele><time>2026-04-26T12:47:02Z</time></trkpt><trkpt lat="39.23424957500377" lon="16.069368412089947"><ele>200.0</ele><time>2026-04-26T12:47:03Z</time></trkpt><trkpt lat="39.23421761288417" lon="16.069248817209097"><ele>200.0</ele><time>2026-04-26T12:47:04Z</time></trkpt><trkpt lat="39.234194354784464" lon="16.069104608682"><ele>200.0</ele><time>2026-04-26T12:47:05Z</time></trkpt><trkpt lat="39.23419294030126" lon="16.068952401001557"><ele>200.0</ele><time>2026-04-26T12:47:06Z</time></trkpt><trkpt lat="39.23425112674094" lon="16.06881910210426"><ele>200.0</ele><time>2026-04-26T12:47:07Z</time></trkpt><trkpt lat="39.23435788308432" lon="16.06873507052337"><ele>200.83333333333334</ele><time>2026-04-26T12:47:08Z</time></trkpt><trkpt lat="39.234404338120534" lon="16.068650596621215"><ele>201.66666666666669</ele><time>2026-04-26T12:47:09Z</time></trkpt><trkpt lat="39.234447543133605" lon="16.068586802666772"><ele>202.5</ele><time>2026-04-26T12:47:10Z</time></trkpt><trkpt lat="39.234500942421015" lon="16.068522338089803"><ele>203.33333333333331</ele><time>2026-04-26T12:47:12Z</time></trkpt><trkpt lat="39.23456993607408" lon="16.068445145302448"><ele>204.16666666666666</ele><time>2026-04-26T12:47:15Z</time></trkpt><trkpt lat="39.234661871732925" lon="16.06834331257576"><ele>205.0</ele><time>2026-04-26T12:47:17Z</time></trkpt><trkpt lat="39.23477612942244" lon="16.0683541627942"><ele>203.75</ele><time>2026-04-26T12:47:18Z</time></trkpt><trkpt lat="39.23486726869084" lon="16.06830601459738"><ele>202.5</ele><time>2026-04-26T12:47:19Z</time></trkpt><trkpt lat="39.2349685230217" lon="16.068241573663347"><ele>201.25</ele><time>2026-04-26T12:47:20Z</time></trkpt><trkpt lat="39.23508202960833" lon="16.0681787601079"><ele>200.0</ele><time>2026-04-26T12:47:21Z</time></trkpt><trkpt lat="39.23519926805311" lon="16.068132788566256"><ele>204.25</ele><time>2026-04-26T12:47:22Z</time></trkpt><trkpt lat="39.23531766918508" lon="16.068084811869348"><ele>208.5</ele><time>2026-04-26T12:47:23Z</time></trkpt><trkpt lat="39.235432492816706" lon="16.068053697801563"><ele>212.75</ele><time>2026-04-26T12:47:24Z</time></trkpt><trkpt lat="39.235536336159456" lon="16.06801730031318"><ele>217.0</ele><time>2026-04-26T12:47:25Z</time></trkpt><trkpt lat="39.23560732307199" lon="16.067850928656824"><ele>215.6</ele><time>2026-04-26T12:47:26Z</time></trkpt><trkpt lat="39.23570305836675" lon="16.06777679874993"><ele>214.2</ele><time>2026-04-26T12:47:27Z</time></trkpt><trkpt lat="39.23580204096402" lon="16.06770867899955"><ele>212.8</ele><time>2026-04-26T12:47:28Z</time></trkpt><trkpt lat="39.235881687918834" lon="16.06763296208661"><ele>211.4</ele><time>2026-04-26T12:47:29Z</time></trkpt><trkpt lat="39.23595556269295" lon="16.06757511849637"><ele>210.0</ele><time>2026-04-26T12:47:30Z</time></trkpt><trkpt lat="39.235990377636526" lon="16.067483937925356"><ele>212.4</ele><time>2026-04-26T12:47:31Z</time></trkpt><trkpt lat="39.236033557485044" lon="16.06740157789623"><ele>214.8</ele><time>2026-04-26T12:47:33Z</time></trkpt><trkpt lat="39.23617472220076" lon="16.067294709003907"><ele>217.2</ele><time>2026-04-26T12:47:38Z</time></trkpt><trkpt lat="39.23625855904693" lon="16.067276216603315"><ele>219.6</ele><time>2026-04-26T12:47:41Z</time></trkpt><trkpt lat="39.23618617797794" lon="16.06727044158901"><ele>222.0</ele><time>2026-04-26T12:47:52Z</time></trkpt><trkpt lat="39.23607979742243" lon="16.067253341780585"><ele>222.0</ele><time>2026-04-26T12:47:54Z</time></trkpt><trkpt lat="39.23595362524251" lon="16.067261343161107"><ele>222.0</ele><time>2026-04-26T12:47:56Z</time></trkpt><trkpt lat="39.2358804623548" lon="16.067260875099805"><ele>222.0</ele><time>2026-04-26T12:47:57Z</time></trkpt><trkpt lat="39.235796577651335" lon="16.06727292391492"><ele>222.0</ele><time>2026-04-26T12:47:58Z</time></trkpt><trkpt lat="39.2357148600314" lon="16.0672883075582"><ele>222.0</ele><time>2026-04-26T12:47:59Z</time></trkpt><trkpt lat="39.23562755762674" lon="16.067295155640167"><ele>222.0</ele><time>2026-04-26T12:48:00Z</time></trkpt><trkpt lat="39.23553814583455" lon="16.067314192034388"><ele>222.0</ele><time>2026-04-26T12:48:01Z</time></trkpt><trkpt lat="39.235440691792995" lon="16.067360462903626"><ele>222.0</ele><time>2026-04-26T12:48:02Z</time></trkpt><trkpt lat="39.23532853302925" lon="16.06736696137129"><ele>222.0</ele><time>2026-04-26T12:48:03Z</time></trkpt><trkpt lat="39.23521125000739" lon="16.067343350552242"><ele>222.0</ele><time>2026-04-26T12:48:04Z</time></trkpt><trkpt lat="39.235138515647996" lon="16.06736201413226"><ele>222.0</ele><time>2026-04-26T12:48:05Z</time></trkpt><trkpt lat="39.23506892567401" lon="16.0673861997115"><ele>222.0</ele><time>2026-04-26T12:48:06Z</time></trkpt><trkpt lat="39.23499932975853" lon="16.067405243547004"><ele>222.0</ele><time>2026-04-26T12:48:07Z</time></trkpt><trkpt lat="39.23500488787296" lon="16.06729458075051"><ele>222.0</ele><time>2026-04-26T12:48:09Z</time></trkpt><trkpt lat="39.23510123237183" lon="16.0672961932934"><ele>222.0</ele><time>2026-04-26T12:48:11Z</time></trkpt><trkpt lat="39.23520915205957" lon="16.067316773525533"><ele>222.0</ele><time>2026-04-26T12:48:13Z</time></trkpt><trkpt lat="39.23528378202475" lon="16.067312417785935"><ele>222.0</ele><time>2026-04-26T12:48:15Z</time></trkpt><trkpt lat="39.23534038142843" lon="16.067274368791825"><ele>222.0</ele><time>2026-04-26T12:48:31Z</time></trkpt></trkseg><trkseg><trkpt lat="39.23497025326013" lon="16.067860668699492"><ele>217.0</ele><time>2026-04-26T15:10:23Z</time></trkpt><trkpt lat="39.23487726081645" lon="16.06795336438982"><ele>217.0</ele><time>2026-04-26T15:10:25Z</time></trkpt><trkpt lat="39.234790387737846" lon="16.068054398708902"><ele>217.0</ele><time>2026-04-26T15:10:27Z</time></trkpt><trkpt lat="39.23469938477451" lon="16.0681691608602"><ele>217.0</ele><time>2026-04-26T15:10:29Z</time></trkpt><trkpt lat="39.23465255640163" lon="16.068229419759795"><ele>217.0</ele><time>2026-04-26T15:10:30Z</time></trkpt><trkpt lat="39.23460527391073" lon="16.068287058222705"><ele>214.6</ele><time>2026-04-26T15:10:31Z</time></trkpt><trkpt lat="39.23453177421206" lon="16.068395236070835"><ele>212.2</ele><time>2026-04-26T15:10:33Z</time></trkpt><trkpt lat="39.23447792192165" lon="16.068484316723424"><ele>209.8</ele><time>2026-04-26T15:10:35Z</time></trkpt><trkpt lat="39.23437577214323" lon="16.068555723346694"><ele>207.4</ele><time>2026-04-26T15:10:37Z</time></trkpt><trkpt lat="39.23435081239346" lon="16.068654635024583"><ele>205.0</ele><time>2026-04-26T15:10:38Z</time></trkpt><trkpt lat="39.23427308345757" lon="16.068722741644905"><ele>205.0</ele><time>2026-04-26T15:10:40Z</time></trkpt><trkpt lat="39.23420210009406" lon="16.068821467288064"><ele>205.0</ele><time>2026-04-26T15:10:42Z</time></trkpt><trkpt lat="39.23414559385028" lon="16.068947324965556"><ele>205.0</ele><time>2026-04-26T15:10:44Z</time></trkpt><trkpt lat="39.23413599481062" lon="16.06902815809803"><ele>205.0</ele><time>2026-04-26T15:10:45Z</time></trkpt><trkpt lat="39.23415746878517" lon="16.069185485939368"><ele>205.0</ele><time>2026-04-26T15:10:47Z</time></trkpt><trkpt lat="39.23418317450143" lon="16.069261558695523"><ele>204.0</ele><time>2026-04-26T15:10:48Z</time></trkpt><trkpt lat="39.23421396228" lon="16.069335318010527"><ele>203.0</ele><time>2026-04-26T15:10:49Z</time></trkpt><trkpt lat="39.2342697269592" lon="16.06947786851323"><ele>202.0</ele><time>2026-04-26T15:10:51Z</time></trkpt><trkpt lat="39.234296221389755" lon="16.06955224096441"><ele>201.0</ele><time>2026-04-26T15:10:52Z</time></trkpt><trkpt lat="39.23440485484525" lon="16.069635130914726"><ele>200.0</ele><time>2026-04-26T15:10:54Z</time></trkpt><trkpt lat="39.23448020810448" lon="16.069614012885438"><ele>200.00000000000003</ele><time>2026-04-26T15:10:55Z</time></trkpt><trkpt lat="39.23454934563164" lon="16.06956080217346"><ele>200.0</ele><time>2026-04-26T15:10:56Z</time></trkpt><trkpt lat="39.23460498774963" lon="16.069481472479332"><ele>200.0</ele><time>2026-04-26T15:10:57Z</time></trkpt><trkpt lat="39.23466022384289" lon="16.069403601708927"><ele>200.0</ele><time>2026-04-26T15:10:58Z</time></trkpt><trkpt lat="39.23471471199349" lon="16.069326840294497"><ele>200.00000000000003</ele><time>2026-04-26T15:10:59Z</time></trkpt><trkpt lat="39.23478221043607" lon="16.06925999094993"><ele>200.0</ele><time>2026-04-26T15:11:00Z</time></trkpt><trkpt lat="39.23484976316755" lon="16.069195581331094"><ele>200.00000000000003</ele><time>2026-04-26T15:11:01Z</time></trkpt><trkpt lat="39.23493351724591" lon="16.06914961902223"><ele>200.0</ele><time>2026-04-26T15:11:02Z</time></trkpt><trkpt lat="39.2350208842769" lon="16.069163494698177"><ele>200.0</ele><time>2026-04-26T15:11:02.999Z</time></trkpt><trkpt lat="39.23510787068531" lon="16.06915021072613"><ele>200.0</ele><time>2026-04-26T15:11:03.999Z</time></trkpt><trkpt lat="39.23518971917528" lon="16.069136595317683"><ele>200.00000000000003</ele><time>2026-04-26T15:11:04.999Z</time></trkpt><trkpt lat="39.235268704429465" lon="16.06910426164081"><ele>200.0</ele><time>2026-04-26T15:11:05.999Z</time></trkpt><trkpt lat="39.2353519223349" lon="16.069099611280564"><ele>200.00000000000003</ele><time>2026-04-26T15:11:06.999Z</time></trkpt><trkpt lat="39.235435142625725" lon="16.069116691125863"><ele>200.0</ele><time>2026-04-26T15:11:07.999Z</time></trkpt><trkpt lat="39.2355180620972" lon="16.069100985021475"><ele>200.0</ele><time>2026-04-26T15:11:08.999Z</time></trkpt><trkpt lat="39.23560495572461" lon="16.069092581855855"><ele>200.0</ele><time>2026-04-26T15:11:09.999Z</time></trkpt><trkpt lat="39.23568751785656" lon="16.069084861865424"><ele>200.00000000000003</ele><time>2026-04-26T15:11:10.999Z</time></trkpt><trkpt lat="39.23577430900813" lon="16.06907739554326"><ele>200.0</ele><time>2026-04-26T15:11:11.999Z</time></trkpt><trkpt lat="39.23585760597431" lon="16.069077343084867"><ele>198.83333333333334</ele><time>2026-04-26T15:11:12.999Z</time></trkpt><trkpt lat="39.23594252399654" lon="16.069082399717292"><ele>197.66666666666669</ele><time>2026-04-26T15:11:13.999Z</time></trkpt><trkpt lat="39.236026967840345" lon="16.06908677001603"><ele>196.5</ele><time>2026-04-26T15:11:14.999Z</time></trkpt><trkpt lat="39.23610913267612" lon="16.06909184285931"><ele>195.33333333333331</ele><time>2026-04-26T15:11:15.999Z</time></trkpt><trkpt lat="39.236191550485394" lon="16.06909595387067"><ele>194.16666666666666</ele><time>2026-04-26T15:11:16.999Z</time></trkpt><trkpt lat="39.23627483493984" lon="16.069101056972436"><ele>193.0</ele><time>2026-04-26T15:11:17.999Z</time></trkpt><trkpt lat="39.23635356390331" lon="16.069095372563353"><ele>192.99999999999997</ele><time>2026-04-26T15:11:18.999Z</time></trkpt><trkpt lat="39.23643400924926" lon="16.069084115835455"><ele>193.0</ele><time>2026-04-26T15:11:19.999Z</time></trkpt><trkpt lat="39.236513699357104" lon="16.069062082754797"><ele>193.0</ele><time>2026-04-26T15:11:20.999Z</time></trkpt><trkpt lat="39.236591002756334" lon="16.06903644517873"><ele>193.0</ele><time>2026-04-26T15:11:21.999Z</time></trkpt><trkpt lat="39.236671753015294" lon="16.06901005022813"><ele>192.99999999999997</ele><time>2026-04-26T15:11:22.999Z</time></trkpt><trkpt lat="39.236749163314066" lon="16.068977563914864"><ele>193.0</ele><time>2026-04-26T15:11:23.999Z</time></trkpt><trkpt lat="39.2368253570741" lon="16.06894707224301"><ele>191.99999999999997</ele><time>2026-04-26T15:11:24.999Z</time></trkpt><trkpt lat="39.23690505068271" lon="16.068907843503837"><ele>191.0</ele><time>2026-04-26T15:11:25.999Z</time></trkpt><trkpt lat="39.23698422763442" lon="16.06887271653475"><ele>190.0</ele><time>2026-04-26T15:11:26.999Z</time></trkpt><trkpt lat="39.2370680537742" lon="16.068833895870153"><ele>189.0</ele><time>2026-04-26T15:11:27.999Z</time></trkpt><trkpt lat="39.23715015514071" lon="16.068794014546754"><ele>188.0</ele><time>2026-04-26T15:11:28.999Z</time></trkpt><trkpt lat="39.237233373426065" lon="16.06875595387636"><ele>187.0</ele><time>2026-04-26T15:11:29.999Z</time></trkpt><trkpt lat="39.23731549713478" lon="16.0687246048907"><ele>185.0</ele><time>2026-04-26T15:11:30.999Z</time></trkpt><trkpt lat="39.23739911154324" lon="16.06870183138478"><ele>183.0</ele><time>2026-04-26T15:11:31.999Z</time></trkpt><trkpt lat="39.23748470217435" lon="16.06868611530253"><ele>181.0</ele><time>2026-04-26T15:11:32.999Z</time></trkpt><trkpt lat="39.23756795487245" lon="16.06866242140848"><ele>179.0</ele><time>2026-04-26T15:11:33.999Z</time></trkpt><trkpt lat="39.237649592394284" lon="16.06861692782866"><ele>177.0</ele><time>2026-04-26T15:11:34.999Z</time></trkpt><trkpt lat="39.237718161822976" lon="16.06855836051459"><ele>175.0</ele><time>2026-04-26T15:11:35.999Z</time></trkpt><trkpt lat="39.23774713843754" lon="16.06846201024853"><ele>175.0</ele><time>2026-04-26T15:11:36.999Z</time></trkpt><trkpt lat="39.237743112075954" lon="16.068357516895496"><ele>175.0</ele><time>2026-04-26T15:11:37.999Z</time></trkpt><trkpt lat="39.2377196213937" lon="16.06824365298028"><ele>175.0</ele><time>2026-04-26T15:11:38.999Z</time></trkpt><trkpt lat="39.237689816606824" lon="16.068146696527233"><ele>175.0</ele><time>2026-04-26T15:11:39.999Z</time></trkpt><trkpt lat="39.23766789358497" lon="16.06804941752076"><ele>175.0</ele><time>2026-04-26T15:11:40.999Z</time></trkpt><trkpt lat="39.23765772397689" lon="16.06794014211794"><ele>175.0</ele><time>2026-04-26T15:11:41.999Z</time></trkpt><trkpt lat="39.2376703824134" lon="16.067836482110067"><ele>175.33333333333334</ele><time>2026-04-26T15:11:42.999Z</time></trkpt><trkpt lat="39.237705347215126" lon="16.067732054361173"><ele>175.66666666666669</ele><time>2026-04-26T15:11:43.999Z</time></trkpt><trkpt lat="39.23776187670379" lon="16.06764186501276"><ele>176.0</ele><time>2026-04-26T15:11:44.999Z</time></trkpt><trkpt lat="39.2377807746746" lon="16.067535864466734"><ele>176.33333333333334</ele><time>2026-04-26T15:11:45.999Z</time></trkpt><trkpt lat="39.23779065337794" lon="16.067421361537026"><ele>176.66666666666666</ele><time>2026-04-26T15:11:46.999Z</time></trkpt><trkpt lat="39.23777782568601" lon="16.06730881913518"><ele>177.0</ele><time>2026-04-26T15:11:47.999Z</time></trkpt><trkpt lat="39.23776009611761" lon="16.067194246138623"><ele>177.8</ele><time>2026-04-26T15:11:48.999Z</time></trkpt><trkpt lat="39.23778138004788" lon="16.067079187899424"><ele>178.6</ele><time>2026-04-26T15:11:49.999Z</time></trkpt><trkpt lat="39.237780282442706" lon="16.066962235918027"><ele>179.4</ele><time>2026-04-26T15:11:50.999Z</time></trkpt><trkpt lat="39.23779705542491" lon="16.066842550466923"><ele>180.20000000000002</ele><time>2026-04-26T15:11:51.999Z</time></trkpt><trkpt lat="39.23781414873974" lon="16.06672963661429"><ele>181.0</ele><time>2026-04-26T15:11:52.999Z</time></trkpt><trkpt lat="39.237850591990984" lon="16.066614276040095"><ele>182.33333333333334</ele><time>2026-04-26T15:11:53.999Z</time></trkpt><trkpt lat="39.23792500254897" lon="16.066527739402442"><ele>183.66666666666669</ele><time>2026-04-26T15:11:54.999Z</time></trkpt><trkpt lat="39.23799692442969" lon="16.066450490330624"><ele>185.0</ele><time>2026-04-26T15:11:55.999Z</time></trkpt><trkpt lat="39.238060209454346" lon="16.06636341763765"><ele>186.33333333333334</ele><time>2026-04-26T15:11:56.999Z</time></trkpt><trkpt lat="39.238122914942274" lon="16.066292492381884"><ele>187.66666666666666</ele><time>2026-04-26T15:11:57.999Z</time></trkpt><trkpt lat="39.23817302407111" lon="16.066214467800247"><ele>189.0</ele><time>2026-04-26T15:11:58.999Z</time></trkpt><trkpt lat="39.23821000414189" lon="16.06613249435064"><ele>180.2</ele><time>2026-04-26T15:11:59.999Z</time></trkpt><trkpt lat="39.23826150474961" lon="16.066004920654347"><ele>171.39999999999998</ele><time>2026-04-26T15:12:01.999Z</time></trkpt><trkpt lat="39.23832712832745" lon="16.065963101805234"><ele>162.6</ele><time>2026-04-26T15:12:04.999Z</time></trkpt><trkpt lat="39.23834316827526" lon="16.066078740201718"><ele>153.8</ele><time>2026-04-26T15:12:06.999Z</time></trkpt><trkpt lat="39.23826852138542" lon="16.06619285994582"><ele>145.0</ele><time>2026-04-26T15:12:08.999Z</time></trkpt><trkpt lat="39.23823083514328" lon="16.066258052159995"><ele>145.0</ele><time>2026-04-26T15:12:09.999Z</time></trkpt><trkpt lat="39.23819045430726" lon="16.066339302809993"><ele>145.0</ele><time>2026-04-26T15:12:10.999Z</time></trkpt><trkpt lat="39.23815006138409" lon="16.066425911176427"><ele>145.0</ele><time>2026-04-26T15:12:11.999Z</time></trkpt><trkpt lat="39.23810402654298" lon="16.066523705328756"><ele>145.0</ele><time>2026-04-26T15:12:12.999Z</time></trkpt><trkpt lat="39.23805553226494" lon="16.06662845117671"><ele>145.0</ele><time>2026-04-26T15:12:13.999Z</time></trkpt><trkpt lat="39.2380152255471" lon="16.066741270571946"><ele>145.0</ele><time>2026-04-26T15:12:14.999Z</time></trkpt><trkpt lat="39.237992130461436" lon="16.066858423664232"><ele>151.4</ele><time>2026-04-26T15:12:15.999Z</time></trkpt><trkpt lat="39.237984693408166" lon="16.066983188897762"><ele>157.8</ele><time>2026-04-26T15:12:16.999Z</time></trkpt><trkpt lat="39.237981443064264" lon="16.06711269583898"><ele>164.2</ele><time>2026-04-26T15:12:17.999Z</time></trkpt><trkpt lat="39.237979071707" lon="16.06725074935398"><ele>170.6</ele><time>2026-04-26T15:12:18.999Z</time></trkpt><trkpt lat="39.237981599457044" lon="16.067388965732857"><ele>177.0</ele><time>2026-04-26T15:12:19.999Z</time></trkpt><trkpt lat="39.23799207757656" lon="16.067530590996963"><ele>177.0</ele><time>2026-04-26T15:12:20.999Z</time></trkpt><trkpt lat="39.2380041517426" lon="16.06767895635312"><ele>177.0</ele><time>2026-04-26T15:12:21.999Z</time></trkpt><trkpt lat="39.23801167647232" lon="16.067824984867517"><ele>177.0</ele><time>2026-04-26T15:12:22.999Z</time></trkpt><trkpt lat="39.23802319042004" lon="16.067971006303207"><ele>177.0</ele><time>2026-04-26T15:12:23.999Z</time></trkpt><trkpt lat="39.23804656848699" lon="16.06811021186824"><ele>177.0</ele><time>2026-04-26T15:12:24.999Z</time></trkpt><trkpt lat="39.23809107144738" lon="16.068234454795196"><ele>177.0</ele><time>2026-04-26T15:12:25.999Z</time></trkpt><trkpt lat="39.238146077601485" lon="16.068341459724735"><ele>177.0</ele><time>2026-04-26T15:12:26.999Z</time></trkpt><trkpt lat="39.23819856057129" lon="16.0684401798361"><ele>177.0</ele><time>2026-04-26T15:12:27.999Z</time></trkpt><trkpt lat="39.238234996194855" lon="16.068543396683083"><ele>177.0</ele><time>2026-04-26T15:12:28.999Z</time></trkpt><trkpt lat="39.23825848398696" lon="16.068662087080874"><ele>166.0</ele><time>2026-04-26T15:12:29.999Z</time></trkpt><trkpt lat="39.238259881298475" lon="16.068786962776908"><ele>155.0</ele><time>2026-04-26T15:12:30.999Z</time></trkpt><trkpt lat="39.238245219445375" lon="16.0689150843844"><ele>144.0</ele><time>2026-04-26T15:12:31.999Z</time></trkpt><trkpt lat="39.23823470062643" lon="16.069042511832546"><ele>133.0</ele><time>2026-04-26T15:12:32.999Z</time></trkpt><trkpt lat="39.238228954779444" lon="16.06915643199418"><ele>122.0</ele><time>2026-04-26T15:12:33.999Z</time></trkpt><trkpt lat="39.23821939497435" lon="16.069259268137337"><ele>122.0</ele><time>2026-04-26T15:12:34.999Z</time></trkpt><trkpt lat="39.23820715897637" lon="16.069345816483118"><ele>121.99999999999999</ele><time>2026-04-26T15:12:36Z</time></trkpt><trkpt lat="39.238190042524714" lon="16.069472025571987"><ele>121.99999999999999</ele><time>2026-04-26T15:12:37.999Z</time></trkpt><trkpt lat="39.2382350741694" lon="16.069553316408008"><ele>122.0</ele><time>2026-04-26T15:12:39.999Z</time></trkpt><trkpt lat="39.23833074419914" lon="16.069516480800882"><ele>122.0</ele><time>2026-04-26T15:12:41.999Z</time></trkpt><trkpt lat="39.23836640370972" lon="16.069369713668618"><ele>122.0</ele><time>2026-04-26T15:12:43.999Z</time></trkpt><trkpt lat="39.23838054558968" lon="16.06927807465678"><ele>121.99999999999999</ele><time>2026-04-26T15:12:44.999Z</time></trkpt><trkpt lat="39.238399536723136" lon="16.069172231867565"><ele>121.99999999999999</ele><time>2026-04-26T15:12:45.999Z</time></trkpt><trkpt lat="39.23842235032613" lon="16.069050781537708"><ele>122.0</ele><time>2026-04-26T15:12:46.999Z</time></trkpt><trkpt lat="39.23844756467702" lon="16.06892343149886"><ele>122.0</ele><time>2026-04-26T15:12:47.999Z</time></trkpt><trkpt lat="39.23847249290294" lon="16.06879929565845"><ele>122.0</ele><time>2026-04-26T15:12:48.999Z</time></trkpt><trkpt lat="39.238494418984224" lon="16.06867828336033"><ele>121.99999999999999</ele><time>2026-04-26T15:12:49.999Z</time></trkpt><trkpt lat="39.23850901565739" lon="16.06855630268675"><ele>121.99999999999999</ele><time>2026-04-26T15:12:50.999Z</time></trkpt><trkpt lat="39.238498934466705" lon="16.068432053172764"><ele>122.0</ele><time>2026-04-26T15:12:51.999Z</time></trkpt><trkpt lat="39.23845510465466" lon="16.068318963741344"><ele>122.0</ele><time>2026-04-26T15:12:52.999Z</time></trkpt><trkpt lat="39.23840098426564" lon="16.068206879351077"><ele>121.8</ele><time>2026-04-26T15:12:53.999Z</time></trkpt><trkpt lat="39.238361310066466" lon="16.068092572263627"><ele>121.6</ele><time>2026-04-26T15:12:54.999Z</time></trkpt><trkpt lat="39.23836158561778" lon="16.06796556477591"><ele>121.39999999999999</ele><time>2026-04-26T15:12:55.999Z</time></trkpt><trkpt lat="39.2383548861821" lon="16.067837309109837"><ele>121.19999999999999</ele><time>2026-04-26T15:12:56.999Z</time></trkpt><trkpt lat="39.23833720982363" lon="16.0677139538467"><ele>121.0</ele><time>2026-04-26T15:12:57.999Z</time></trkpt><trkpt lat="39.23833356199654" lon="16.067593498812506"><ele>121.00000000000001</ele><time>2026-04-26T15:12:58.999Z</time></trkpt><trkpt lat="39.23834356395601" lon="16.067486733889066"><ele>121.0</ele><time>2026-04-26T15:12:59.999Z</time></trkpt><trkpt lat="39.238394998432916" lon="16.06740748283159"><ele>121.0</ele><time>2026-04-26T15:13:00.999Z</time></trkpt><trkpt lat="39.23843633696534" lon="16.067325217244896"><ele>121.0</ele><time>2026-04-26T15:13:01.999Z</time></trkpt><trkpt lat="39.23848679530264" lon="16.067245907801947"><ele>121.00000000000001</ele><time>2026-04-26T15:13:02.999Z</time></trkpt><trkpt lat="39.238542649894676" lon="16.067172867779274"><ele>121.0</ele><time>2026-04-26T15:13:03.999Z</time></trkpt><trkpt lat="39.23862362861481" lon="16.067141318090012"><ele>123.00000000000001</ele><time>2026-04-26T15:13:04.999Z</time></trkpt><trkpt lat="39.23870995203995" lon="16.06716752794656"><ele>125.0</ele><time>2026-04-26T15:13:05.999Z</time></trkpt><trkpt lat="39.2387914723899" lon="16.06715306447323"><ele>127.0</ele><time>2026-04-26T15:13:06.999Z</time></trkpt><trkpt lat="39.23886932354723" lon="16.067160501328285"><ele>129.0</ele><time>2026-04-26T15:13:07.999Z</time></trkpt><trkpt lat="39.2389443483095" lon="16.0671348239577"><ele>131.0</ele><time>2026-04-26T15:13:08.999Z</time></trkpt><trkpt lat="39.23901312440865" lon="16.067080385964267"><ele>133.0</ele><time>2026-04-26T15:13:09.999Z</time></trkpt><trkpt lat="39.239065527537726" lon="16.0670020855725"><ele>125.83333333333334</ele><time>2026-04-26T15:13:10.999Z</time></trkpt><trkpt lat="39.23910063974365" lon="16.066912132901273"><ele>118.66666666666667</ele><time>2026-04-26T15:13:11.999Z</time></trkpt><trkpt lat="39.2391119476214" lon="16.0668182490521"><ele>111.5</ele><time>2026-04-26T15:13:12.999Z</time></trkpt><trkpt lat="39.2390940047419" lon="16.066720600793676"><ele>104.33333333333334</ele><time>2026-04-26T15:13:13.999Z</time></trkpt><trkpt lat="39.23906609767384" lon="16.066627217953858"><ele>97.16666666666667</ele><time>2026-04-26T15:13:14.999Z</time></trkpt><trkpt lat="39.239046110081034" lon="16.066534416669022"><ele>90.0</ele><time>2026-04-26T15:13:15.999Z</time></trkpt><trkpt lat="39.239068672080435" lon="16.06644447140748"><ele>90.0</ele><time>2026-04-26T15:13:16.999Z</time></trkpt><trkpt lat="39.23910347639381" lon="16.066360994041716"><ele>90.0</ele><time>2026-04-26T15:13:17.999Z</time></trkpt><trkpt lat="39.23911865107125" lon="16.06626831470551"><ele>90.0</ele><time>2026-04-26T15:13:18.999Z</time></trkpt><trkpt lat="39.239140930265194" lon="16.066180826791257"><ele>90.0</ele><time>2026-04-26T15:13:19.999Z</time></trkpt><trkpt lat="39.23913530268669" lon="16.066082387895104"><ele>90.0</ele><time>2026-04-26T15:13:20.999Z</time></trkpt><trkpt lat="39.23910900372158" lon="16.065991616437305"><ele>90.0</ele><time>2026-04-26T15:13:21.999Z</time></trkpt><trkpt lat="39.239072457561484" lon="16.06590462344551"><ele>90.0</ele><time>2026-04-26T15:13:22.999Z</time></trkpt><trkpt lat="39.2390505536834" lon="16.065814005480046"><ele>88.85714285714285</ele><time>2026-04-26T15:13:23.999Z</time></trkpt><trkpt lat="39.23905730972708" lon="16.06571703292852"><ele>87.71428571428572</ele><time>2026-04-26T15:13:24.999Z</time></trkpt><trkpt lat="39.239117464217436" lon="16.065643952984207"><ele>86.57142857142857</ele><time>2026-04-26T15:13:25.999Z</time></trkpt><trkpt lat="39.239177089540156" lon="16.065589195053278"><ele>85.42857142857142</ele><time>2026-04-26T15:13:26.999Z</time></trkpt><trkpt lat="39.23922296469099" lon="16.065514141794036"><ele>84.28571428571428</ele><time>2026-04-26T15:13:27.999Z</time></trkpt><trkpt lat="39.23927148575215" lon="16.065457382229443"><ele>83.14285714285714</ele><time>2026-04-26T15:13:28.999Z</time></trkpt><trkpt lat="39.2393042301035" lon="16.065384978233915"><ele>82.0</ele><time>2026-04-26T15:13:29.999Z</time></trkpt><trkpt lat="39.239316197303054" lon="16.065296018016536"><ele>81.99999999999999</ele><time>2026-04-26T15:13:30.999Z</time></trkpt><trkpt lat="39.23930730440576" lon="16.065208548087043"><ele>82.0</ele><time>2026-04-26T15:13:31.999Z</time></trkpt><trkpt lat="39.23929643074657" lon="16.065115982651022"><ele>82.0</ele><time>2026-04-26T15:13:32.999Z</time></trkpt><trkpt lat="39.239288471479526" lon="16.065032751344116"><ele>82.0</ele><time>2026-04-26T15:13:33.999Z</time></trkpt><trkpt lat="39.23928556804874" lon="16.064942631493263"><ele>82.0</ele><time>2026-04-26T15:13:34.999Z</time></trkpt><trkpt lat="39.23928405330003" lon="16.064854526900223"><ele>81.99999999999999</ele><time>2026-04-26T15:13:35.999Z</time></trkpt><trkpt lat="39.23928267018999" lon="16.064764068478745"><ele>82.0</ele><time>2026-04-26T15:13:36.999Z</time></trkpt><trkpt lat="39.23927732969637" lon="16.064661444117874"><ele>78.0</ele><time>2026-04-26T15:13:37.999Z</time></trkpt><trkpt lat="39.239276881235895" lon="16.064545759926844"><ele>74.0</ele><time>2026-04-26T15:13:38.999Z</time></trkpt><trkpt lat="39.23927511983268" lon="16.0644239030428"><ele>70.0</ele><time>2026-04-26T15:13:39.999Z</time></trkpt><trkpt lat="39.23927327644184" lon="16.06430555555067"><ele>66.0</ele><time>2026-04-26T15:13:40.999Z</time></trkpt><trkpt lat="39.2392627519947" lon="16.06419765455618"><ele>62.0</ele><time>2026-04-26T15:13:41.999Z</time></trkpt><trkpt lat="39.23925405385426" lon="16.064070782258487"><ele>62.0</ele><time>2026-04-26T15:13:43.999Z</time></trkpt><trkpt lat="39.23933628167358" lon="16.064090847576562"><ele>62.0</ele><time>2026-04-26T15:13:48.999Z</time></trkpt><trkpt lat="39.23932678456053" lon="16.06419787058061"><ele>62.0</ele><time>2026-04-26T15:13:49.999Z</time></trkpt><trkpt lat="39.239353411744936" lon="16.06430007930261"><ele>62.0</ele><time>2026-04-26T15:13:50.999Z</time></trkpt><trkpt lat="39.23936880209196" lon="16.06441941079032"><ele>62.0</ele><time>2026-04-26T15:13:51.999Z</time></trkpt><trkpt lat="39.23937312378303" lon="16.06455908375188"><ele>62.0</ele><time>2026-04-26T15:13:52.999Z</time></trkpt><trkpt lat="39.23939283583068" lon="16.06471152549572"><ele>62.0</ele><time>2026-04-26T15:13:53.999Z</time></trkpt><trkpt lat="39.23941277598143" lon="16.064868910211867"><ele>62.0</ele><time>2026-04-26T15:13:54.999Z</time></trkpt><trkpt lat="39.239432026671935" lon="16.06501023873062"><ele>62.0</ele><time>2026-04-26T15:13:55.999Z</time></trkpt><trkpt lat="39.23944376370657" lon="16.06516241096864"><ele>65.33333333333334</ele><time>2026-04-26T15:13:56.999Z</time></trkpt><trkpt lat="39.23945719117127" lon="16.06530377338384"><ele>68.66666666666667</ele><time>2026-04-26T15:13:57.999Z</time></trkpt><trkpt lat="39.23945983703135" lon="16.065395534154355"><ele>72.0</ele><time>2026-04-26T15:13:58.999Z</time></trkpt><trkpt lat="39.23950086135089" lon="16.06548140128248"><ele>75.33333333333333</ele><time>2026-04-26T15:14:00.999Z</time></trkpt><trkpt lat="39.239578310387394" lon="16.065379671717658"><ele>78.66666666666666</ele><time>2026-04-26T15:14:02.999Z</time></trkpt><trkpt lat="39.23957641982043" lon="16.065280318198965"><ele>82.0</ele><time>2026-04-26T15:14:03.999Z</time></trkpt><trkpt lat="39.2395515427136" lon="16.065170140541998"><ele>82.0</ele><time>2026-04-26T15:14:04.999Z</time></trkpt><trkpt lat="39.239526216666874" lon="16.065033005940208"><ele>82.0</ele><time>2026-04-26T15:14:05.999Z</time></trkpt><trkpt lat="39.239499806806315" lon="16.06486999706691"><ele>82.0</ele><time>2026-04-26T15:14:06.999Z</time></trkpt><trkpt lat="39.2395055634881" lon="16.064690406650747"><ele>82.0</ele><time>2026-04-26T15:14:07.999Z</time></trkpt><trkpt lat="39.23952573190564" lon="16.064507258177816"><ele>78.0</ele><time>2026-04-26T15:14:08.999Z</time></trkpt><trkpt lat="39.23956253308692" lon="16.064343534310325"><ele>74.0</ele><time>2026-04-26T15:14:09.999Z</time></trkpt><trkpt lat="39.23959109663094" lon="16.064193525390287"><ele>70.0</ele><time>2026-04-26T15:14:10.999Z</time></trkpt><trkpt lat="39.23960461523558" lon="16.064058856803694"><ele>66.0</ele><time>2026-04-26T15:14:11.999Z</time></trkpt><trkpt lat="39.2396139682902" lon="16.063959766968487"><ele>62.0</ele><time>2026-04-26T15:14:12.999Z</time></trkpt><trkpt lat="39.23962861025602" lon="16.063877487006888"><ele>62.0</ele><time>2026-04-26T15:14:13.999Z</time></trkpt><trkpt lat="39.23971425011387" lon="16.063882161221418"><ele>62.0</ele><time>2026-04-26T15:14:16.999Z</time></trkpt><trkpt lat="39.23967702294567" lon="16.06404942274999"><ele>62.0</ele><time>2026-04-26T15:14:18.999Z</time></trkpt><trkpt lat="39.23965214325303" lon="16.064175561033004"><ele>62.0</ele><time>2026-04-26T15:14:19.999Z</time></trkpt><trkpt lat="39.23962102476578" lon="16.06432254977361"><ele>62.0</ele><time>2026-04-26T15:14:20.999Z</time></trkpt><trkpt lat="39.239609328265935" lon="16.064486596767342"><ele>62.0</ele><time>2026-04-26T15:14:21.999Z</time></trkpt><trkpt lat="39.23961266172319" lon="16.06463139155289"><ele>62.0</ele><time>2026-04-26T15:14:22.999Z</time></trkpt><trkpt lat="39.239616889543036" lon="16.064742724517306"><ele>62.0</ele><time>2026-04-26T15:14:23.999Z</time></trkpt><trkpt lat="39.23966435337499" lon="16.06485393068965"><ele>62.0</ele><time>2026-04-26T15:14:25.999Z</time></trkpt><trkpt lat="39.23975062696511" lon="16.06479740293566"><ele>62.0</ele><time>2026-04-26T15:14:27.999Z</time></trkpt><trkpt lat="39.239783837873595" lon="16.064714434351508"><ele>56.25</ele><time>2026-04-26T15:14:28.999Z</time></trkpt><trkpt lat="39.23980560294299" lon="16.06459139088515"><ele>50.5</ele><time>2026-04-26T15:14:29.999Z</time></trkpt><trkpt lat="39.23981540314475" lon="16.064442599083065"><ele>44.75</ele><time>2026-04-26T15:14:30.999Z</time></trkpt><trkpt lat="39.23983421109021" lon="16.064278961500033"><ele>39.0</ele><time>2026-04-26T15:14:31.999Z</time></trkpt><trkpt lat="39.239877740826195" lon="16.064127484036618"><ele>37.166666666666664</ele><time>2026-04-26T15:14:32.999Z</time></trkpt><trkpt lat="39.2399098596332" lon="16.06398862837914"><ele>35.333333333333336</ele><time>2026-04-26T15:14:33.999Z</time></trkpt><trkpt lat="39.23992835316818" lon="16.06387524206286"><ele>33.5</ele><time>2026-04-26T15:14:34.999Z</time></trkpt><trkpt lat="39.23996424434014" lon="16.06378196045774"><ele>31.666666666666668</ele><time>2026-04-26T15:14:35.999Z</time></trkpt><trkpt lat="39.24000474136855" lon="16.06370605324455"><ele>29.833333333333336</ele><time>2026-04-26T15:14:36.999Z</time></trkpt><trkpt lat="39.24005205707103" lon="16.06365171038123"><ele>28.0</ele><time>2026-04-26T15:14:37.999Z</time></trkpt><trkpt lat="39.24016836051712" lon="16.063576251089035"><ele>28.0</ele><time>2026-04-26T15:14:39.999Z</time></trkpt><trkpt lat="39.24021576606798" lon="16.063491833500272"><ele>27.999999999999996</ele><time>2026-04-26T15:14:40.999Z</time></trkpt><trkpt lat="39.240238710034085" lon="16.06337489186887"><ele>27.999999999999996</ele><time>2026-04-26T15:14:41.999Z</time></trkpt><trkpt lat="39.240243458736735" lon="16.063221819440777"><ele>28.0</ele><time>2026-04-26T15:14:42.999Z</time></trkpt><trkpt lat="39.24025204428486" lon="16.06306047282999"><ele>28.0</ele><time>2026-04-26T15:14:43.999Z</time></trkpt><trkpt lat="39.24026848452786" lon="16.06287767473514"><ele>24.75</ele><time>2026-04-26T15:14:44.999Z</time></trkpt><trkpt lat="39.2402930785653" lon="16.062687085694087"><ele>21.5</ele><time>2026-04-26T15:14:45.999Z</time></trkpt><trkpt lat="39.240321422024266" lon="16.06249306918947"><ele>18.25</ele><time>2026-04-26T15:14:46.999Z</time></trkpt><trkpt lat="39.2403371328154" lon="16.062307830709706"><ele>15.0</ele><time>2026-04-26T15:14:47.999Z</time></trkpt><trkpt lat="39.24033678899863" lon="16.06212558088632"><ele>14.25</ele><time>2026-04-26T15:14:48.999Z</time></trkpt><trkpt lat="39.24033725953056" lon="16.061951514886708"><ele>13.5</ele><time>2026-04-26T15:14:49.999Z</time></trkpt><trkpt lat="39.240336485534236" lon="16.061777828742837"><ele>12.75</ele><time>2026-04-26T15:14:50.999Z</time></trkpt><trkpt lat="39.24032498354908" lon="16.06160880417351"><ele>12.0</ele><time>2026-04-26T15:14:51.999Z</time></trkpt><trkpt lat="39.24030385643603" lon="16.061440975605453"><ele>11.8</ele><time>2026-04-26T15:14:52.999Z</time></trkpt><trkpt lat="39.24027160689541" lon="16.06127985604518"><ele>11.6</ele><time>2026-04-26T15:14:53.999Z</time></trkpt><trkpt lat="39.240241183041526" lon="16.06113050735925"><ele>11.4</ele><time>2026-04-26T15:14:54.999Z</time></trkpt><trkpt lat="39.240223844558344" lon="16.061000629821415"><ele>11.200000000000001</ele><time>2026-04-26T15:14:55.999Z</time></trkpt><trkpt lat="39.240221296231574" lon="16.060893391010925"><ele>11.0</ele><time>2026-04-26T15:14:56.999Z</time></trkpt><trkpt lat="39.2402249764068" lon="16.06080159027665"><ele>10.600000000000001</ele><time>2026-04-26T15:14:57.999Z</time></trkpt><trkpt lat="39.24023731143885" lon="16.06069782002746"><ele>10.200000000000001</ele><time>2026-04-26T15:14:59.999Z</time></trkpt><trkpt lat="39.24023567507463" lon="16.060594414701097"><ele>9.8</ele><time>2026-04-26T15:15:04.999Z</time></trkpt><trkpt lat="39.240133032710396" lon="16.06050643130748"><ele>9.4</ele><time>2026-04-26T15:15:05.999Z</time></trkpt><trkpt lat="39.24003467445455" lon="16.060442112066383"><ele>9.0</ele><time>2026-04-26T15:15:06.999Z</time></trkpt><trkpt lat="39.23991906125123" lon="16.06036820719612"><ele>8.25</ele><time>2026-04-26T15:15:07.999Z</time></trkpt><trkpt lat="39.23979177711281" lon="16.060286043115454"><ele>7.5</ele><time>2026-04-26T15:15:08.999Z</time></trkpt><trkpt lat="39.239662620269385" lon="16.060195338711903"><ele>6.75</ele><time>2026-04-26T15:15:09.999Z</time></trkpt><trkpt lat="39.23952121410085" lon="16.060106374436742"><ele>6.0</ele><time>2026-04-26T15:15:10.999Z</time></trkpt><trkpt lat="39.23937047734491" lon="16.06002708571937"><ele>6.0</ele><time>2026-04-26T15:15:11.999Z</time></trkpt><trkpt lat="39.23920924934675" lon="16.059956534344188"><ele>6.0</ele><time>2026-04-26T15:15:12.999Z</time></trkpt><trkpt lat="39.23903910423479" lon="16.05988758693326"><ele>6.0</ele><time>2026-04-26T15:15:13.999Z</time></trkpt><trkpt lat="39.23886484140874" lon="16.059822472474295"><ele>5.666666666666667</ele><time>2026-04-26T15:15:14.999Z</time></trkpt><trkpt lat="39.23868356849116" lon="16.059765311475598"><ele>5.333333333333334</ele><time>2026-04-26T15:15:15.999Z</time></trkpt><trkpt lat="39.238495718386005" lon="16.059726055770746"><ele>5.0</ele><time>2026-04-26T15:15:16.999Z</time></trkpt><trkpt lat="39.238305819461644" lon="16.059694919508217"><ele>5.0</ele><time>2026-04-26T15:15:17.999Z</time></trkpt><trkpt lat="39.23810911694275" lon="16.059674118709147"><ele>5.0</ele><time>2026-04-26T15:15:18.999Z</time></trkpt><trkpt lat="39.23790891524175" lon="16.05966538432704"><ele>5.0</ele><time>2026-04-26T15:15:19.999Z</time></trkpt><trkpt lat="39.23770468011485" lon="16.059661289790274"><ele>5.0</ele><time>2026-04-26T15:15:20.999Z</time></trkpt><trkpt lat="39.23749802111917" lon="16.05966346099667"><ele>5.0</ele><time>2026-04-26T15:15:21.999Z</time></trkpt><trkpt lat="39.23728722388169" lon="16.05967050260047"><ele>5.0</ele><time>2026-04-26T15:15:22.999Z</time></trkpt><trkpt lat="39.23707516030315" lon="16.059674921333357"><ele>5.0</ele><time>2026-04-26T15:15:23.999Z</time></trkpt><trkpt lat="39.236861497478195" lon="16.059677292207944"><ele>5.0</ele><time>2026-04-26T15:15:24.999Z</time></trkpt><trkpt lat="39.23664425510299" lon="16.059682491537398"><ele>5.0</ele><time>2026-04-26T15:15:25.999Z</time></trkpt><trkpt lat="39.23642601841464" lon="16.059685851912064"><ele>4.666666666666667</ele><time>2026-04-26T15:15:26.999Z</time></trkpt><trkpt lat="39.23620479163878" lon="16.059691090251203"><ele>4.333333333333333</ele><time>2026-04-26T15:15:27.999Z</time></trkpt><trkpt lat="39.23598199761129" lon="16.05969617951579"><ele>4.0</ele><time>2026-04-26T15:15:28.999Z</time></trkpt><trkpt lat="39.235757790957365" lon="16.059703200573995"><ele>4.0</ele><time>2026-04-26T15:15:29.999Z</time></trkpt><trkpt lat="39.23553245579321" lon="16.059709429197575"><ele>4.0</ele><time>2026-04-26T15:15:30.999Z</time></trkpt><trkpt lat="39.235308873374315" lon="16.059718384190315"><ele>4.0</ele><time>2026-04-26T15:15:31.999Z</time></trkpt><trkpt lat="39.235083531086225" lon="16.059736473507485"><ele>4.0</ele><time>2026-04-26T15:15:32.999Z</time></trkpt><trkpt lat="39.23485654809353" lon="16.05976274426767"><ele>4.0</ele><time>2026-04-26T15:15:33.999Z</time></trkpt><trkpt lat="39.23462981172202" lon="16.059792946094984"><ele>4.0</ele><time>2026-04-26T15:15:34.999Z</time></trkpt><trkpt lat="39.23440245082867" lon="16.059829576431984"><ele>4.0</ele><time>2026-04-26T15:15:35.999Z</time></trkpt><trkpt lat="39.234174273523486" lon="16.05986587877305"><ele>4.5</ele><time>2026-04-26T15:15:36.999Z</time></trkpt><trkpt lat="39.23394788808426" lon="16.059902612765484"><ele>5.0</ele><time>2026-04-26T15:15:37.999Z</time></trkpt><trkpt lat="39.23372076298414" lon="16.059939121020257"><ele>5.5</ele><time>2026-04-26T15:15:38.999Z</time></trkpt><trkpt lat="39.2334947941873" lon="16.059972917136477"><ele>6.0</ele><time>2026-04-26T15:15:39.999Z</time></trkpt><trkpt lat="39.233267870912044" lon="16.060003108773476"><ele>6.0</ele><time>2026-04-26T15:15:40.999Z</time></trkpt><trkpt lat="39.2330377715283" lon="16.06003005747018"><ele>6.0</ele><time>2026-04-26T15:15:41.999Z</time></trkpt><trkpt lat="39.232808968069584" lon="16.06005176977239"><ele>6.0</ele><time>2026-04-26T15:15:42.999Z</time></trkpt><trkpt lat="39.23258038412808" lon="16.060067966227223"><ele>6.0</ele><time>2026-04-26T15:15:43.999Z</time></trkpt><trkpt lat="39.23235372360065" lon="16.06008251228796"><ele>6.5</ele><time>2026-04-26T15:15:44.999Z</time></trkpt><trkpt lat="39.23212358872599" lon="16.06009419684098"><ele>7.0</ele><time>2026-04-26T15:15:45.999Z</time></trkpt><trkpt lat="39.23189773525712" lon="16.060110726267503"><ele>7.0</ele><time>2026-04-26T15:15:46.999Z</time></trkpt><trkpt lat="39.23167021779359" lon="16.060122312157958"><ele>7.0</ele><time>2026-04-26T15:15:47.999Z</time></trkpt><trkpt lat="39.23144292144929" lon="16.060135771959498"><ele>6.5</ele><time>2026-04-26T15:15:48.999Z</time></trkpt><trkpt lat="39.23121555077161" lon="16.060151080852933"><ele>6.0</ele><time>2026-04-26T15:15:49.999Z</time></trkpt><trkpt lat="39.23099112937616" lon="16.060162305033554"><ele>6.0</ele><time>2026-04-26T15:15:50.999Z</time></trkpt><trkpt lat="39.230764042858105" lon="16.06017571800959"><ele>6.0</ele><time>2026-04-26T15:15:51.999Z</time></trkpt><trkpt lat="39.230540220517035" lon="16.06018821997357"><ele>6.5</ele><time>2026-04-26T15:15:52.999Z</time></trkpt><trkpt lat="39.23031683937278" lon="16.060200347067493"><ele>7.0</ele><time>2026-04-26T15:15:53.999Z</time></trkpt><trkpt lat="39.230090485395294" lon="16.060212512272873"><ele>7.0</ele><time>2026-04-26T15:15:54.999Z</time></trkpt><trkpt lat="39.229865860041855" lon="16.060227463713783"><ele>7.0</ele><time>2026-04-26T15:15:55.999Z</time></trkpt><trkpt lat="39.22963773681261" lon="16.060239776370373"><ele>7.0</ele><time>2026-04-26T15:15:56.999Z</time></trkpt><trkpt lat="39.229412844441114" lon="16.060255141265834"><ele>7.0</ele><time>2026-04-26T15:15:57.999Z</time></trkpt><trkpt lat="39.22918566117189" lon="16.060268436793173"><ele>7.0</ele><time>2026-04-26T15:15:58.999Z</time></trkpt><trkpt lat="39.228959097878295" lon="16.060280822191125"><ele>7.0</ele><time>2026-04-26T15:15:59.999Z</time></trkpt><trkpt lat="39.22873008009862" lon="16.060296888599936"><ele>7.0</ele><time>2026-04-26T15:16:00.999Z</time></trkpt><trkpt lat="39.22850537855632" lon="16.060309737351474"><ele>7.0</ele><time>2026-04-26T15:16:01.999Z</time></trkpt><trkpt lat="39.22827865416459" lon="16.060321217724074"><ele>6.5</ele><time>2026-04-26T15:16:02.999Z</time></trkpt><trkpt lat="39.22805048069216" lon="16.060335376381786"><ele>6.0</ele><time>2026-04-26T15:16:03.999Z</time></trkpt><trkpt lat="39.2278260596772" lon="16.06035195913533"><ele>6.0</ele><time>2026-04-26T15:16:04.999Z</time></trkpt><trkpt lat="39.22759878315131" lon="16.060365534531805"><ele>6.0</ele><time>2026-04-26T15:16:05.999Z</time></trkpt><trkpt lat="39.227373267541076" lon="16.060374223550262"><ele>6.333333333333334</ele><time>2026-04-26T15:16:06.999Z</time></trkpt><trkpt lat="39.227148883645995" lon="16.060388471699618"><ele>6.666666666666667</ele><time>2026-04-26T15:16:07.999Z</time></trkpt><trkpt lat="39.22692537688509" lon="16.060404604793263"><ele>7.0</ele><time>2026-04-26T15:16:08.999Z</time></trkpt><trkpt lat="39.22670270977605" lon="16.06042084890349"><ele>6.666666666666667</ele><time>2026-04-26T15:16:09.999Z</time></trkpt><trkpt lat="39.22647791845097" lon="16.06043238376309"><ele>6.333333333333334</ele><time>2026-04-26T15:16:10.999Z</time></trkpt><trkpt lat="39.22625856670927" lon="16.06044594379439"><ele>6.0</ele><time>2026-04-26T15:16:11.999Z</time></trkpt><trkpt lat="39.226033754406515" lon="16.060450158697037"><ele>6.0</ele><time>2026-04-26T15:16:12.999Z</time></trkpt><trkpt lat="39.22581491207726" lon="16.060467011002192"><ele>6.0</ele><time>2026-04-26T15:16:13.999Z</time></trkpt><trkpt lat="39.2255928063773" lon="16.06048207888035"><ele>6.0</ele><time>2026-04-26T15:16:14.999Z</time></trkpt><trkpt lat="39.2253663203543" lon="16.06049625736542"><ele>6.333333333333334</ele><time>2026-04-26T15:16:15.999Z</time></trkpt><trkpt lat="39.22514698673789" lon="16.060508627745204"><ele>6.666666666666667</ele><time>2026-04-26T15:16:16.999Z</time></trkpt><trkpt lat="39.22492570956228" lon="16.0605220208944"><ele>7.0</ele><time>2026-04-26T15:16:17.999Z</time></trkpt><trkpt lat="39.2247021663659" lon="16.060536247358808"><ele>7.666666666666667</ele><time>2026-04-26T15:16:18.999Z</time></trkpt><trkpt lat="39.22448101715398" lon="16.060550058370104"><ele>8.333333333333334</ele><time>2026-04-26T15:16:19.999Z</time></trkpt><trkpt lat="39.22426121127354" lon="16.060561246985273"><ele>9.0</ele><time>2026-04-26T15:16:20.999Z</time></trkpt><trkpt lat="39.224038924730145" lon="16.0605734322595"><ele>9.0</ele><time>2026-04-26T15:16:21.999Z</time></trkpt><trkpt lat="39.2238215298078" lon="16.060586495368376"><ele>9.0</ele><time>2026-04-26T15:16:22.999Z</time></trkpt><trkpt lat="39.22360308083322" lon="16.060598403552255"><ele>9.0</ele><time>2026-04-26T15:16:23.999Z</time></trkpt><trkpt lat="39.2233879650871" lon="16.060613931165566"><ele>9.0</ele><time>2026-04-26T15:16:24.999Z</time></trkpt><trkpt lat="39.22317290053785" lon="16.06062720026889"><ele>9.0</ele><time>2026-04-26T15:16:25.999Z</time></trkpt><trkpt lat="39.222956988769724" lon="16.060641669886348"><ele>9.0</ele><time>2026-04-26T15:16:26.999Z</time></trkpt><trkpt lat="39.222739382808705" lon="16.060657015763294"><ele>9.333333333333334</ele><time>2026-04-26T15:16:27.999Z</time></trkpt><trkpt lat="39.222523889680126" lon="16.06067684579074"><ele>9.666666666666668</ele><time>2026-04-26T15:16:28.999Z</time></trkpt><trkpt lat="39.22231431526564" lon="16.06070043013589"><ele>10.0</ele><time>2026-04-26T15:16:29.999Z</time></trkpt><trkpt lat="39.22210136345705" lon="16.06072972779152"><ele>9.666666666666668</ele><time>2026-04-26T15:16:30.999Z</time></trkpt><trkpt lat="39.22189405143498" lon="16.06078453546877"><ele>9.333333333333334</ele><time>2026-04-26T15:16:31.999Z</time></trkpt><trkpt lat="39.22168393260661" lon="16.060845945529188"><ele>9.0</ele><time>2026-04-26T15:16:32.999Z</time></trkpt><trkpt lat="39.22148182620174" lon="16.060909750458265"><ele>9.0</ele><time>2026-04-26T15:16:33.999Z</time></trkpt><trkpt lat="39.221283105198836" lon="16.060979975678926"><ele>9.0</ele><time>2026-04-26T15:16:35Z</time></trkpt><trkpt lat="39.22108379432062" lon="16.061053498946347"><ele>9.0</ele><time>2026-04-26T15:16:36Z</time></trkpt><trkpt lat="39.220883207405286" lon="16.061116468753138"><ele>9.0</ele><time>2026-04-26T15:16:37Z</time></trkpt><trkpt lat="39.22068573566785" lon="16.06118170411373"><ele>9.0</ele><time>2026-04-26T15:16:38Z</time></trkpt><trkpt lat="39.2204916491778" lon="16.061241860090803"><ele>9.0</ele><time>2026-04-26T15:16:39Z</time></trkpt><trkpt lat="39.220297357113964" lon="16.06130451979869"><ele>9.666666666666666</ele><time>2026-04-26T15:16:40Z</time></trkpt><trkpt lat="39.220105749640474" lon="16.06136663288714"><ele>10.333333333333332</ele><time>2026-04-26T15:16:41Z</time></trkpt><trkpt lat="39.21991362015052" lon="16.061428213891872"><ele>11.0</ele><time>2026-04-26T15:16:42Z</time></trkpt><trkpt lat="39.219717764104644" lon="16.061491918882034"><ele>11.0</ele><time>2026-04-26T15:16:43Z</time></trkpt><trkpt lat="39.219514844930565" lon="16.061566882316697"><ele>11.0</ele><time>2026-04-26T15:16:44Z</time></trkpt><trkpt lat="39.21930307795331" lon="16.061640744445537"><ele>11.0</ele><time>2026-04-26T15:16:45Z</time></trkpt><trkpt lat="39.21909162379074" lon="16.061713413831647"><ele>9.5</ele><time>2026-04-26T15:16:46Z</time></trkpt><trkpt lat="39.218873057013624" lon="16.06178528355055"><ele>8.0</ele><time>2026-04-26T15:16:47Z</time></trkpt><trkpt lat="39.218655261279935" lon="16.06186113336689"><ele>8.0</ele><time>2026-04-26T15:16:48Z</time></trkpt><trkpt lat="39.21843761709985" lon="16.061932093013738"><ele>8.0</ele><time>2026-04-26T15:16:49Z</time></trkpt><trkpt lat="39.218223110360334" lon="16.061998692253017"><ele>8.0</ele><time>2026-04-26T15:16:50Z</time></trkpt><trkpt lat="39.218005931003475" lon="16.062066524314922"><ele>7.333333333333333</ele><time>2026-04-26T15:16:51Z</time></trkpt><trkpt lat="39.21778518284283" lon="16.062144196610557"><ele>6.666666666666666</ele><time>2026-04-26T15:16:52Z</time></trkpt><trkpt lat="39.217573231803435" lon="16.062213916780177"><ele>6.0</ele><time>2026-04-26T15:16:53Z</time></trkpt><trkpt lat="39.21736048437852" lon="16.062286728560217"><ele>6.0</ele><time>2026-04-26T15:16:54Z</time></trkpt><trkpt lat="39.21715447055561" lon="16.06235474444234"><ele>6.0</ele><time>2026-04-26T15:16:55Z</time></trkpt><trkpt lat="39.21696349568771" lon="16.062410334064165"><ele>6.0</ele><time>2026-04-26T15:16:56Z</time></trkpt><trkpt lat="39.21677867372335" lon="16.062449444319956"><ele>6.0</ele><time>2026-04-26T15:16:57Z</time></trkpt><trkpt lat="39.216599872662144" lon="16.06245349949245"><ele>6.0</ele><time>2026-04-26T15:16:57.999Z</time></trkpt><trkpt lat="39.21640484213382" lon="16.062464625806356"><ele>6.0</ele><time>2026-04-26T15:16:58.999Z</time></trkpt><trkpt lat="39.21620191358727" lon="16.062474172123146"><ele>6.0</ele><time>2026-04-26T15:16:59.999Z</time></trkpt><trkpt lat="39.2159971669182" lon="16.062483767822147"><ele>6.0</ele><time>2026-04-26T15:17:00.999Z</time></trkpt><trkpt lat="39.215787340805015" lon="16.06251147947309"><ele>6.0</ele><time>2026-04-26T15:17:01.999Z</time></trkpt><trkpt lat="39.21557949753122" lon="16.06251207778284"><ele>6.0</ele><time>2026-04-26T15:17:02.999Z</time></trkpt><trkpt lat="39.21536631386329" lon="16.062510690905313"><ele>6.0</ele><time>2026-04-26T15:17:03.999Z</time></trkpt><trkpt lat="39.21515267081663" lon="16.062520615189722"><ele>6.0</ele><time>2026-04-26T15:17:04.999Z</time></trkpt><trkpt lat="39.21493716470007" lon="16.062528496331876"><ele>7.0</ele><time>2026-04-26T15:17:05.999Z</time></trkpt><trkpt lat="39.21472223939106" lon="16.062537141183768"><ele>8.0</ele><time>2026-04-26T15:17:06.999Z</time></trkpt><trkpt lat="39.214502643082035" lon="16.06254528521376"><ele>9.0</ele><time>2026-04-26T15:17:07.999Z</time></trkpt><trkpt lat="39.21428228412461" lon="16.06255552551594"><ele>9.0</ele><time>2026-04-26T15:17:08.999Z</time></trkpt><trkpt lat="39.21406441688494" lon="16.062567260367285"><ele>9.0</ele><time>2026-04-26T15:17:09.999Z</time></trkpt><trkpt lat="39.213843049386945" lon="16.062577736441572"><ele>9.0</ele><time>2026-04-26T15:17:10.999Z</time></trkpt><trkpt lat="39.213622051372774" lon="16.062583246880294"><ele>8.333333333333334</ele><time>2026-04-26T15:17:11.999Z</time></trkpt><trkpt lat="39.21339851088896" lon="16.062594143644535"><ele>7.666666666666667</ele><time>2026-04-26T15:17:12.999Z</time></trkpt><trkpt lat="39.213175875737775" lon="16.062607688312703"><ele>7.0</ele><time>2026-04-26T15:17:13.999Z</time></trkpt><trkpt lat="39.21295126893583" lon="16.062617014353705"><ele>7.0</ele><time>2026-04-26T15:17:14.999Z</time></trkpt><trkpt lat="39.212726776521244" lon="16.062624651985715"><ele>7.0</ele><time>2026-04-26T15:17:15.999Z</time></trkpt><trkpt lat="39.21250446659288" lon="16.06263515754921"><ele>7.0</ele><time>2026-04-26T15:17:16.999Z</time></trkpt><trkpt lat="39.21228063048422" lon="16.062643304387336"><ele>7.0</ele><time>2026-04-26T15:17:17.999Z</time></trkpt><trkpt lat="39.21205782265565" lon="16.062652166050526"><ele>7.0</ele><time>2026-04-26T15:17:18.999Z</time></trkpt><trkpt lat="39.21183424826503" lon="16.062661986060395"><ele>7.0</ele><time>2026-04-26T15:17:19.999Z</time></trkpt><trkpt lat="39.211609595924" lon="16.062674034474945"><ele>7.333333333333334</ele><time>2026-04-26T15:17:20.999Z</time></trkpt><trkpt lat="39.21138743518127" lon="16.062683853694324"><ele>7.666666666666666</ele><time>2026-04-26T15:17:21.999Z</time></trkpt><trkpt lat="39.211162751000465" lon="16.06269564742116"><ele>8.0</ele><time>2026-04-26T15:17:22.999Z</time></trkpt><trkpt lat="39.21094139931051" lon="16.062708072499074"><ele>8.0</ele><time>2026-04-26T15:17:23.999Z</time></trkpt><trkpt lat="39.21072259999502" lon="16.06271862116957"><ele>8.0</ele><time>2026-04-26T15:17:24.999Z</time></trkpt><trkpt lat="39.21050089229584" lon="16.06273147988608"><ele>8.0</ele><time>2026-04-26T15:17:25.999Z</time></trkpt><trkpt lat="39.210278674135495" lon="16.062743639538578"><ele>8.0</ele><time>2026-04-26T15:17:26.999Z</time></trkpt><trkpt lat="39.21005784572681" lon="16.062752095732932"><ele>8.0</ele><time>2026-04-26T15:17:27.999Z</time></trkpt><trkpt lat="39.20983764338365" lon="16.062760680859768"><ele>8.0</ele><time>2026-04-26T15:17:28.999Z</time></trkpt><trkpt lat="39.20961813803998" lon="16.062770063219233"><ele>8.0</ele><time>2026-04-26T15:17:29.999Z</time></trkpt><trkpt lat="39.20940017324248" lon="16.06277290915636"><ele>8.0</ele><time>2026-04-26T15:17:30.999Z</time></trkpt><trkpt lat="39.209180908745424" lon="16.06276455834959"><ele>8.0</ele><time>2026-04-26T15:17:31.999Z</time></trkpt><trkpt lat="39.208966452482336" lon="16.0627356672371"><ele>8.333333333333332</ele><time>2026-04-26T15:17:32.999Z</time></trkpt><trkpt lat="39.20875176326996" lon="16.062687877775822"><ele>8.666666666666666</ele><time>2026-04-26T15:17:33.999Z</time></trkpt><trkpt lat="39.20853773326084" lon="16.06264500883644"><ele>9.0</ele><time>2026-04-26T15:17:34.999Z</time></trkpt><trkpt lat="39.20832267854024" lon="16.062604996592405"><ele>8.333333333333334</ele><time>2026-04-26T15:17:35.999Z</time></trkpt><trkpt lat="39.2081066074688" lon="16.06256565718971"><ele>7.666666666666667</ele><time>2026-04-26T15:17:36.999Z</time></trkpt><trkpt lat="39.207890255310595" lon="16.06252452457621"><ele>7.0</ele><time>2026-04-26T15:17:37.999Z</time></trkpt><trkpt lat="39.20766671766337" lon="16.06248656032772"><ele>7.0</ele><time>2026-04-26T15:17:38.999Z</time></trkpt><trkpt lat="39.20744521139334" lon="16.06244797585578"><ele>7.0</ele><time>2026-04-26T15:17:39.999Z</time></trkpt><trkpt lat="39.207221342176304" lon="16.06240393502357"><ele>7.5</ele><time>2026-04-26T15:17:40.999Z</time></trkpt><trkpt lat="39.206991088237864" lon="16.06235972511137"><ele>8.0</ele><time>2026-04-26T15:17:41.999Z</time></trkpt><trkpt lat="39.20675891468935" lon="16.06231180803004"><ele>8.0</ele><time>2026-04-26T15:17:42.999Z</time></trkpt><trkpt lat="39.20652043053765" lon="16.062269467863274"><ele>8.0</ele><time>2026-04-26T15:17:43.999Z</time></trkpt><trkpt lat="39.206279122217644" lon="16.062229826863653"><ele>9.5</ele><time>2026-04-26T15:17:44.999Z</time></trkpt><trkpt lat="39.20603792243026" lon="16.06219346548811"><ele>11.0</ele><time>2026-04-26T15:17:45.999Z</time></trkpt><trkpt lat="39.2057921932405" lon="16.062171539422646"><ele>12.0</ele><time>2026-04-26T15:17:46.999Z</time></trkpt><trkpt lat="39.20554321768741" lon="16.06216192170635"><ele>13.0</ele><time>2026-04-26T15:17:47.999Z</time></trkpt><trkpt lat="39.20529523343994" lon="16.062157856832993"><ele>13.0</ele><time>2026-04-26T15:17:48.999Z</time></trkpt><trkpt lat="39.20504922592032" lon="16.06215788660296"><ele>13.0</ele><time>2026-04-26T15:17:49.999Z</time></trkpt><trkpt lat="39.20480266950488" lon="16.062155596465097"><ele>13.5</ele><time>2026-04-26T15:17:50.999Z</time></trkpt><trkpt lat="39.20455603232257" lon="16.062154485177498"><ele>14.0</ele><time>2026-04-26T15:17:51.999Z</time></trkpt><trkpt lat="39.20430810661589" lon="16.062154588096895"><ele>14.0</ele><time>2026-04-26T15:17:52.999Z</time></trkpt><trkpt lat="39.20406285202198" lon="16.062152146103973"><ele>14.0</ele><time>2026-04-26T15:17:53.999Z</time></trkpt><trkpt lat="39.2038155357686" lon="16.0621494339533"><ele>14.0</ele><time>2026-04-26T15:17:54.999Z</time></trkpt><trkpt lat="39.20356678421267" lon="16.062146747792"><ele>14.0</ele><time>2026-04-26T15:17:55.999Z</time></trkpt><trkpt lat="39.20331870884044" lon="16.062146043369005"><ele>15.5</ele><time>2026-04-26T15:17:56.999Z</time></trkpt><trkpt lat="39.20307535671556" lon="16.062150718508413"><ele>17.0</ele><time>2026-04-26T15:17:57.999Z</time></trkpt><trkpt lat="39.2028332087318" lon="16.06215517832808"><ele>17.0</ele><time>2026-04-26T15:17:58.999Z</time></trkpt><trkpt lat="39.20259322476508" lon="16.062156408122323"><ele>17.0</ele><time>2026-04-26T15:17:59.999Z</time></trkpt><trkpt lat="39.20235396434629" lon="16.06215469780952"><ele>17.0</ele><time>2026-04-26T15:18:00.999Z</time></trkpt><trkpt lat="39.202118513389976" lon="16.062153791736236"><ele>17.0</ele><time>2026-04-26T15:18:01.999Z</time></trkpt><trkpt lat="39.2018822411746" lon="16.062163974576233"><ele>17.0</ele><time>2026-04-26T15:18:02.999Z</time></trkpt><trkpt lat="39.20164695981879" lon="16.06219200663508"><ele>17.0</ele><time>2026-04-26T15:18:03.999Z</time></trkpt><trkpt lat="39.2014140380855" lon="16.062235817211974"><ele>15.5</ele><time>2026-04-26T15:18:04.999Z</time></trkpt><trkpt lat="39.201180171601706" lon="16.062286440863243"><ele>14.0</ele><time>2026-04-26T15:18:05.999Z</time></trkpt><trkpt lat="39.20094717196717" lon="16.062345678111406"><ele>14.0</ele><time>2026-04-26T15:18:06.999Z</time></trkpt><trkpt lat="39.20071262066756" lon="16.062406125868723"><ele>14.0</ele><time>2026-04-26T15:18:07.999Z</time></trkpt><trkpt lat="39.2004783157741" lon="16.062464368311435"><ele>15.5</ele><time>2026-04-26T15:18:08.999Z</time></trkpt><trkpt lat="39.20024337365448" lon="16.062520500438918"><ele>17.0</ele><time>2026-04-26T15:18:09.999Z</time></trkpt><trkpt lat="39.20000771163969" lon="16.062577563151006"><ele>15.5</ele><time>2026-04-26T15:18:10.999Z</time></trkpt><trkpt lat="39.19977425444635" lon="16.062632987983946"><ele>14.0</ele><time>2026-04-26T15:18:11.999Z</time></trkpt><trkpt lat="39.19954334235029" lon="16.062690604354998"><ele>14.0</ele><time>2026-04-26T15:18:12.999Z</time></trkpt><trkpt lat="39.19933425173461" lon="16.062746705415496"><ele>14.0</ele><time>2026-04-26T15:18:13.999Z</time></trkpt><trkpt lat="39.199155385506685" lon="16.062803624701765"><ele>14.0</ele><time>2026-04-26T15:18:14.999Z</time></trkpt><trkpt lat="39.19898585149129" lon="16.062841944603814"><ele>12.0</ele><time>2026-04-26T15:18:15.999Z</time></trkpt><trkpt lat="39.19881055036927" lon="16.062886413973274"><ele>10.0</ele><time>2026-04-26T15:18:16.999Z</time></trkpt><trkpt lat="39.19864532091681" lon="16.062926068222936"><ele>8.0</ele><time>2026-04-26T15:18:17.999Z</time></trkpt><trkpt lat="39.19849792010381" lon="16.062959386589906"><ele>8.0</ele><time>2026-04-26T15:18:18.999Z</time></trkpt><trkpt lat="39.1983632235373" lon="16.06299647651099"><ele>8.0</ele><time>2026-04-26T15:18:19.999Z</time></trkpt><trkpt lat="39.19822650693992" lon="16.063034939079056"><ele>8.0</ele><time>2026-04-26T15:18:20.999Z</time></trkpt><trkpt lat="39.198073214129025" lon="16.063074419231263"><ele>8.0</ele><time>2026-04-26T15:18:21.999Z</time></trkpt><trkpt lat="39.19790192980977" lon="16.06311128545179"><ele>7.333333333333333</ele><time>2026-04-26T15:18:22.999Z</time></trkpt><trkpt lat="39.19771779919361" lon="16.06314744465275"><ele>6.666666666666666</ele><time>2026-04-26T15:18:23.999Z</time></trkpt><trkpt lat="39.197520918766585" lon="16.06318668424862"><ele>6.0</ele><time>2026-04-26T15:18:24.999Z</time></trkpt><trkpt lat="39.197313795506176" lon="16.06322776646261"><ele>5.666666666666667</ele><time>2026-04-26T15:18:25.999Z</time></trkpt><trkpt lat="39.197097828308316" lon="16.063260943897966"><ele>5.333333333333334</ele><time>2026-04-26T15:18:26.999Z</time></trkpt><trkpt lat="39.1968749281113" lon="16.063280701536794"><ele>5.0</ele><time>2026-04-26T15:18:27.999Z</time></trkpt><trkpt lat="39.1966437969603" lon="16.063293527992844"><ele>5.0</ele><time>2026-04-26T15:18:28.999Z</time></trkpt><trkpt lat="39.1964105953132" lon="16.063306151790744"><ele>5.0</ele><time>2026-04-26T15:18:29.999Z</time></trkpt><trkpt lat="39.19617412730069" lon="16.063316315323178"><ele>5.0</ele><time>2026-04-26T15:18:30.999Z</time></trkpt><trkpt lat="39.195932644856924" lon="16.063326754969513"><ele>5.0</ele><time>2026-04-26T15:18:31.999Z</time></trkpt><trkpt lat="39.19569191122656" lon="16.063342945772156"><ele>5.5</ele><time>2026-04-26T15:18:32.999Z</time></trkpt><trkpt lat="39.195449515779615" lon="16.063362173062867"><ele>6.0</ele><time>2026-04-26T15:18:33.999Z</time></trkpt><trkpt lat="39.19520396887177" lon="16.06338016460918"><ele>6.0</ele><time>2026-04-26T15:18:34.999Z</time></trkpt><trkpt lat="39.194956314071355" lon="16.0633959378895"><ele>6.0</ele><time>2026-04-26T15:18:35.999Z</time></trkpt><trkpt lat="39.194708593906924" lon="16.063413863845813"><ele>6.5</ele><time>2026-04-26T15:18:36.999Z</time></trkpt><trkpt lat="39.1944605018487" lon="16.063429194497864"><ele>7.0</ele><time>2026-04-26T15:18:37.999Z</time></trkpt><trkpt lat="39.19421105886154" lon="16.06344817235178"><ele>6.5</ele><time>2026-04-26T15:18:38.999Z</time></trkpt><trkpt lat="39.19396254527101" lon="16.063468591558692"><ele>6.0</ele><time>2026-04-26T15:18:39.999Z</time></trkpt><trkpt lat="39.19371509945447" lon="16.06349021408114"><ele>6.0</ele><time>2026-04-26T15:18:41Z</time></trkpt><trkpt lat="39.19347049819906" lon="16.063519230690353"><ele>6.0</ele><time>2026-04-26T15:18:42Z</time></trkpt><trkpt lat="39.19322490791385" lon="16.06355602769995"><ele>6.0</ele><time>2026-04-26T15:18:43Z</time></trkpt><trkpt lat="39.19297994948542" lon="16.063594737014114"><ele>6.0</ele><time>2026-04-26T15:18:44Z</time></trkpt><trkpt lat="39.192738880368644" lon="16.063632553787105"><ele>6.0</ele><time>2026-04-26T15:18:45Z</time></trkpt><trkpt lat="39.19250292660267" lon="16.063664255782577"><ele>6.0</ele><time>2026-04-26T15:18:46Z</time></trkpt><trkpt lat="39.19227427870348" lon="16.063698624845692"><ele>5.666666666666667</ele><time>2026-04-26T15:18:47Z</time></trkpt><trkpt lat="39.19205472449973" lon="16.063728782759096"><ele>5.333333333333334</ele><time>2026-04-26T15:18:48Z</time></trkpt><trkpt lat="39.191855441873216" lon="16.063750829341046"><ele>5.0</ele><time>2026-04-26T15:18:49Z</time></trkpt><trkpt lat="39.1916632222105" lon="16.063779507609603"><ele>5.666666666666667</ele><time>2026-04-26T15:18:50Z</time></trkpt><trkpt lat="39.19146962779107" lon="16.063819850554236"><ele>6.333333333333334</ele><time>2026-04-26T15:18:51Z</time></trkpt><trkpt lat="39.19127116534906" lon="16.063853887653558"><ele>7.0</ele><time>2026-04-26T15:18:52Z</time></trkpt><trkpt lat="39.19107149653413" lon="16.063882050058726"><ele>7.0</ele><time>2026-04-26T15:18:53Z</time></trkpt><trkpt lat="39.19087512971946" lon="16.063911779965792"><ele>7.0</ele><time>2026-04-26T15:18:54Z</time></trkpt><trkpt lat="39.190681936146305" lon="16.063943934196466"><ele>7.0</ele><time>2026-04-26T15:18:55Z</time></trkpt><trkpt lat="39.190496451533505" lon="16.06396945087865"><ele>7.0</ele><time>2026-04-26T15:18:56Z</time></trkpt><trkpt lat="39.19032256916685" lon="16.063992840629716"><ele>7.0</ele><time>2026-04-26T15:18:57Z</time></trkpt><trkpt lat="39.1901530600462" lon="16.0640209655694"><ele>7.0</ele><time>2026-04-26T15:18:58Z</time></trkpt><trkpt lat="39.189988292117135" lon="16.064048861092722"><ele>7.333333333333334</ele><time>2026-04-26T15:18:59Z</time></trkpt><trkpt lat="39.18982569097996" lon="16.06407253279226"><ele>7.666666666666666</ele><time>2026-04-26T15:19:00Z</time></trkpt><trkpt lat="39.189668367138026" lon="16.0640923451422"><ele>8.0</ele><time>2026-04-26T15:19:01Z</time></trkpt><trkpt lat="39.189496925690804" lon="16.064116917513406"><ele>8.333333333333332</ele><time>2026-04-26T15:19:02Z</time></trkpt><trkpt lat="39.18932404140423" lon="16.064140282830643"><ele>8.666666666666666</ele><time>2026-04-26T15:19:03Z</time></trkpt><trkpt lat="39.18915171094429" lon="16.06416220816345"><ele>9.0</ele><time>2026-04-26T15:19:04Z</time></trkpt><trkpt lat="39.18897484217925" lon="16.064179492491483"><ele>9.0</ele><time>2026-04-26T15:19:05Z</time></trkpt><trkpt lat="39.18886661675886" lon="16.0642169830433"><ele>9.0</ele><time>2026-04-26T15:19:06Z</time></trkpt><trkpt lat="39.18873820112855" lon="16.064215479537292"><ele>9.0</ele><time>2026-04-26T15:19:07Z</time></trkpt><trkpt lat="39.18861900195113" lon="16.064235671606838"><ele>9.0</ele><time>2026-04-26T15:19:08Z</time></trkpt><trkpt lat="39.18851292770608" lon="16.064256047580198"><ele>9.0</ele><time>2026-04-26T15:19:09Z</time></trkpt><trkpt lat="39.18840966098529" lon="16.06427388721396"><ele>9.0</ele><time>2026-04-26T15:19:10Z</time></trkpt><trkpt lat="39.18830622131125" lon="16.06429295339447"><ele>9.0</ele><time>2026-04-26T15:19:11Z</time></trkpt><trkpt lat="39.18819272642745" lon="16.064312724781285"><ele>9.0</ele><time>2026-04-26T15:19:11.999Z</time></trkpt><trkpt lat="39.188067599525354" lon="16.064332030024165"><ele>9.0</ele><time>2026-04-26T15:19:12.999Z</time></trkpt><trkpt lat="39.18793742650905" lon="16.064357770046456"><ele>8.75</ele><time>2026-04-26T15:19:13.999Z</time></trkpt><trkpt lat="39.18780486582722" lon="16.064381915075398"><ele>8.5</ele><time>2026-04-26T15:19:14.999Z</time></trkpt><trkpt lat="39.187677226969235" lon="16.06439818099348"><ele>8.25</ele><time>2026-04-26T15:19:15.999Z</time></trkpt><trkpt lat="39.18755707662063" lon="16.064408739682577"><ele>8.0</ele><time>2026-04-26T15:19:16.999Z</time></trkpt><trkpt lat="39.1874416793579" lon="16.06441929832603"><ele>7.75</ele><time>2026-04-26T15:19:17.999Z</time></trkpt><trkpt lat="39.18732189078992" lon="16.064435492993585"><ele>7.5</ele><time>2026-04-26T15:19:18.999Z</time></trkpt><trkpt lat="39.18719370399265" lon="16.06445529004891"><ele>7.25</ele><time>2026-04-26T15:19:19.999Z</time></trkpt><trkpt lat="39.18705559623657" lon="16.064476290180597"><ele>7.0</ele><time>2026-04-26T15:19:20.999Z</time></trkpt><trkpt lat="39.186912172034994" lon="16.064499072331436"><ele>7.0</ele><time>2026-04-26T15:19:21.999Z</time></trkpt><trkpt lat="39.18676685007463" lon="16.06452023881454"><ele>7.0</ele><time>2026-04-26T15:19:22.999Z</time></trkpt><trkpt lat="39.186623653729605" lon="16.064539705811672"><ele>7.0</ele><time>2026-04-26T15:19:23.999Z</time></trkpt><trkpt lat="39.18647986068483" lon="16.064559314758164"><ele>7.0</ele><time>2026-04-26T15:19:24.999Z</time></trkpt><trkpt lat="39.186337415971174" lon="16.064582956805136"><ele>6.75</ele><time>2026-04-26T15:19:25.999Z</time></trkpt><trkpt lat="39.18618951779836" lon="16.064610929817288"><ele>6.5</ele><time>2026-04-26T15:19:26.999Z</time></trkpt><trkpt lat="39.18604372333345" lon="16.06463290618914"><ele>6.25</ele><time>2026-04-26T15:19:27.999Z</time></trkpt><trkpt lat="39.18589604119092" lon="16.06466270756482"><ele>6.0</ele><time>2026-04-26T15:19:28.999Z</time></trkpt><trkpt lat="39.18574812525066" lon="16.064685321786072"><ele>6.333333333333334</ele><time>2026-04-26T15:19:29.999Z</time></trkpt><trkpt lat="39.18559632723399" lon="16.064700713443205"><ele>6.666666666666667</ele><time>2026-04-26T15:19:30.999Z</time></trkpt><trkpt lat="39.185441655598474" lon="16.06472394008226"><ele>7.0</ele><time>2026-04-26T15:19:31.999Z</time></trkpt><trkpt lat="39.18528982531249" lon="16.064739679165868"><ele>7.0</ele><time>2026-04-26T15:19:32.999Z</time></trkpt><trkpt lat="39.185124149442665" lon="16.06476304141455"><ele>7.0</ele><time>2026-04-26T15:19:33.999Z</time></trkpt><trkpt lat="39.18494958968441" lon="16.064787636933193"><ele>7.0</ele><time>2026-04-26T15:19:34.999Z</time></trkpt><trkpt lat="39.18476814489562" lon="16.06480500912923"><ele>8.0</ele><time>2026-04-26T15:19:35.999Z</time></trkpt><trkpt lat="39.18458043837646" lon="16.06482423302471"><ele>9.0</ele><time>2026-04-26T15:19:36.999Z</time></trkpt><trkpt lat="39.18439053309699" lon="16.064840826553862"><ele>10.0</ele><time>2026-04-26T15:19:37.999Z</time></trkpt><trkpt lat="39.18419182796383" lon="16.06485403944709"><ele>8.666666666666668</ele><time>2026-04-26T15:19:38.999Z</time></trkpt><trkpt lat="39.183992373936164" lon="16.06487263168838"><ele>7.333333333333334</ele><time>2026-04-26T15:19:39.999Z</time></trkpt><trkpt lat="39.183788556417355" lon="16.06490440427239"><ele>6.0</ele><time>2026-04-26T15:19:40.999Z</time></trkpt><trkpt lat="39.18359513254446" lon="16.06492252627187"><ele>6.0</ele><time>2026-04-26T15:19:41.999Z</time></trkpt><trkpt lat="39.1834233416181" lon="16.06492386595825"><ele>6.0</ele><time>2026-04-26T15:19:42.999Z</time></trkpt><trkpt lat="39.18323896468163" lon="16.064940200338754"><ele>6.0</ele><time>2026-04-26T15:19:43.999Z</time></trkpt><trkpt lat="39.183064714845834" lon="16.06495085924481"><ele>7.0</ele><time>2026-04-26T15:19:44.999Z</time></trkpt><trkpt lat="39.18289151289494" lon="16.06497053152606"><ele>8.0</ele><time>2026-04-26T15:19:45.999Z</time></trkpt><trkpt lat="39.182720302192756" lon="16.064987863909575"><ele>9.0</ele><time>2026-04-26T15:19:46.999Z</time></trkpt><trkpt lat="39.18253870649419" lon="16.065002888006916"><ele>9.0</ele><time>2026-04-26T15:19:47.999Z</time></trkpt><trkpt lat="39.18235883785955" lon="16.064998413564624"><ele>9.0</ele><time>2026-04-26T15:19:48.999Z</time></trkpt><trkpt lat="39.18217535758473" lon="16.065012237889622"><ele>9.0</ele><time>2026-04-26T15:19:49.999Z</time></trkpt><trkpt lat="39.18198985610625" lon="16.06502587357992"><ele>10.0</ele><time>2026-04-26T15:19:50.999Z</time></trkpt><trkpt lat="39.18180355286585" lon="16.06503956820561"><ele>11.0</ele><time>2026-04-26T15:19:51.999Z</time></trkpt><trkpt lat="39.181613523106925" lon="16.06505329404077"><ele>12.0</ele><time>2026-04-26T15:19:52.999Z</time></trkpt><trkpt lat="39.18142507559829" lon="16.065085477159272"><ele>12.0</ele><time>2026-04-26T15:19:53.999Z</time></trkpt><trkpt lat="39.18124401155836" lon="16.065087399367464"><ele>12.0</ele><time>2026-04-26T15:19:54.999Z</time></trkpt><trkpt lat="39.18105914210229" lon="16.065102884455005"><ele>12.0</ele><time>2026-04-26T15:19:55.999Z</time></trkpt><trkpt lat="39.18086637318601" lon="16.065060650437154"><ele>12.0</ele><time>2026-04-26T15:19:56.999Z</time></trkpt><trkpt lat="39.18069565256751" lon="16.065103672848434"><ele>12.0</ele><time>2026-04-26T15:19:57.999Z</time></trkpt><trkpt lat="39.18051737047915" lon="16.065122035564244"><ele>12.0</ele><time>2026-04-26T15:19:58.999Z</time></trkpt><trkpt lat="39.18033421722023" lon="16.06513087453623"><ele>10.666666666666666</ele><time>2026-04-26T15:19:59.999Z</time></trkpt><trkpt lat="39.18015442819088" lon="16.06514498990001"><ele>9.333333333333332</ele><time>2026-04-26T15:20:00.999Z</time></trkpt><trkpt lat="39.179983511140996" lon="16.065153779987327"><ele>8.0</ele><time>2026-04-26T15:20:01.999Z</time></trkpt><trkpt lat="39.17981898258154" lon="16.06516920099499"><ele>7.333333333333333</ele><time>2026-04-26T15:20:02.999Z</time></trkpt><trkpt lat="39.17965872406524" lon="16.065183927018744"><ele>6.666666666666666</ele><time>2026-04-26T15:20:03.999Z</time></trkpt><trkpt lat="39.179492865553044" lon="16.065193176295736"><ele>6.0</ele><time>2026-04-26T15:20:04.999Z</time></trkpt><trkpt lat="39.179323387383974" lon="16.065205461431255"><ele>6.0</ele><time>2026-04-26T15:20:05.999Z</time></trkpt><trkpt lat="39.17914901200625" lon="16.065220504054157"><ele>6.0</ele><time>2026-04-26T15:20:06.999Z</time></trkpt><trkpt lat="39.178971639066084" lon="16.06523540772988"><ele>6.0</ele><time>2026-04-26T15:20:07.999Z</time></trkpt><trkpt lat="39.17879016250282" lon="16.065250228280867"><ele>6.0</ele><time>2026-04-26T15:20:08.999Z</time></trkpt><trkpt lat="39.178607432785185" lon="16.06526264746254"><ele>6.0</ele><time>2026-04-26T15:20:09.999Z</time></trkpt><trkpt lat="39.178423383047495" lon="16.065274463246244"><ele>6.0</ele><time>2026-04-26T15:20:10.999Z</time></trkpt><trkpt lat="39.178236000568084" lon="16.065288995502453"><ele>6.0</ele><time>2026-04-26T15:20:11.999Z</time></trkpt><trkpt lat="39.17804616813431" lon="16.065305155634807"><ele>6.0</ele><time>2026-04-26T15:20:12.999Z</time></trkpt><trkpt lat="39.17785058683271" lon="16.06532545107511"><ele>6.0</ele><time>2026-04-26T15:20:13.999Z</time></trkpt><trkpt lat="39.17765342155255" lon="16.06534760312495"><ele>6.0</ele><time>2026-04-26T15:20:14.999Z</time></trkpt><trkpt lat="39.17743996467044" lon="16.065374134215208"><ele>6.0</ele><time>2026-04-26T15:20:15.999Z</time></trkpt><trkpt lat="39.1772132251315" lon="16.065402658888086"><ele>6.0</ele><time>2026-04-26T15:20:16.999Z</time></trkpt><trkpt lat="39.176983646257945" lon="16.06542530688715"><ele>6.5</ele><time>2026-04-26T15:20:17.999Z</time></trkpt><trkpt lat="39.17674700837224" lon="16.065422813819588"><ele>7.0</ele><time>2026-04-26T15:20:18.999Z</time></trkpt><trkpt lat="39.17650663810417" lon="16.06544170755257"><ele>7.0</ele><time>2026-04-26T15:20:19.999Z</time></trkpt><trkpt lat="39.176244205570704" lon="16.06546241303631"><ele>7.0</ele><time>2026-04-26T15:20:20.999Z</time></trkpt><trkpt lat="39.17596188204172" lon="16.065484603081597"><ele>8.0</ele><time>2026-04-26T15:20:21.999Z</time></trkpt><trkpt lat="39.175671945191276" lon="16.06550739151716"><ele>9.0</ele><time>2026-04-26T15:20:22.999Z</time></trkpt><trkpt lat="39.17538222129257" lon="16.065530163216632"><ele>9.0</ele><time>2026-04-26T15:20:23.999Z</time></trkpt><trkpt lat="39.17509686265949" lon="16.065573489801302"><ele>9.0</ele><time>2026-04-26T15:20:24.999Z</time></trkpt><trkpt lat="39.17481096360382" lon="16.065577742227973"><ele>10.0</ele><time>2026-04-26T15:20:25.999Z</time></trkpt><trkpt lat="39.174530585903504" lon="16.065569754618412"><ele>11.0</ele><time>2026-04-26T15:20:26.999Z</time></trkpt><trkpt lat="39.17425528326376" lon="16.065545960880456"><ele>11.5</ele><time>2026-04-26T15:20:27.999Z</time></trkpt><trkpt lat="39.1739837998962" lon="16.065507879995547"><ele>12.0</ele><time>2026-04-26T15:20:28.999Z</time></trkpt><trkpt lat="39.17371254016664" lon="16.06546238127365"><ele>12.0</ele><time>2026-04-26T15:20:29.999Z</time></trkpt><trkpt lat="39.173453726735694" lon="16.065411120213614"><ele>12.0</ele><time>2026-04-26T15:20:30.999Z</time></trkpt><trkpt lat="39.173195130439744" lon="16.065360826934743"><ele>10.0</ele><time>2026-04-26T15:20:31.999Z</time></trkpt><trkpt lat="39.172925800691836" lon="16.065302057323326"><ele>8.0</ele><time>2026-04-26T15:20:32.999Z</time></trkpt><trkpt lat="39.17265978875909" lon="16.065269899407983"><ele>8.0</ele><time>2026-04-26T15:20:33.999Z</time></trkpt><trkpt lat="39.17239712400196" lon="16.06522703511347"><ele>8.0</ele><time>2026-04-26T15:20:34.999Z</time></trkpt><trkpt lat="39.172138269471205" lon="16.06517808153906"><ele>7.5</ele><time>2026-04-26T15:20:35.999Z</time></trkpt><trkpt lat="39.17187577547716" lon="16.06512663119432"><ele>7.0</ele><time>2026-04-26T15:20:36.999Z</time></trkpt><trkpt lat="39.1716126612237" lon="16.06507357133119"><ele>7.5</ele><time>2026-04-26T15:20:37.999Z</time></trkpt><trkpt lat="39.17134930928299" lon="16.065018069225506"><ele>8.0</ele><time>2026-04-26T15:20:38.999Z</time></trkpt><trkpt lat="39.171085596839596" lon="16.06496340153674"><ele>7.0</ele><time>2026-04-26T15:20:39.999Z</time></trkpt><trkpt lat="39.17082227621037" lon="16.064911417153958"><ele>6.0</ele><time>2026-04-26T15:20:40.999Z</time></trkpt><trkpt lat="39.17056025579613" lon="16.06486274709361"><ele>6.0</ele><time>2026-04-26T15:20:41.999Z</time></trkpt><trkpt lat="39.17030130246683" lon="16.06481890543156"><ele>6.0</ele><time>2026-04-26T15:20:42.999Z</time></trkpt><trkpt lat="39.17004744713691" lon="16.06478486514178"><ele>7.0</ele><time>2026-04-26T15:20:43.999Z</time></trkpt><trkpt lat="39.16979124391441" lon="16.064768070183952"><ele>8.0</ele><time>2026-04-26T15:20:44.999Z</time></trkpt><trkpt lat="39.169534763801934" lon="16.064771587663465"><ele>8.0</ele><time>2026-04-26T15:20:45.999Z</time></trkpt><trkpt lat="39.169283874030086" lon="16.064789394691932"><ele>8.0</ele><time>2026-04-26T15:20:47Z</time></trkpt><trkpt lat="39.16903068268864" lon="16.064810901265897"><ele>7.5</ele><time>2026-04-26T15:20:48Z</time></trkpt><trkpt lat="39.16877999980426" lon="16.064820319493602"><ele>7.0</ele><time>2026-04-26T15:20:49Z</time></trkpt><trkpt lat="39.16852783410157" lon="16.06484012692652"><ele>7.0</ele><time>2026-04-26T15:20:50Z</time></trkpt><trkpt lat="39.168274734898795" lon="16.064853112817197"><ele>7.0</ele><time>2026-04-26T15:20:51Z</time></trkpt><trkpt lat="39.16801851699299" lon="16.06487347250081"><ele>6.0</ele><time>2026-04-26T15:20:52Z</time></trkpt><trkpt lat="39.167763312806905" lon="16.06489124843816"><ele>5.0</ele><time>2026-04-26T15:20:53Z</time></trkpt><trkpt lat="39.16750660526619" lon="16.06490891396279"><ele>5.5</ele><time>2026-04-26T15:20:54Z</time></trkpt><trkpt lat="39.16724692014497" lon="16.064925577346894"><ele>6.0</ele><time>2026-04-26T15:20:55Z</time></trkpt><trkpt lat="39.16698988424981" lon="16.06494403702212"><ele>6.0</ele><time>2026-04-26T15:20:56Z</time></trkpt><trkpt lat="39.16672959022613" lon="16.064960163039697"><ele>6.0</ele><time>2026-04-26T15:20:57Z</time></trkpt><trkpt lat="39.16647256022185" lon="16.064976925037914"><ele>6.5</ele><time>2026-04-26T15:20:58Z</time></trkpt><trkpt lat="39.16621411442542" lon="16.064993051021414"><ele>7.0</ele><time>2026-04-26T15:20:59Z</time></trkpt><trkpt lat="39.16595520943055" lon="16.065008116176784"><ele>7.0</ele><time>2026-04-26T15:21:00Z</time></trkpt><trkpt lat="39.16570014901953" lon="16.065029054667217"><ele>7.0</ele><time>2026-04-26T15:21:01Z</time></trkpt><trkpt lat="39.16544657227185" lon="16.06504714802725"><ele>7.5</ele><time>2026-04-26T15:21:02Z</time></trkpt><trkpt lat="39.1651930216346" lon="16.065064405055757"><ele>8.0</ele><time>2026-04-26T15:21:03Z</time></trkpt><trkpt lat="39.16494119784219" lon="16.06508245010137"><ele>7.5</ele><time>2026-04-26T15:21:04Z</time></trkpt><trkpt lat="39.16468655683435" lon="16.065100108560046"><ele>7.0</ele><time>2026-04-26T15:21:05Z</time></trkpt><trkpt lat="39.164433660295686" lon="16.065112173518834"><ele>7.0</ele><time>2026-04-26T15:21:06Z</time></trkpt><trkpt lat="39.164182064358414" lon="16.06513465722383"><ele>7.0</ele><time>2026-04-26T15:21:07Z</time></trkpt><trkpt lat="39.16393512850964" lon="16.065153765809008"><ele>7.5</ele><time>2026-04-26T15:21:08Z</time></trkpt><trkpt lat="39.16368695878999" lon="16.06517231760477"><ele>8.0</ele><time>2026-04-26T15:21:09Z</time></trkpt><trkpt lat="39.16343826261888" lon="16.06518490799276"><ele>8.0</ele><time>2026-04-26T15:21:10Z</time></trkpt><trkpt lat="39.16318973286131" lon="16.065203375390087"><ele>8.0</ele><time>2026-04-26T15:21:11Z</time></trkpt><trkpt lat="39.16294667646428" lon="16.0652167745281"><ele>8.0</ele><time>2026-04-26T15:21:12Z</time></trkpt><trkpt lat="39.16270193903425" lon="16.065225571552414"><ele>8.0</ele><time>2026-04-26T15:21:12.999Z</time></trkpt><trkpt lat="39.162460025422014" lon="16.06521871409372"><ele>8.0</ele><time>2026-04-26T15:21:13.999Z</time></trkpt><trkpt lat="39.16221485334503" lon="16.065194906430577"><ele>8.0</ele><time>2026-04-26T15:21:14.999Z</time></trkpt><trkpt lat="39.161968267747056" lon="16.065157569776808"><ele>8.0</ele><time>2026-04-26T15:21:15.999Z</time></trkpt><trkpt lat="39.16172270274236" lon="16.06511522337889"><ele>8.0</ele><time>2026-04-26T15:21:16.999Z</time></trkpt><trkpt lat="39.16146904516143" lon="16.065087187717097"><ele>8.0</ele><time>2026-04-26T15:21:17.999Z</time></trkpt><trkpt lat="39.16121975416411" lon="16.06505775945387"><ele>8.0</ele><time>2026-04-26T15:21:18.999Z</time></trkpt><trkpt lat="39.16097142845431" lon="16.065026475085933"><ele>8.0</ele><time>2026-04-26T15:21:19.999Z</time></trkpt><trkpt lat="39.16072362642891" lon="16.064993907294678"><ele>8.0</ele><time>2026-04-26T15:21:20.999Z</time></trkpt><trkpt lat="39.160475913557114" lon="16.06495994790992"><ele>6.5</ele><time>2026-04-26T15:21:21.999Z</time></trkpt><trkpt lat="39.16022741866821" lon="16.064926565980944"><ele>5.0</ele><time>2026-04-26T15:21:22.999Z</time></trkpt><trkpt lat="39.159979139557784" lon="16.064900707205496"><ele>6.0</ele><time>2026-04-26T15:21:23.999Z</time></trkpt><trkpt lat="39.1597284621525" lon="16.064889825695484"><ele>7.0</ele><time>2026-04-26T15:21:24.999Z</time></trkpt><trkpt lat="39.15948186037213" lon="16.06489233939343"><ele>7.0</ele><time>2026-04-26T15:21:25.999Z</time></trkpt><trkpt lat="39.159237804568555" lon="16.064901164696543"><ele>7.0</ele><time>2026-04-26T15:21:26.999Z</time></trkpt><trkpt lat="39.15900329016816" lon="16.06491976976765"><ele>6.0</ele><time>2026-04-26T15:21:27.999Z</time></trkpt><trkpt lat="39.15878111804069" lon="16.064945508613963"><ele>5.0</ele><time>2026-04-26T15:21:28.999Z</time></trkpt><trkpt lat="39.15855709978647" lon="16.064973051757054"><ele>4.0</ele><time>2026-04-26T15:21:29.999Z</time></trkpt><trkpt lat="39.15833368412926" lon="16.065000225072115"><ele>5.666666666666666</ele><time>2026-04-26T15:21:30.999Z</time></trkpt><trkpt lat="39.158108185788706" lon="16.06502807051658"><ele>7.333333333333333</ele><time>2026-04-26T15:21:31.999Z</time></trkpt><trkpt lat="39.15788793213073" lon="16.065055081360455"><ele>9.0</ele><time>2026-04-26T15:21:32.999Z</time></trkpt><trkpt lat="39.15766929904009" lon="16.065080672630522"><ele>9.0</ele><time>2026-04-26T15:21:33.999Z</time></trkpt><trkpt lat="39.15745523223452" lon="16.06510811266987"><ele>9.0</ele><time>2026-04-26T15:21:34.999Z</time></trkpt><trkpt lat="39.157238550305365" lon="16.065136517169776"><ele>9.0</ele><time>2026-04-26T15:21:35.999Z</time></trkpt><trkpt lat="39.15701729157022" lon="16.065168632816523"><ele>9.0</ele><time>2026-04-26T15:21:36.999Z</time></trkpt><trkpt lat="39.156794109869956" lon="16.065204556043764"><ele>9.0</ele><time>2026-04-26T15:21:37.999Z</time></trkpt><trkpt lat="39.156563815365615" lon="16.065241797864545"><ele>7.0</ele><time>2026-04-26T15:21:38.999Z</time></trkpt><trkpt lat="39.15633016666765" lon="16.065276926921847"><ele>5.0</ele><time>2026-04-26T15:21:39.999Z</time></trkpt><trkpt lat="39.15609491079631" lon="16.065298700973774"><ele>5.0</ele><time>2026-04-26T15:21:40.999Z</time></trkpt><trkpt lat="39.15586018775536" lon="16.065315021437797"><ele>5.0</ele><time>2026-04-26T15:21:41.999Z</time></trkpt><trkpt lat="39.15562124382507" lon="16.06533571735434"><ele>4.0</ele><time>2026-04-26T15:21:42.999Z</time></trkpt><trkpt lat="39.15538058029211" lon="16.06536670183655"><ele>3.0</ele><time>2026-04-26T15:21:43.999Z</time></trkpt><trkpt lat="39.1551390062407" lon="16.065398853232068"><ele>3.0</ele><time>2026-04-26T15:21:44.999Z</time></trkpt><trkpt lat="39.1548977617897" lon="16.065431302517275"><ele>3.0</ele><time>2026-04-26T15:21:45.999Z</time></trkpt><trkpt lat="39.15465484181322" lon="16.065461652869338"><ele>2.0</ele><time>2026-04-26T15:21:46.999Z</time></trkpt><trkpt lat="39.154411509015105" lon="16.06549211515674"><ele>1.0</ele><time>2026-04-26T15:21:47.999Z</time></trkpt><trkpt lat="39.15416583375806" lon="16.065523526556294"><ele>0.5</ele><time>2026-04-26T15:21:48.999Z</time></trkpt><trkpt lat="39.15391981562702" lon="16.06555224473056"><ele>0.0</ele><time>2026-04-26T15:21:49.999Z</time></trkpt><trkpt lat="39.1536739356651" lon="16.065581558203174"><ele>0.0</ele><time>2026-04-26T15:21:50.999Z</time></trkpt><trkpt lat="39.153426873859466" lon="16.065614453711504"><ele>0.0</ele><time>2026-04-26T15:21:51.999Z</time></trkpt><trkpt lat="39.15317691214063" lon="16.065644865668364"><ele>0.0</ele><time>2026-04-26T15:21:52.999Z</time></trkpt><trkpt lat="39.1529317082643" lon="16.065672324439436"><ele>0.0</ele><time>2026-04-26T15:21:53.999Z</time></trkpt><trkpt lat="39.15268163122756" lon="16.065692159620404"><ele>0.0</ele><time>2026-04-26T15:21:54.999Z</time></trkpt><trkpt lat="39.15243128317503" lon="16.065706425359544"><ele>0.0</ele><time>2026-04-26T15:21:55.999Z</time></trkpt><trkpt lat="39.15218154006313" lon="16.06571094191257"><ele>0.0</ele><time>2026-04-26T15:21:56.999Z</time></trkpt><trkpt lat="39.15192985715132" lon="16.065713502305005"><ele>0.0</ele><time>2026-04-26T15:21:57.999Z</time></trkpt><trkpt lat="39.15167743532968" lon="16.0657147582706"><ele>0.0</ele><time>2026-04-26T15:21:58.999Z</time></trkpt><trkpt lat="39.15142365205251" lon="16.065721609715055"><ele>0.0</ele><time>2026-04-26T15:21:59.999Z</time></trkpt><trkpt lat="39.15116952285577" lon="16.065725869305286"><ele>0.0</ele><time>2026-04-26T15:22:00.999Z</time></trkpt><trkpt lat="39.15091252375444" lon="16.065733226115807"><ele>0.0</ele><time>2026-04-26T15:22:01.999Z</time></trkpt><trkpt lat="39.150655009507716" lon="16.06574029069863"><ele>0.0</ele><time>2026-04-26T15:22:02.999Z</time></trkpt><trkpt lat="39.1503940937598" lon="16.065743112168317"><ele>0.0</ele><time>2026-04-26T15:22:03.999Z</time></trkpt><trkpt lat="39.15013624496263" lon="16.065745626715948"><ele>0.0</ele><time>2026-04-26T15:22:04.999Z</time></trkpt><trkpt lat="39.14987531037653" lon="16.065748468068136"><ele>0.0</ele><time>2026-04-26T15:22:05.999Z</time></trkpt><trkpt lat="39.149617002467075" lon="16.06575073986611"><ele>0.0</ele><time>2026-04-26T15:22:06.999Z</time></trkpt><trkpt lat="39.14935854300729" lon="16.065758576055373"><ele>0.0</ele><time>2026-04-26T15:22:07.999Z</time></trkpt><trkpt lat="39.14909664097813" lon="16.065767976071616"><ele>4.0</ele><time>2026-04-26T15:22:08.999Z</time></trkpt><trkpt lat="39.148837881006486" lon="16.06578006316552"><ele>8.0</ele><time>2026-04-26T15:22:09.999Z</time></trkpt><trkpt lat="39.148576865754784" lon="16.065796827418332"><ele>8.0</ele><time>2026-04-26T15:22:10.999Z</time></trkpt><trkpt lat="39.14831557694368" lon="16.06581621865515"><ele>8.0</ele><time>2026-04-26T15:22:11.999Z</time></trkpt><trkpt lat="39.1480541918651" lon="16.065835026990968"><ele>7.0</ele><time>2026-04-26T15:22:12.999Z</time></trkpt><trkpt lat="39.14779572271394" lon="16.06585135462839"><ele>6.0</ele><time>2026-04-26T15:22:13.999Z</time></trkpt><trkpt lat="39.14753449365178" lon="16.065868724534376"><ele>7.0</ele><time>2026-04-26T15:22:14.999Z</time></trkpt><trkpt lat="39.147278746934035" lon="16.06588810383746"><ele>8.0</ele><time>2026-04-26T15:22:15.999Z</time></trkpt><trkpt lat="39.147023183283096" lon="16.065911113184214"><ele>8.0</ele><time>2026-04-26T15:22:16.999Z</time></trkpt><trkpt lat="39.14676501034126" lon="16.065937452491703"><ele>8.0</ele><time>2026-04-26T15:22:17.999Z</time></trkpt><trkpt lat="39.1465173543289" lon="16.065968206694492"><ele>6.5</ele><time>2026-04-26T15:22:18.999Z</time></trkpt><trkpt lat="39.14625688333595" lon="16.066012286764582"><ele>5.0</ele><time>2026-04-26T15:22:19.999Z</time></trkpt><trkpt lat="39.14600821790667" lon="16.066064501661565"><ele>5.0</ele><time>2026-04-26T15:22:20.999Z</time></trkpt><trkpt lat="39.14576544120686" lon="16.06611610268337"><ele>5.0</ele><time>2026-04-26T15:22:21.999Z</time></trkpt><trkpt lat="39.145510327655984" lon="16.066191318997596"><ele>4.5</ele><time>2026-04-26T15:22:22.999Z</time></trkpt><trkpt lat="39.145263721831455" lon="16.06625869380912"><ele>4.0</ele><time>2026-04-26T15:22:23.999Z</time></trkpt><trkpt lat="39.14502049637336" lon="16.06632974841409"><ele>4.0</ele><time>2026-04-26T15:22:24.999Z</time></trkpt><trkpt lat="39.144773934960476" lon="16.066411759727405"><ele>4.0</ele><time>2026-04-26T15:22:25.999Z</time></trkpt><trkpt lat="39.144529349001175" lon="16.0664993912369"><ele>4.0</ele><time>2026-04-26T15:22:26.999Z</time></trkpt><trkpt lat="39.144286584528956" lon="16.066578840239487"><ele>4.0</ele><time>2026-04-26T15:22:27.999Z</time></trkpt><trkpt lat="39.14404091588487" lon="16.066658939176918"><ele>5.5</ele><time>2026-04-26T15:22:28.999Z</time></trkpt><trkpt lat="39.14380000065625" lon="16.06673892741116"><ele>7.0</ele><time>2026-04-26T15:22:29.999Z</time></trkpt><trkpt lat="39.14356112258576" lon="16.066823729898072"><ele>7.0</ele><time>2026-04-26T15:22:30.999Z</time></trkpt><trkpt lat="39.14332404563266" lon="16.06690943425777"><ele>7.0</ele><time>2026-04-26T15:22:31.999Z</time></trkpt><trkpt lat="39.14309572457436" lon="16.06699123840246"><ele>6.5</ele><time>2026-04-26T15:22:32.999Z</time></trkpt><trkpt lat="39.14286946926308" lon="16.06707664468354"><ele>6.0</ele><time>2026-04-26T15:22:33.999Z</time></trkpt><trkpt lat="39.14264053729119" lon="16.06716008148531"><ele>6.0</ele><time>2026-04-26T15:22:34.999Z</time></trkpt><trkpt lat="39.142416040068156" lon="16.067239993355734"><ele>6.0</ele><time>2026-04-26T15:22:35.999Z</time></trkpt><trkpt lat="39.142192788972466" lon="16.06731746128354"><ele>6.0</ele><time>2026-04-26T15:22:36.999Z</time></trkpt><trkpt lat="39.14197278255374" lon="16.067389264616992"><ele>6.0</ele><time>2026-04-26T15:22:37.999Z</time></trkpt><trkpt lat="39.14175179263036" lon="16.067463466629537"><ele>5.5</ele><time>2026-04-26T15:22:38.999Z</time></trkpt><trkpt lat="39.14153339371293" lon="16.067538522752702"><ele>5.0</ele><time>2026-04-26T15:22:39.999Z</time></trkpt><trkpt lat="39.1413161250733" lon="16.067616419083"><ele>5.0</ele><time>2026-04-26T15:22:40.999Z</time></trkpt><trkpt lat="39.141099165160675" lon="16.06770087029645"><ele>5.0</ele><time>2026-04-26T15:22:41.999Z</time></trkpt><trkpt lat="39.140885349983044" lon="16.067786650974497"><ele>4.666666666666667</ele><time>2026-04-26T15:22:42.999Z</time></trkpt><trkpt lat="39.14068606713205" lon="16.067859167560954"><ele>4.333333333333333</ele><time>2026-04-26T15:22:43.999Z</time></trkpt><trkpt lat="39.14050190148582" lon="16.067922591473348"><ele>4.0</ele><time>2026-04-26T15:22:44.999Z</time></trkpt><trkpt lat="39.140355007084814" lon="16.067969806670106"><ele>4.0</ele><time>2026-04-26T15:22:45.999Z</time></trkpt><trkpt lat="39.140206935505326" lon="16.068025360760238"><ele>4.0</ele><time>2026-04-26T15:22:46.999Z</time></trkpt><trkpt lat="39.14007377455142" lon="16.068073523320784"><ele>4.0</ele><time>2026-04-26T15:22:47.999Z</time></trkpt><trkpt lat="39.13992991358219" lon="16.068120433464255"><ele>4.0</ele><time>2026-04-26T15:22:48.999Z</time></trkpt><trkpt lat="39.139783099845836" lon="16.068172495715714"><ele>3.75</ele><time>2026-04-26T15:22:49.999Z</time></trkpt><trkpt lat="39.13965169002869" lon="16.068220352657097"><ele>3.5</ele><time>2026-04-26T15:22:50.999Z</time></trkpt><trkpt lat="39.139530772620105" lon="16.06826333661101"><ele>3.25</ele><time>2026-04-26T15:22:51.999Z</time></trkpt><trkpt lat="39.139407693492394" lon="16.0683048515735"><ele>3.0</ele><time>2026-04-26T15:22:53Z</time></trkpt><trkpt lat="39.13928747891817" lon="16.068347468978644"><ele>3.75</ele><time>2026-04-26T15:22:54Z</time></trkpt><trkpt lat="39.13916560183491" lon="16.068391419529817"><ele>4.5</ele><time>2026-04-26T15:22:55Z</time></trkpt><trkpt lat="39.13904744298457" lon="16.068429708412086"><ele>5.25</ele><time>2026-04-26T15:22:56Z</time></trkpt><trkpt lat="39.138933371298364" lon="16.06846753059522"><ele>6.0</ele><time>2026-04-26T15:22:57Z</time></trkpt><trkpt lat="39.13882450774472" lon="16.068506134715552"><ele>6.0</ele><time>2026-04-26T15:22:58Z</time></trkpt><trkpt lat="39.138719341513934" lon="16.068541115194776"><ele>6.0</ele><time>2026-04-26T15:22:59Z</time></trkpt><trkpt lat="39.13861878378374" lon="16.06857636843809"><ele>6.0</ele><time>2026-04-26T15:23:00Z</time></trkpt><trkpt lat="39.138515781538054" lon="16.068612169485284"><ele>6.0</ele><time>2026-04-26T15:23:01Z</time></trkpt><trkpt lat="39.138409301636116" lon="16.06864590171284"><ele>6.0</ele><time>2026-04-26T15:23:02Z</time></trkpt><trkpt lat="39.13829955582303" lon="16.068688195082572"><ele>5.75</ele><time>2026-04-26T15:23:03Z</time></trkpt><trkpt lat="39.13818863089762" lon="16.06872705189755"><ele>5.5</ele><time>2026-04-26T15:23:04Z</time></trkpt><trkpt lat="39.13806776235212" lon="16.06876770409305"><ele>5.25</ele><time>2026-04-26T15:23:05Z</time></trkpt><trkpt lat="39.13794160784914" lon="16.06882010421375"><ele>5.0</ele><time>2026-04-26T15:23:06Z</time></trkpt><trkpt lat="39.13779201116936" lon="16.06886558983847"><ele>5.0</ele><time>2026-04-26T15:23:07Z</time></trkpt><trkpt lat="39.13764702348695" lon="16.068922781081984"><ele>5.0</ele><time>2026-04-26T15:23:08Z</time></trkpt><trkpt lat="39.137498346783154" lon="16.06899062855469"><ele>5.0</ele><time>2026-04-26T15:23:09Z</time></trkpt><trkpt lat="39.13734785644481" lon="16.069059740144"><ele>5.0</ele><time>2026-04-26T15:23:10Z</time></trkpt><trkpt lat="39.13719197672266" lon="16.069126594054257"><ele>5.0</ele><time>2026-04-26T15:23:11.001Z</time></trkpt><trkpt lat="39.13704482970341" lon="16.069192465124495"><ele>5.0</ele><time>2026-04-26T15:23:12.001Z</time></trkpt><trkpt lat="39.136907439590885" lon="16.06926085853872"><ele>5.0</ele><time>2026-04-26T15:23:13.001Z</time></trkpt><trkpt lat="39.13677482013539" lon="16.06933648019758"><ele>5.0</ele><time>2026-04-26T15:23:14.001Z</time></trkpt><trkpt lat="39.13664754914122" lon="16.069428637875994"><ele>5.0</ele><time>2026-04-26T15:23:15.001Z</time></trkpt><trkpt lat="39.136520971340296" lon="16.06952523923013"><ele>5.0</ele><time>2026-04-26T15:23:16.001Z</time></trkpt><trkpt lat="39.136390891533196" lon="16.069609524145495"><ele>5.0</ele><time>2026-04-26T15:23:17.001Z</time></trkpt><trkpt lat="39.13626209757257" lon="16.069700938684353"><ele>5.0</ele><time>2026-04-26T15:23:18.001Z</time></trkpt><trkpt lat="39.13613788061746" lon="16.069776403060075"><ele>5.0</ele><time>2026-04-26T15:23:19.001Z</time></trkpt><trkpt lat="39.136014921933175" lon="16.06986084967338"><ele>5.0</ele><time>2026-04-26T15:23:20Z</time></trkpt><trkpt lat="39.13589399034653" lon="16.069942413744293"><ele>5.25</ele><time>2026-04-26T15:23:21Z</time></trkpt><trkpt lat="39.13577712834322" lon="16.070026604432062"><ele>5.5</ele><time>2026-04-26T15:23:22Z</time></trkpt><trkpt lat="39.135662795650255" lon="16.070108130585858"><ele>5.75</ele><time>2026-04-26T15:23:23Z</time></trkpt><trkpt lat="39.1355565514532" lon="16.070184902423684"><ele>6.0</ele><time>2026-04-26T15:23:24Z</time></trkpt><trkpt lat="39.13544958014966" lon="16.070257951990037"><ele>6.0</ele><time>2026-04-26T15:23:25Z</time></trkpt><trkpt lat="39.135347016277315" lon="16.070330433754688"><ele>6.0</ele><time>2026-04-26T15:23:26Z</time></trkpt><trkpt lat="39.13525073477223" lon="16.070398766146567"><ele>6.0</ele><time>2026-04-26T15:23:27Z</time></trkpt><trkpt lat="39.13516251123097" lon="16.070457067456058"><ele>6.0</ele><time>2026-04-26T15:23:28Z</time></trkpt><trkpt lat="39.13507891366686" lon="16.070515480807497"><ele>6.0</ele><time>2026-04-26T15:23:29Z</time></trkpt><trkpt lat="39.13499722593168" lon="16.07057681437391"><ele>6.0</ele><time>2026-04-26T15:23:30Z</time></trkpt><trkpt lat="39.13491454060543" lon="16.07064347941872"><ele>6.0</ele><time>2026-04-26T15:23:31Z</time></trkpt><trkpt lat="39.134827929945835" lon="16.07069857841705"><ele>6.0</ele><time>2026-04-26T15:23:32Z</time></trkpt><trkpt lat="39.134734443241" lon="16.07076440703827"><ele>6.0</ele><time>2026-04-26T15:23:33Z</time></trkpt><trkpt lat="39.13463923758495" lon="16.070825975612156"><ele>6.0</ele><time>2026-04-26T15:23:34Z</time></trkpt><trkpt lat="39.13454352566063" lon="16.070885346796945"><ele>5.75</ele><time>2026-04-26T15:23:35Z</time></trkpt><trkpt lat="39.13444669476997" lon="16.070946208016906"><ele>5.5</ele><time>2026-04-26T15:23:36Z</time></trkpt><trkpt lat="39.134339863239546" lon="16.071016279228434"><ele>5.25</ele><time>2026-04-26T15:23:37Z</time></trkpt><trkpt lat="39.134236610964955" lon="16.071085741024977"><ele>5.0</ele><time>2026-04-26T15:23:38Z</time></trkpt><trkpt lat="39.13413417822052" lon="16.071150939779724"><ele>5.25</ele><time>2026-04-26T15:23:39Z</time></trkpt><trkpt lat="39.134026519599594" lon="16.071205305558106"><ele>5.5</ele><time>2026-04-26T15:23:40Z</time></trkpt><trkpt lat="39.13391985511078" lon="16.071249014365094"><ele>5.75</ele><time>2026-04-26T15:23:41Z</time></trkpt><trkpt lat="39.133811048988036" lon="16.071285043578065"><ele>6.0</ele><time>2026-04-26T15:23:42Z</time></trkpt><trkpt lat="39.1337009293895" lon="16.071319125117476"><ele>6.0</ele><time>2026-04-26T15:23:43Z</time></trkpt><trkpt lat="39.133591875012115" lon="16.071343611214136"><ele>6.0</ele><time>2026-04-26T15:23:44Z</time></trkpt><trkpt lat="39.133474811217354" lon="16.071372749444247"><ele>6.0</ele><time>2026-04-26T15:23:45Z</time></trkpt><trkpt lat="39.13335994196958" lon="16.0713809360159"><ele>6.0</ele><time>2026-04-26T15:23:46Z</time></trkpt><trkpt lat="39.13325002433695" lon="16.07139083219586"><ele>6.199999999999999</ele><time>2026-04-26T15:23:47Z</time></trkpt><trkpt lat="39.133144743771545" lon="16.071397406636184"><ele>6.3999999999999995</ele><time>2026-04-26T15:23:48Z</time></trkpt><trkpt lat="39.133045125529385" lon="16.07138897994686"><ele>6.6</ele><time>2026-04-26T15:23:49Z</time></trkpt><trkpt lat="39.13296525889508" lon="16.07139329771994"><ele>6.8</ele><time>2026-04-26T15:23:50Z</time></trkpt><trkpt lat="39.132890783124196" lon="16.07139174368771"><ele>7.0</ele><time>2026-04-26T15:23:51Z</time></trkpt><trkpt lat="39.132766116854555" lon="16.071374319383686"><ele>7.000000000000001</ele><time>2026-04-26T15:23:53Z</time></trkpt><trkpt lat="39.13270252098839" lon="16.071358439431656"><ele>7.0</ele><time>2026-04-26T15:23:54Z</time></trkpt><trkpt lat="39.13263636775514" lon="16.071351752201966"><ele>7.0</ele><time>2026-04-26T15:23:55Z</time></trkpt><trkpt lat="39.13254152214194" lon="16.07134276880677"><ele>7.0</ele><time>2026-04-26T15:23:56Z</time></trkpt><trkpt lat="39.132475676746715" lon="16.071320828706092"><ele>7.000000000000001</ele><time>2026-04-26T15:23:57Z</time></trkpt><trkpt lat="39.132407793157235" lon="16.07130682986842"><ele>7.0</ele><time>2026-04-26T15:23:58Z</time></trkpt><trkpt lat="39.13229401599041" lon="16.071276505643205"><ele>7.0</ele><time>2026-04-26T15:24:00Z</time></trkpt><trkpt lat="39.13224405365198" lon="16.07143938195325"><ele>6.999999999999999</ele><time>2026-04-26T15:24:03Z</time></trkpt><trkpt lat="39.132287591961315" lon="16.07155051721088"><ele>6.999999999999999</ele><time>2026-04-26T15:24:05Z</time></trkpt><trkpt lat="39.13230824514925" lon="16.071639860629272"><ele>7.0</ele><time>2026-04-26T15:24:06Z</time></trkpt><trkpt lat="39.13233124128754" lon="16.07173748760934"><ele>7.0</ele><time>2026-04-26T15:24:07Z</time></trkpt><trkpt lat="39.13236367550964" lon="16.071837284215352"><ele>7.166666666666667</ele><time>2026-04-26T15:24:08Z</time></trkpt><trkpt lat="39.1323939814498" lon="16.07194686406725"><ele>7.333333333333334</ele><time>2026-04-26T15:24:09Z</time></trkpt><trkpt lat="39.13242350700648" lon="16.072058698140562"><ele>7.5</ele><time>2026-04-26T15:24:10Z</time></trkpt><trkpt lat="39.13245660713425" lon="16.072165780873217"><ele>7.666666666666666</ele><time>2026-04-26T15:24:11Z</time></trkpt><trkpt lat="39.13248784195939" lon="16.072266076641487"><ele>7.833333333333333</ele><time>2026-04-26T15:24:12Z</time></trkpt><trkpt lat="39.132516455608744" lon="16.072367371210685"><ele>8.0</ele><time>2026-04-26T15:24:13Z</time></trkpt><trkpt lat="39.13254350508649" lon="16.07247405433348"><ele>8.0</ele><time>2026-04-26T15:24:14Z</time></trkpt><trkpt lat="39.132565803160595" lon="16.0725699222312"><ele>8.0</ele><time>2026-04-26T15:24:15Z</time></trkpt></trkseg></trk></gpx>